Wetterdaten: Freitag, 06.04.2018
Datum Zeit Temp. A. Pool Temp. Feuchte A. Luftdruck Regen Wind Richtung Richtung Sonnenschein ET UV Solar Taupunkt Windchill Windben Empfang
06.04.2018 00:00 8,2 C 7,8 C 77 % 1019,4 hPa 0,0 l/m 11,4 km/h (2 Bft) W 281 0 min 0,000 mm 0,0 UV-I 0 W/m 4,4 C 4,8 C 14,5 km/h (3 Bft) 92,59 %
06.04.2018 00:01 8,2 C 7,8 C 77 % 1019,4 hPa 0,0 l/m 16,6 km/h (3 Bft) W-NW 288 0 min 0,000 mm 0,0 UV-I 0 W/m 4,4 C 2,3 C 27,4 km/h (4 Bft) 100,00 %
06.04.2018 00:02 8,2 C 7,8 C 77 % 1019,4 hPa 0,0 l/m 14,9 km/h (3 Bft) W 264 0 min 0,000 mm 0,0 UV-I 0 W/m 4,4 C 3,0 C 19,3 km/h (3 Bft) 96,30 %
06.04.2018 00:03 8,2 C 7,8 C 77 % 1019,4 hPa 0,0 l/m 15,0 km/h (3 Bft) W-SW 253 0 min 0,000 mm 0,0 UV-I 0 W/m 4,4 C 3,0 C 20,9 km/h (4 Bft) 96,15 %
06.04.2018 00:04 8,2 C 7,8 C 76 % 1019,4 hPa 0,0 l/m 15,2 km/h (3 Bft) W-NW 295 0 min 0,000 mm 0,0 UV-I 0 W/m 4,2 C 2,9 C 20,9 km/h (4 Bft) 92,59 %
06.04.2018 00:05 8,2 C 7,8 C 77 % 1019,4 hPa 0,0 l/m 13,3 km/h (3 Bft) W-SW 255 0 min 0,000 mm 0,0 UV-I 0 W/m 4,4 C 3,8 C 25,7 km/h (4 Bft) 93,33 %
06.04.2018 00:06 8,1 C 7,8 C 77 % 1019,6 hPa 0,0 l/m 12,7 km/h (3 Bft) W 265 0 min 0,000 mm 0,0 UV-I 0 W/m 4,3 C 4,0 C 16,1 km/h (3 Bft) 96,15 %
06.04.2018 00:07 8,1 C 7,8 C 77 % 1019,6 hPa 0,0 l/m 10,1 km/h (2 Bft) W 260 0 min 0,000 mm 0,0 UV-I 0 W/m 4,3 C 5,4 C 16,1 km/h (3 Bft) 95,83 %
06.04.2018 00:08 8,1 C 7,8 C 77 % 1019,6 hPa 0,0 l/m 15,6 km/h (3 Bft) W 281 0 min 0,000 mm 0,0 UV-I 0 W/m 4,3 C 2,6 C 19,3 km/h (3 Bft) 100,00 %
06.04.2018 00:09 8,1 C 7,8 C 77 % 1019,6 hPa 0,0 l/m 11,1 km/h (2 Bft) W 275 0 min 0,000 mm 0,0 UV-I 0 W/m 4,3 C 4,8 C 17,7 km/h (3 Bft) 96,30 %
06.04.2018 00:10 8,1 C 7,8 C 77 % 1019,6 hPa 0,0 l/m 16,1 km/h (3 Bft) W-NW 293 0 min 0,000 mm 0,0 UV-I 0 W/m 4,3 C 2,3 C 20,9 km/h (4 Bft) 100,00 %
06.04.2018 00:11 8,1 C 7,8 C 77 % 1019,6 hPa 0,0 l/m 16,3 km/h (3 Bft) W 275 0 min 0,000 mm 0,0 UV-I 0 W/m 4,3 C 2,3 C 20,9 km/h (4 Bft) 91,67 %
06.04.2018 00:12 8,1 C 7,8 C 76 % 1019,6 hPa 0,0 l/m 15,5 km/h (3 Bft) W-SW 254 0 min 0,000 mm 0,0 UV-I 0 W/m 4,1 C 2,6 C 19,3 km/h (3 Bft) 100,00 %
06.04.2018 00:13 8,1 C 7,8 C 76 % 1019,6 hPa 0,0 l/m 13,9 km/h (3 Bft) W-SW 257 0 min 0,000 mm 0,0 UV-I 0 W/m 4,1 C 3,3 C 20,9 km/h (4 Bft) 91,67 %
06.04.2018 00:14 8,1 C 7,8 C 76 % 1019,6 hPa 0,0 l/m 14,3 km/h (3 Bft) W 280 0 min 0,000 mm 0,0 UV-I 0 W/m 4,1 C 3,2 C 16,1 km/h (3 Bft) 100,00 %
06.04.2018 00:15 8,1 C 7,8 C 77 % 1019,7 hPa 0,0 l/m 13,1 km/h (3 Bft) W 276 0 min 0,000 mm 0,0 UV-I 0 W/m 4,3 C 3,7 C 16,1 km/h (3 Bft) 96,30 %
06.04.2018 00:16 8,1 C 7,8 C 76 % 1019,7 hPa 0,0 l/m 14,0 km/h (3 Bft) W 270 0 min 0,000 mm 0,0 UV-I 0 W/m 4,1 C 3,3 C 20,9 km/h (4 Bft) 95,65 %
06.04.2018 00:17 8,1 C 7,8 C 77 % 1019,7 hPa 0,0 l/m 13,9 km/h (3 Bft) W 270 0 min 0,000 mm 0,0 UV-I 0 W/m 4,3 C 3,3 C 17,7 km/h (3 Bft) 100,00 %
06.04.2018 00:18 8,1 C 7,8 C 77 % 1019,7 hPa 0,0 l/m 11,3 km/h (2 Bft) SW 228 0 min 0,000 mm 0,0 UV-I 0 W/m 4,3 C 4,7 C 12,9 km/h (3 Bft) 100,00 %
06.04.2018 00:19 8,1 C 7,8 C 77 % 1019,7 hPa 0,0 l/m 13,5 km/h (3 Bft) SW 226 0 min 0,000 mm 0,0 UV-I 0 W/m 4,3 C 3,5 C 17,7 km/h (3 Bft) 100,00 %
06.04.2018 00:20 8,0 C 7,8 C 77 % 1019,7 hPa 0,0 l/m 19,3 km/h (3 Bft) W 262 0 min 0,000 mm 0,0 UV-I 0 W/m 4,2 C 1,0 C 25,7 km/h (4 Bft) 95,65 %
06.04.2018 00:21 8,0 C 7,8 C 77 % 1019,7 hPa 0,0 l/m 17,0 km/h (3 Bft) W-SW 253 0 min 0,000 mm 0,0 UV-I 0 W/m 4,2 C 1,8 C 22,5 km/h (4 Bft) 100,00 %
06.04.2018 00:22 8,1 C 7,8 C 77 % 1019,8 hPa 0,0 l/m 15,8 km/h (3 Bft) W 265 0 min 0,000 mm 0,0 UV-I 0 W/m 4,3 C 2,5 C 20,9 km/h (4 Bft) 95,65 %
06.04.2018 00:23 8,1 C 7,8 C 77 % 1019,8 hPa 0,0 l/m 12,6 km/h (3 Bft) W-SW 256 0 min 0,000 mm 0,0 UV-I 0 W/m 4,3 C 4,0 C 16,1 km/h (3 Bft) 93,33 %
06.04.2018 00:24 8,1 C 7,8 C 77 % 1019,8 hPa 0,0 l/m 11,0 km/h (2 Bft) W-SW 247 0 min 0,000 mm 0,0 UV-I 0 W/m 4,3 C 4,9 C 16,1 km/h (3 Bft) 100,00 %
06.04.2018 00:25 8,1 C 7,8 C 77 % 1019,8 hPa 0,0 l/m 12,5 km/h (3 Bft) W 279 0 min 0,000 mm 0,0 UV-I 0 W/m 4,3 C 4,1 C 16,1 km/h (3 Bft) 100,00 %
06.04.2018 00:26 8,0 C 7,8 C 77 % 1019,8 hPa 0,0 l/m 14,3 km/h (3 Bft) W-SW 244 0 min 0,000 mm 0,0 UV-I 0 W/m 4,2 C 3,0 C 20,9 km/h (4 Bft) 92,59 %
06.04.2018 00:27 8,0 C 7,8 C 77 % 1019,8 hPa 0,0 l/m 15,9 km/h (3 Bft) W 278 0 min 0,000 mm 0,0 UV-I 0 W/m 4,2 C 2,3 C 24,1 km/h (4 Bft) 96,15 %
06.04.2018 00:28 8,1 C 7,8 C 77 % 1019,8 hPa 0,0 l/m 14,1 km/h (3 Bft) W 261 0 min 0,000 mm 0,0 UV-I 0 W/m 4,3 C 3,3 C 17,7 km/h (3 Bft) 100,00 %
06.04.2018 00:29 8,1 C 7,8 C 77 % 1019,8 hPa 0,0 l/m 20,6 km/h (4 Bft) W-SW 257 0 min 0,000 mm 0,0 UV-I 0 W/m 4,3 C 0,6 C 27,4 km/h (4 Bft) 91,67 %
06.04.2018 00:30 8,1 C 7,8 C 77 % 1019,8 hPa 0,0 l/m 12,1 km/h (2 Bft) W-SW 251 0 min 0,000 mm 0,0 UV-I 0 W/m 4,3 C 4,3 C 16,1 km/h (3 Bft) 100,00 %
06.04.2018 00:31 8,1 C 7,8 C 77 % 1019,9 hPa 0,0 l/m 18,0 km/h (3 Bft) W 268 0 min 0,000 mm 0,0 UV-I 0 W/m 4,3 C 1,6 C 22,5 km/h (4 Bft) 100,00 %
06.04.2018 00:32 8,1 C 7,8 C 77 % 1019,9 hPa 0,0 l/m 18,6 km/h (3 Bft) W-SW 257 0 min 0,000 mm 0,0 UV-I 0 W/m 4,3 C 1,3 C 22,5 km/h (4 Bft) 100,00 %
06.04.2018 00:33 8,1 C 7,8 C 77 % 1020,0 hPa 0,0 l/m 16,3 km/h (3 Bft) W 272 0 min 0,000 mm 0,0 UV-I 0 W/m 4,3 C 2,3 C 20,9 km/h (4 Bft) 100,00 %
06.04.2018 00:34 8,0 C 7,8 C 77 % 1020,1 hPa 0,0 l/m 12,5 km/h (3 Bft) W-SW 255 0 min 0,000 mm 0,0 UV-I 0 W/m 4,2 C 3,9 C 14,5 km/h (3 Bft) 100,00 %
06.04.2018 00:35 8,0 C 7,8 C 77 % 1020,1 hPa 0,0 l/m 12,4 km/h (3 Bft) W-SW 253 0 min 0,000 mm 0,0 UV-I 0 W/m 4,2 C 4,0 C 16,1 km/h (3 Bft) 100,00 %
06.04.2018 00:36 8,0 C 7,8 C 77 % 1020,1 hPa 0,0 l/m 18,3 km/h (3 Bft) W-SW 240 0 min 0,000 mm 0,0 UV-I 0 W/m 4,2 C 1,3 C 24,1 km/h (4 Bft) 100,00 %
06.04.2018 00:37 8,0 C 7,8 C 77 % 1020,1 hPa 0,0 l/m 13,4 km/h (3 Bft) W-SW 237 0 min 0,000 mm 0,0 UV-I 0 W/m 4,2 C 3,5 C 16,1 km/h (3 Bft) 100,00 %
06.04.2018 00:38 7,9 C 7,8 C 77 % 1020,1 hPa 0,0 l/m 13,0 km/h (3 Bft) SW 236 0 min 0,000 mm 0,0 UV-I 0 W/m 4,1 C 3,6 C 19,3 km/h (3 Bft) 100,00 %
06.04.2018 00:39 7,9 C 7,8 C 77 % 1020,2 hPa 0,0 l/m 15,0 km/h (3 Bft) W-SW 250 0 min 0,000 mm 0,0 UV-I 0 W/m 4,1 C 2,6 C 22,5 km/h (4 Bft) 100,00 %
06.04.2018 00:40 7,9 C 7,8 C 77 % 1020,2 hPa 0,0 l/m 13,3 km/h (3 Bft) W 279 0 min 0,000 mm 0,0 UV-I 0 W/m 4,1 C 3,4 C 22,5 km/h (4 Bft) 100,00 %
06.04.2018 00:41 7,9 C 7,8 C 77 % 1020,1 hPa 0,0 l/m 14,9 km/h (3 Bft) W 277 0 min 0,000 mm 0,0 UV-I 0 W/m 4,1 C 2,6 C 20,9 km/h (4 Bft) 96,55 %
06.04.2018 00:42 7,9 C 7,8 C 77 % 1020,1 hPa 0,0 l/m 13,0 km/h (3 Bft) W-SW 256 0 min 0,000 mm 0,0 UV-I 0 W/m 4,1 C 3,6 C 16,1 km/h (3 Bft) 100,00 %
06.04.2018 00:43 7,9 C 7,8 C 77 % 1020,1 hPa 0,0 l/m 13,1 km/h (3 Bft) W 272 0 min 0,000 mm 0,0 UV-I 0 W/m 4,1 C 3,5 C 19,3 km/h (3 Bft) 100,00 %
06.04.2018 00:44 7,9 C 7,8 C 77 % 1020,2 hPa 0,0 l/m 13,3 km/h (3 Bft) W-SW 256 0 min 0,000 mm 0,0 UV-I 0 W/m 4,1 C 3,4 C 19,3 km/h (3 Bft) 100,00 %
06.04.2018 00:45 7,9 C 7,8 C 77 % 1020,3 hPa 0,0 l/m 12,8 km/h (3 Bft) W-SW 250 0 min 0,000 mm 0,0 UV-I 0 W/m 4,1 C 3,7 C 16,1 km/h (3 Bft) 96,30 %
06.04.2018 00:46 7,9 C 7,8 C 77 % 1020,3 hPa 0,0 l/m 14,3 km/h (3 Bft) SW 219 0 min 0,000 mm 0,0 UV-I 0 W/m 4,1 C 2,9 C 17,7 km/h (3 Bft) 100,00 %
06.04.2018 00:47 7,8 C 7,8 C 76 % 1020,4 hPa 0,0 l/m 15,9 km/h (3 Bft) W 263 0 min 0,000 mm 0,0 UV-I 0 W/m 3,8 C 2,1 C 24,1 km/h (4 Bft) 96,67 %
06.04.2018 00:48 7,8 C 7,8 C 76 % 1020,4 hPa 0,0 l/m 12,6 km/h (3 Bft) W 275 0 min 0,000 mm 0,0 UV-I 0 W/m 3,8 C 3,7 C 17,7 km/h (3 Bft) 100,00 %
06.04.2018 00:49 7,8 C 7,8 C 77 % 1020,3 hPa 0,0 l/m 16,5 km/h (3 Bft) W-SW 254 0 min 0,000 mm 0,0 UV-I 0 W/m 4,0 C 1,8 C 24,1 km/h (4 Bft) 96,30 %
06.04.2018 00:50 7,8 C 7,8 C 77 % 1020,3 hPa 0,0 l/m 15,6 km/h (3 Bft) SW 228 0 min 0,000 mm 0,0 UV-I 0 W/m 4,0 C 2,2 C 20,9 km/h (4 Bft) 96,15 %
06.04.2018 00:51 7,8 C 7,8 C 76 % 1020,4 hPa 0,0 l/m 20,3 km/h (4 Bft) W 276 0 min 0,000 mm 0,0 UV-I 0 W/m 3,8 C 0,3 C 27,4 km/h (4 Bft) 100,00 %
06.04.2018 00:52 7,8 C 7,8 C 76 % 1020,4 hPa 0,0 l/m 19,5 km/h (3 Bft) W 263 0 min 0,000 mm 0,0 UV-I 0 W/m 3,8 C 0,6 C 25,7 km/h (4 Bft) 96,15 %
06.04.2018 00:53 7,8 C 8,3 C 76 % 1020,4 hPa 0,0 l/m 20,9 km/h (4 Bft) W-SW 244 0 min 0,000 mm 0,0 UV-I 0 W/m 3,8 C 0,1 C 24,1 km/h (4 Bft) 100,00 %
06.04.2018 00:54 7,8 C 7,8 C 76 % 1020,3 hPa 0,0 l/m 19,1 km/h (3 Bft) W 259 0 min 0,000 mm 0,0 UV-I 0 W/m 3,8 C 0,8 C 25,7 km/h (4 Bft) 91,30 %
06.04.2018 00:55 7,8 C 7,8 C 76 % 1020,4 hPa 0,0 l/m 17,2 km/h (3 Bft) SW 232 0 min 0,000 mm 0,0 UV-I 0 W/m 3,8 C 1,5 C 22,5 km/h (4 Bft) 100,00 %
06.04.2018 00:56 7,8 C 8,3 C 76 % 1020,4 hPa 0,0 l/m 17,0 km/h (3 Bft) W 266 0 min 0,000 mm 0,0 UV-I 0 W/m 3,8 C 1,6 C 22,5 km/h (4 Bft) 96,55 %
06.04.2018 00:57 7,8 C 7,8 C 76 % 1020,5 hPa 0,0 l/m 13,7 km/h (3 Bft) W-SW 253 0 min 0,000 mm 0,0 UV-I 0 W/m 3,8 C 3,1 C 19,3 km/h (3 Bft) 100,00 %
06.04.2018 00:58 7,7 C 8,3 C 76 % 1020,5 hPa 0,0 l/m 15,0 km/h (3 Bft) W 269 0 min 0,000 mm 0,0 UV-I 0 W/m 3,7 C 2,3 C 20,9 km/h (4 Bft) 96,15 %
06.04.2018 00:59 7,7 C 7,8 C 76 % 1020,5 hPa 0,0 l/m 22,4 km/h (4 Bft) W-SW 251 0 min 0,000 mm 0,0 UV-I 0 W/m 3,7 C -0,5 C 35,4 km/h (5 Bft) 96,67 %
06.04.2018 01:00 7,7 C 7,8 C 76 % 1020,5 hPa 0,0 l/m 14,7 km/h (3 Bft) SW 236 0 min 0,025 mm 0,0 UV-I 0 W/m 3,7 C 2,5 C 22,5 km/h (4 Bft) 100,00 %
06.04.2018 01:01 7,7 C 7,8 C 76 % 1020,6 hPa 0,0 l/m 17,2 km/h (3 Bft) W-NW 290 0 min 0,000 mm 0,0 UV-I 0 W/m 3,7 C 1,4 C 24,1 km/h (4 Bft) 96,15 %
06.04.2018 01:02 7,7 C 7,8 C 76 % 1020,6 hPa 0,0 l/m 17,2 km/h (3 Bft) W 259 0 min 0,000 mm 0,0 UV-I 0 W/m 3,7 C 1,4 C 22,5 km/h (4 Bft) 100,00 %
06.04.2018 01:03 7,7 C 8,3 C 76 % 1020,6 hPa 0,0 l/m 14,1 km/h (3 Bft) W 265 0 min 0,000 mm 0,0 UV-I 0 W/m 3,7 C 2,8 C 17,7 km/h (3 Bft) 91,67 %
06.04.2018 01:04 7,7 C 8,3 C 76 % 1020,6 hPa 0,0 l/m 13,9 km/h (3 Bft) SW 234 0 min 0,000 mm 0,0 UV-I 0 W/m 3,7 C 2,9 C 19,3 km/h (3 Bft) 96,30 %
06.04.2018 01:05 7,7 C 8,3 C 76 % 1020,6 hPa 0,0 l/m 12,2 km/h (2 Bft) W-SW 254 0 min 0,000 mm 0,0 UV-I 0 W/m 3,7 C 3,8 C 16,1 km/h (3 Bft) 96,15 %
06.04.2018 01:06 7,7 C 7,8 C 76 % 1020,6 hPa 0,0 l/m 13,8 km/h (3 Bft) SW 223 0 min 0,000 mm 0,0 UV-I 0 W/m 3,7 C 2,9 C 19,3 km/h (3 Bft) 92,59 %
06.04.2018 01:07 7,7 C 8,3 C 76 % 1020,6 hPa 0,0 l/m 14,6 km/h (3 Bft) W-SW 250 0 min 0,000 mm 0,0 UV-I 0 W/m 3,7 C 2,5 C 19,3 km/h (3 Bft) 100,00 %
06.04.2018 01:08 7,6 C 8,3 C 76 % 1020,6 hPa 0,0 l/m 14,7 km/h (3 Bft) W-SW 241 0 min 0,000 mm 0,0 UV-I 0 W/m 3,6 C 2,4 C 20,9 km/h (4 Bft) 93,33 %
06.04.2018 01:09 7,6 C 7,8 C 76 % 1020,6 hPa 0,0 l/m 10,8 km/h (2 Bft) W-SW 249 0 min 0,000 mm 0,0 UV-I 0 W/m 3,6 C 4,4 C 19,3 km/h (3 Bft) 100,00 %
06.04.2018 01:10 7,6 C 8,3 C 76 % 1020,6 hPa 0,0 l/m 13,5 km/h (3 Bft) W-SW 254 0 min 0,000 mm 0,0 UV-I 0 W/m 3,6 C 3,0 C 19,3 km/h (3 Bft) 95,83 %
06.04.2018 01:11 7,6 C 8,3 C 77 % 1020,6 hPa 0,0 l/m 14,9 km/h (3 Bft) W-SW 257 0 min 0,000 mm 0,0 UV-I 0 W/m 3,8 C 2,3 C 20,9 km/h (4 Bft) 100,00 %
06.04.2018 01:12 7,6 C 8,3 C 77 % 1020,6 hPa 0,0 l/m 15,0 km/h (3 Bft) W-SW 242 0 min 0,000 mm 0,0 UV-I 0 W/m 3,8 C 2,2 C 19,3 km/h (3 Bft) 91,67 %
06.04.2018 01:13 7,6 C 7,8 C 77 % 1020,6 hPa 0,0 l/m 13,9 km/h (3 Bft) W-SW 248 0 min 0,000 mm 0,0 UV-I 0 W/m 3,8 C 2,8 C 16,1 km/h (3 Bft) 100,00 %
06.04.2018 01:14 7,6 C 8,3 C 77 % 1020,6 hPa 0,0 l/m 12,5 km/h (3 Bft) SW 234 0 min 0,000 mm 0,0 UV-I 0 W/m 3,8 C 3,5 C 17,7 km/h (3 Bft) 97,37 %
06.04.2018 01:15 7,6 C 8,3 C 77 % 1020,6 hPa 0,0 l/m 14,2 km/h (3 Bft) W-SW 252 0 min 0,000 mm 0,0 UV-I 0 W/m 3,8 C 2,6 C 19,3 km/h (3 Bft) 96,15 %
06.04.2018 01:16 7,6 C 8,3 C 77 % 1020,7 hPa 0,0 l/m 12,8 km/h (3 Bft) SW 234 0 min 0,000 mm 0,0 UV-I 0 W/m 3,8 C 3,3 C 16,1 km/h (3 Bft) 100,00 %
06.04.2018 01:17 7,5 C 8,3 C 77 % 1020,7 hPa 0,0 l/m 11,8 km/h (2 Bft) W-SW 239 0 min 0,000 mm 0,0 UV-I 0 W/m 3,7 C 3,7 C 17,7 km/h (3 Bft) 96,55 %
06.04.2018 01:18 7,6 C 8,3 C 77 % 1020,6 hPa 0,0 l/m 15,9 km/h (3 Bft) W-SW 256 0 min 0,000 mm 0,0 UV-I 0 W/m 3,8 C 1,8 C 24,1 km/h (4 Bft) 100,00 %
06.04.2018 01:19 7,5 C 8,3 C 77 % 1020,6 hPa 0,0 l/m 13,7 km/h (3 Bft) W 265 0 min 0,000 mm 0,0 UV-I 0 W/m 3,7 C 2,7 C 19,3 km/h (3 Bft) 96,15 %
06.04.2018 01:20 7,5 C 8,3 C 76 % 1020,7 hPa 0,0 l/m 14,9 km/h (3 Bft) W-SW 252 0 min 0,000 mm 0,0 UV-I 0 W/m 3,5 C 2,2 C 19,3 km/h (3 Bft) 95,83 %
06.04.2018 01:21 7,6 C 8,3 C 76 % 1020,6 hPa 0,0 l/m 14,8 km/h (3 Bft) SW 225 0 min 0,000 mm 0,0 UV-I 0 W/m 3,6 C 2,3 C 17,7 km/h (3 Bft) 95,65 %
06.04.2018 01:22 7,6 C 8,3 C 76 % 1020,6 hPa 0,0 l/m 13,3 km/h (3 Bft) SW 235 0 min 0,000 mm 0,0 UV-I 0 W/m 3,6 C 3,1 C 17,7 km/h (3 Bft) 95,83 %
06.04.2018 01:23 7,5 C 8,3 C 77 % 1020,7 hPa 0,0 l/m 13,4 km/h (3 Bft) S-SW 207 0 min 0,000 mm 0,0 UV-I 0 W/m 3,7 C 2,9 C 16,1 km/h (3 Bft) 100,00 %
06.04.2018 01:24 7,5 C 8,3 C 77 % 1020,7 hPa 0,0 l/m 13,7 km/h (3 Bft) W-SW 238 0 min 0,000 mm 0,0 UV-I 0 W/m 3,7 C 2,7 C 16,1 km/h (3 Bft) 100,00 %
06.04.2018 01:25 7,5 C 7,8 C 77 % 1020,7 hPa 0,0 l/m 13,5 km/h (3 Bft) W 261 0 min 0,000 mm 0,0 UV-I 0 W/m 3,7 C 2,8 C 17,7 km/h (3 Bft) 100,00 %
06.04.2018 01:26 7,5 C 8,3 C 77 % 1020,7 hPa 0,0 l/m 14,4 km/h (3 Bft) W-SW 251 0 min 0,000 mm 0,0 UV-I 0 W/m 3,7 C 2,4 C 17,7 km/h (3 Bft) 100,00 %
06.04.2018 01:27 7,4 C 8,3 C 77 % 1020,7 hPa 0,0 l/m 15,2 km/h (3 Bft) W-SW 246 0 min 0,000 mm 0,0 UV-I 0 W/m 3,6 C 1,9 C 19,3 km/h (3 Bft) 100,00 %
06.04.2018 01:28 7,4 C 8,3 C 77 % 1020,8 hPa 0,0 l/m 12,1 km/h (2 Bft) W-SW 240 0 min 0,000 mm 0,0 UV-I 0 W/m 3,6 C 3,5 C 14,5 km/h (3 Bft) 100,00 %
06.04.2018 01:29 7,4 C 8,3 C 77 % 1020,8 hPa 0,0 l/m 12,2 km/h (2 Bft) W-SW 250 0 min 0,000 mm 0,0 UV-I 0 W/m 3,6 C 3,4 C 14,5 km/h (3 Bft) 100,00 %
06.04.2018 01:30 7,3 C 8,3 C 77 % 1020,7 hPa 0,0 l/m 13,7 km/h (3 Bft) W-SW 247 0 min 0,000 mm 0,0 UV-I 0 W/m 3,5 C 2,5 C 19,3 km/h (3 Bft) 100,00 %
06.04.2018 01:31 7,3 C 8,3 C 78 % 1020,8 hPa 0,0 l/m 13,3 km/h (3 Bft) W-SW 242 0 min 0,000 mm 0,0 UV-I 0 W/m 3,7 C 2,7 C 17,7 km/h (3 Bft) 100,00 %
06.04.2018 01:32 7,3 C 8,3 C 78 % 1020,8 hPa 0,0 l/m 12,2 km/h (2 Bft) W-SW 250 0 min 0,000 mm 0,0 UV-I 0 W/m 3,7 C 3,3 C 17,7 km/h (3 Bft) 96,15 %
06.04.2018 01:33 7,3 C 8,3 C 78 % 1020,8 hPa 0,0 l/m 13,7 km/h (3 Bft) W 273 0 min 0,000 mm 0,0 UV-I 0 W/m 3,7 C 2,5 C 16,1 km/h (3 Bft) 100,00 %
06.04.2018 01:34 7,3 C 8,3 C 79 % 1020,8 hPa 0,0 l/m 11,5 km/h (2 Bft) W-SW 258 0 min 0,000 mm 0,0 UV-I 0 W/m 3,9 C 3,7 C 14,5 km/h (3 Bft) 95,65 %
06.04.2018 01:35 7,2 C 8,3 C 79 % 1020,8 hPa 0,0 l/m 12,9 km/h (3 Bft) W 264 0 min 0,000 mm 0,0 UV-I 0 W/m 3,8 C 2,8 C 16,1 km/h (3 Bft) 100,00 %
06.04.2018 01:36 7,2 C 8,3 C 79 % 1020,8 hPa 0,0 l/m 13,3 km/h (3 Bft) W 270 0 min 0,000 mm 0,0 UV-I 0 W/m 3,8 C 2,6 C 17,7 km/h (3 Bft) 100,00 %
06.04.2018 01:37 7,2 C 8,3 C 78 % 1020,8 hPa 0,0 l/m 11,9 km/h (2 Bft) W-SW 255 0 min 0,000 mm 0,0 UV-I 0 W/m 3,6 C 3,3 C 14,5 km/h (3 Bft) 100,00 %
06.04.2018 01:38 7,2 C 8,3 C 78 % 1020,8 hPa 0,0 l/m 14,4 km/h (3 Bft) W 259 0 min 0,000 mm 0,0 UV-I 0 W/m 3,6 C 2,0 C 19,3 km/h (3 Bft) 95,65 %
06.04.2018 01:39 7,2 C 8,3 C 78 % 1020,8 hPa 0,0 l/m 9,9 km/h (2 Bft) W 259 0 min 0,000 mm 0,0 UV-I 0 W/m 3,6 C 4,6 C 14,5 km/h (3 Bft) 100,00 %
06.04.2018 01:40 7,1 C 8,3 C 78 % 1020,8 hPa 0,0 l/m 9,3 km/h (2 Bft) SW 229 0 min 0,000 mm 0,0 UV-I 0 W/m 3,5 C 4,9 C 11,3 km/h (2 Bft) 100,00 %
06.04.2018 01:41 7,1 C 8,3 C 79 % 1020,8 hPa 0,0 l/m 10,9 km/h (2 Bft) W-SW 244 0 min 0,000 mm 0,0 UV-I 0 W/m 3,7 C 3,8 C 16,1 km/h (3 Bft) 100,00 %
06.04.2018 01:42 7,1 C 8,3 C 79 % 1020,8 hPa 0,0 l/m 9,4 km/h (2 Bft) W-SW 248 0 min 0,000 mm 0,0 UV-I 0 W/m 3,7 C 4,8 C 14,5 km/h (3 Bft) 96,55 %
06.04.2018 01:43 7,1 C 8,3 C 78 % 1020,8 hPa 0,0 l/m 9,5 km/h (2 Bft) W-SW 243 0 min 0,000 mm 0,0 UV-I 0 W/m 3,5 C 4,7 C 14,5 km/h (3 Bft) 100,00 %
06.04.2018 01:44 7,1 C 8,3 C 78 % 1020,8 hPa 0,0 l/m 12,5 km/h (3 Bft) W-SW 256 0 min 0,000 mm 0,0 UV-I 0 W/m 3,5 C 2,9 C 16,1 km/h (3 Bft) 100,00 %
06.04.2018 01:45 7,0 C 8,3 C 78 % 1020,8 hPa 0,0 l/m 10,5 km/h (2 Bft) W-SW 250 0 min 0,000 mm 0,0 UV-I 0 W/m 3,4 C 4,0 C 12,9 km/h (3 Bft) 100,00 %
06.04.2018 01:46 7,0 C 8,3 C 78 % 1020,8 hPa 0,0 l/m 9,6 km/h (2 Bft) W 269 0 min 0,000 mm 0,0 UV-I 0 W/m 3,4 C 4,5 C 12,9 km/h (3 Bft) 100,00 %
06.04.2018 01:47 7,0 C 8,3 C 78 % 1020,8 hPa 0,0 l/m 9,8 km/h (2 Bft) W 268 0 min 0,000 mm 0,0 UV-I 0 W/m 3,4 C 4,4 C 16,1 km/h (3 Bft) 97,94 %
06.04.2018 01:48 6,9 C 8,3 C 78 % 1020,8 hPa 0,0 l/m 12,3 km/h (3 Bft) W-SW 246 0 min 0,000 mm 0,0 UV-I 0 W/m 3,3 C 2,8 C 17,7 km/h (3 Bft) 95,56 %
06.04.2018 01:49 6,9 C 8,3 C 78 % 1020,8 hPa 0,0 l/m 12,4 km/h (3 Bft) W 259 0 min 0,000 mm 0,0 UV-I 0 W/m 3,3 C 2,7 C 16,1 km/h (3 Bft) 100,00 %
06.04.2018 01:50 6,9 C 8,3 C 78 % 1020,8 hPa 0,0 l/m 11,9 km/h (2 Bft) W-SW 256 0 min 0,000 mm 0,0 UV-I 0 W/m 3,3 C 3,0 C 17,7 km/h (3 Bft) 100,00 %
06.04.2018 01:51 6,9 C 8,3 C 78 % 1020,8 hPa 0,0 l/m 11,0 km/h (2 Bft) W 261 0 min 0,000 mm 0,0 UV-I 0 W/m 3,3 C 3,5 C 12,9 km/h (3 Bft) 100,00 %
06.04.2018 01:52 6,9 C 8,3 C 78 % 1020,9 hPa 0,0 l/m 11,5 km/h (2 Bft) W 268 0 min 0,000 mm 0,0 UV-I 0 W/m 3,3 C 3,2 C 14,5 km/h (3 Bft) 100,00 %
06.04.2018 01:53 6,9 C 8,3 C 78 % 1020,9 hPa 0,0 l/m 10,5 km/h (2 Bft) W-SW 257 0 min 0,000 mm 0,0 UV-I 0 W/m 3,3 C 3,8 C 16,1 km/h (3 Bft) 100,00 %
06.04.2018 01:54 6,9 C 8,3 C 77 % 1020,9 hPa 0,0 l/m 9,8 km/h (2 Bft) W-SW 249 0 min 0,000 mm 0,0 UV-I 0 W/m 3,2 C 4,3 C 14,5 km/h (3 Bft) 100,00 %
06.04.2018 01:55 6,9 C 8,3 C 78 % 1020,9 hPa 0,0 l/m 8,7 km/h (2 Bft) W-SW 242 0 min 0,000 mm 0,0 UV-I 0 W/m 3,3 C 5,1 C 11,3 km/h (2 Bft) 100,00 %
06.04.2018 01:56 6,9 C 8,3 C 78 % 1020,9 hPa 0,0 l/m 7,8 km/h (2 Bft) W-SW 254 0 min 0,000 mm 0,0 UV-I 0 W/m 3,3 C 5,8 C 11,3 km/h (2 Bft) 100,00 %
06.04.2018 01:57 6,8 C 8,3 C 78 % 1020,9 hPa 0,0 l/m 7,5 km/h (2 Bft) W-SW 254 0 min 0,000 mm 0,0 UV-I 0 W/m 3,2 C 5,9 C 11,3 km/h (2 Bft) 100,00 %
06.04.2018 01:58 6,8 C 8,3 C 78 % 1020,9 hPa 0,0 l/m 8,2 km/h (2 Bft) W 263 0 min 0,000 mm 0,0 UV-I 0 W/m 3,2 C 5,3 C 14,5 km/h (3 Bft) 100,00 %
06.04.2018 01:59 6,8 C 8,3 C 78 % 1020,9 hPa 0,0 l/m 7,1 km/h (2 Bft) SW 236 0 min 0,000 mm 0,0 UV-I 0 W/m 3,2 C 6,2 C 9,7 km/h (2 Bft) 100,00 %
06.04.2018 02:00 6,7 C 8,3 C 79 % 1020,9 hPa 0,0 l/m 8,0 km/h (2 Bft) W-SW 258 0 min 0,026 mm 0,0 UV-I 0 W/m 3,3 C 5,4 C 12,9 km/h (3 Bft) 100,00 %
06.04.2018 02:01 6,7 C 8,3 C 79 % 1021,0 hPa 0,0 l/m 8,4 km/h (2 Bft) SW 233 0 min 0,000 mm 0,0 UV-I 0 W/m 3,3 C 5,1 C 12,9 km/h (3 Bft) 98,11 %
06.04.2018 02:02 6,7 C 8,3 C 79 % 1021,0 hPa 0,0 l/m 6,9 km/h (2 Bft) W-SW 250 0 min 0,000 mm 0,0 UV-I 0 W/m 3,3 C 6,3 C 11,3 km/h (2 Bft) 100,00 %
06.04.2018 02:03 6,6 C 8,3 C 79 % 1021,0 hPa 0,0 l/m 7,8 km/h (2 Bft) W-SW 252 0 min 0,000 mm 0,0 UV-I 0 W/m 3,2 C 5,4 C 11,3 km/h (2 Bft) 100,00 %
06.04.2018 02:04 6,6 C 8,3 C 78 % 1021,0 hPa 0,0 l/m 9,1 km/h (2 Bft) W 269 0 min 0,000 mm 0,0 UV-I 0 W/m 3,0 C 4,5 C 12,9 km/h (3 Bft) 100,00 %
06.04.2018 02:05 6,6 C 8,3 C 79 % 1021,0 hPa 0,0 l/m 7,2 km/h (2 Bft) W 259 0 min 0,000 mm 0,0 UV-I 0 W/m 3,2 C 5,9 C 9,7 km/h (2 Bft) 100,00 %
06.04.2018 02:06 6,6 C 8,3 C 79 % 1020,9 hPa 0,0 l/m 5,8 km/h (2 Bft) W-SW 247 0 min 0,000 mm 0,0 UV-I 0 W/m 3,2 C 6,6 C 6,4 km/h (2 Bft) 100,00 %
06.04.2018 02:07 6,6 C 8,3 C 79 % 1020,9 hPa 0,0 l/m 8,3 km/h (2 Bft) W 264 0 min 0,000 mm 0,0 UV-I 0 W/m 3,2 C 5,1 C 12,9 km/h (3 Bft) 100,00 %
06.04.2018 02:08 6,5 C 8,3 C 79 % 1020,9 hPa 0,0 l/m 8,3 km/h (2 Bft) W-SW 237 0 min 0,000 mm 0,0 UV-I 0 W/m 3,1 C 4,9 C 12,9 km/h (3 Bft) 100,00 %
06.04.2018 02:09 6,6 C 8,3 C 79 % 1020,9 hPa 0,0 l/m 10,9 km/h (2 Bft) W 270 0 min 0,000 mm 0,0 UV-I 0 W/m 3,2 C 3,3 C 12,9 km/h (3 Bft) 100,00 %
06.04.2018 02:10 6,6 C 8,3 C 79 % 1020,9 hPa 0,0 l/m 6,8 km/h (2 Bft) W 272 0 min 0,000 mm 0,0 UV-I 0 W/m 3,2 C 6,3 C 11,3 km/h (2 Bft) 96,15 %
06.04.2018 02:11 6,6 C 8,3 C 79 % 1020,9 hPa 0,0 l/m 9,4 km/h (2 Bft) W 263 0 min 0,000 mm 0,0 UV-I 0 W/m 3,2 C 4,2 C 11,3 km/h (2 Bft) 100,00 %
06.04.2018 02:12 6,5 C 8,3 C 79 % 1020,9 hPa 0,0 l/m 7,0 km/h (2 Bft) W-SW 240 0 min 0,000 mm 0,0 UV-I 0 W/m 3,1 C 6,0 C 9,7 km/h (2 Bft) 100,00 %
06.04.2018 02:13 6,5 C 8,3 C 79 % 1020,9 hPa 0,0 l/m 7,1 km/h (2 Bft) W 259 0 min 0,000 mm 0,0 UV-I 0 W/m 3,1 C 5,9 C 12,9 km/h (3 Bft) 100,00 %
06.04.2018 02:14 6,4 C 8,3 C 79 % 1020,9 hPa 0,0 l/m 7,9 km/h (2 Bft) W-SW 258 0 min 0,000 mm 0,0 UV-I 0 W/m 3,0 C 5,2 C 12,9 km/h (3 Bft) 100,00 %
06.04.2018 02:15 6,4 C 8,3 C 79 % 1020,8 hPa 0,0 l/m 7,9 km/h (2 Bft) W-SW 241 0 min 0,000 mm 0,0 UV-I 0 W/m 3,0 C 5,2 C 12,9 km/h (3 Bft) 100,00 %
06.04.2018 02:16 6,4 C 8,3 C 79 % 1020,9 hPa 0,0 l/m 11,2 km/h (2 Bft) W 263 0 min 0,000 mm 0,0 UV-I 0 W/m 3,0 C 2,8 C 14,5 km/h (3 Bft) 100,00 %
06.04.2018 02:17 6,4 C 8,3 C 79 % 1020,9 hPa 0,0 l/m 11,5 km/h (2 Bft) W 265 0 min 0,000 mm 0,0 UV-I 0 W/m 3,0 C 2,7 C 14,5 km/h (3 Bft) 90,91 %
06.04.2018 02:18 6,4 C 8,3 C 79 % 1020,9 hPa 0,0 l/m 12,8 km/h (3 Bft) W 259 0 min 0,000 mm 0,0 UV-I 0 W/m 3,0 C 1,9 C 14,5 km/h (3 Bft) 100,00 %
06.04.2018 02:19 6,5 C 8,3 C 78 % 1020,9 hPa 0,0 l/m 11,3 km/h (2 Bft) W-SW 244 0 min 0,000 mm 0,0 UV-I 0 W/m 2,9 C 2,9 C 14,5 km/h (3 Bft) 100,00 %
06.04.2018 02:20 6,5 C 8,3 C 78 % 1020,9 hPa 0,0 l/m 11,5 km/h (2 Bft) W-SW 243 0 min 0,000 mm 0,0 UV-I 0 W/m 2,9 C 2,8 C 14,5 km/h (3 Bft) 100,00 %
06.04.2018 02:21 6,5 C 8,3 C 78 % 1020,9 hPa 0,0 l/m 10,9 km/h (2 Bft) W-SW 243 0 min 0,000 mm 0,0 UV-I 0 W/m 2,9 C 3,1 C 12,9 km/h (3 Bft) 96,15 %
06.04.2018 02:22 6,6 C 8,3 C 78 % 1020,9 hPa 0,0 l/m 11,1 km/h (2 Bft) W-SW 252 0 min 0,000 mm 0,0 UV-I 0 W/m 3,0 C 3,1 C 12,9 km/h (3 Bft) 100,00 %
06.04.2018 02:23 6,6 C 8,3 C 78 % 1020,9 hPa 0,0 l/m 12,7 km/h (3 Bft) W-SW 253 0 min 0,000 mm 0,0 UV-I 0 W/m 3,0 C 2,2 C 16,1 km/h (3 Bft) 100,00 %
06.04.2018 02:24 6,6 C 8,3 C 78 % 1020,9 hPa 0,0 l/m 10,9 km/h (2 Bft) W 259 0 min 0,000 mm 0,0 UV-I 0 W/m 3,0 C 3,3 C 14,5 km/h (3 Bft) 100,00 %
06.04.2018 02:25 6,6 C 8,3 C 77 % 1020,9 hPa 0,0 l/m 11,0 km/h (2 Bft) W 265 0 min 0,000 mm 0,0 UV-I 0 W/m 2,9 C 3,2 C 12,9 km/h (3 Bft) 100,00 %
06.04.2018 02:26 6,6 C 8,3 C 77 % 1020,9 hPa 0,0 l/m 8,0 km/h (2 Bft) W-SW 254 0 min 0,000 mm 0,0 UV-I 0 W/m 2,9 C 5,3 C 11,3 km/h (2 Bft) 100,00 %
06.04.2018 02:27 6,6 C 8,3 C 78 % 1020,9 hPa 0,0 l/m 10,3 km/h (2 Bft) W 269 0 min 0,000 mm 0,0 UV-I 0 W/m 3,0 C 3,6 C 14,5 km/h (3 Bft) 100,00 %
06.04.2018 02:28 6,6 C 8,3 C 78 % 1020,9 hPa 0,0 l/m 12,5 km/h (3 Bft) W 259 0 min 0,000 mm 0,0 UV-I 0 W/m 3,0 C 2,3 C 16,1 km/h (3 Bft) 100,00 %
06.04.2018 02:29 6,6 C 8,3 C 78 % 1020,9 hPa 0,0 l/m 9,9 km/h (2 Bft) W-SW 248 0 min 0,000 mm 0,0 UV-I 0 W/m 3,0 C 3,9 C 12,9 km/h (3 Bft) 100,00 %
06.04.2018 02:30 6,5 C 8,3 C 78 % 1020,9 hPa 0,0 l/m 8,6 km/h (2 Bft) W 272 0 min 0,000 mm 0,0 UV-I 0 W/m 2,9 C 4,7 C 11,3 km/h (2 Bft) 100,00 %
06.04.2018 02:31 6,5 C 8,3 C 78 % 1020,9 hPa 0,0 l/m 13,4 km/h (3 Bft) W 265 0 min 0,000 mm 0,0 UV-I 0 W/m 2,9 C 1,7 C 16,1 km/h (3 Bft) 100,00 %
06.04.2018 02:32 6,5 C 8,3 C 78 % 1020,9 hPa 0,0 l/m 10,4 km/h (2 Bft) SW 232 0 min 0,000 mm 0,0 UV-I 0 W/m 2,9 C 3,5 C 12,9 km/h (3 Bft) 100,00 %
06.04.2018 02:33 6,4 C 8,3 C 78 % 1021,0 hPa 0,0 l/m 10,3 km/h (2 Bft) W 274 0 min 0,000 mm 0,0 UV-I 0 W/m 2,8 C 3,4 C 12,9 km/h (3 Bft) 100,00 %
06.04.2018 02:34 6,5 C 8,3 C 78 % 1020,9 hPa 0,0 l/m 8,4 km/h (2 Bft) W 259 0 min 0,000 mm 0,0 UV-I 0 W/m 2,9 C 4,9 C 11,3 km/h (2 Bft) 100,00 %
06.04.2018 02:35 6,4 C 8,3 C 78 % 1020,9 hPa 0,0 l/m 11,5 km/h (2 Bft) W 263 0 min 0,000 mm 0,0 UV-I 0 W/m 2,8 C 2,7 C 16,1 km/h (3 Bft) 100,00 %
06.04.2018 02:36 6,4 C 8,3 C 77 % 1020,9 hPa 0,0 l/m 11,1 km/h (2 Bft) W 268 0 min 0,000 mm 0,0 UV-I 0 W/m 2,7 C 2,9 C 14,5 km/h (3 Bft) 100,00 %
06.04.2018 02:37 6,4 C 8,3 C 78 % 1020,9 hPa 0,0 l/m 11,8 km/h (2 Bft) W 267 0 min 0,000 mm 0,0 UV-I 0 W/m 2,8 C 2,5 C 14,5 km/h (3 Bft) 100,00 %
06.04.2018 02:38 6,4 C 8,3 C 78 % 1020,9 hPa 0,0 l/m 10,1 km/h (2 Bft) W 265 0 min 0,000 mm 0,0 UV-I 0 W/m 2,8 C 3,6 C 12,9 km/h (3 Bft) 100,00 %
06.04.2018 02:39 6,4 C 8,3 C 78 % 1020,8 hPa 0,0 l/m 11,8 km/h (2 Bft) W 267 0 min 0,000 mm 0,0 UV-I 0 W/m 2,8 C 2,5 C 17,7 km/h (3 Bft) 100,00 %
06.04.2018 02:40 6,4 C 8,3 C 77 % 1020,9 hPa 0,0 l/m 9,3 km/h (2 Bft) W 265 0 min 0,000 mm 0,0 UV-I 0 W/m 2,7 C 4,1 C 11,3 km/h (2 Bft) 100,00 %
06.04.2018 02:41 6,4 C 8,3 C 78 % 1020,8 hPa 0,0 l/m 8,4 km/h (2 Bft) W 259 0 min 0,000 mm 0,0 UV-I 0 W/m 2,8 C 4,8 C 11,3 km/h (2 Bft) 95,83 %
06.04.2018 02:42 6,4 C 8,3 C 77 % 1020,8 hPa 0,0 l/m 13,5 km/h (3 Bft) W 275 0 min 0,000 mm 0,0 UV-I 0 W/m 2,7 C 1,5 C 17,7 km/h (3 Bft) 100,00 %
06.04.2018 02:43 6,4 C 8,3 C 77 % 1020,8 hPa 0,0 l/m 11,6 km/h (2 Bft) W 263 0 min 0,000 mm 0,0 UV-I 0 W/m 2,7 C 2,6 C 16,1 km/h (3 Bft) 96,30 %
06.04.2018 02:44 6,4 C 8,3 C 77 % 1020,9 hPa 0,0 l/m 11,4 km/h (2 Bft) W-SW 250 0 min 0,000 mm 0,0 UV-I 0 W/m 2,7 C 2,7 C 14,5 km/h (3 Bft) 100,00 %
06.04.2018 02:45 6,4 C 8,3 C 77 % 1020,9 hPa 0,0 l/m 10,7 km/h (2 Bft) W 267 0 min 0,000 mm 0,0 UV-I 0 W/m 2,7 C 3,2 C 14,5 km/h (3 Bft) 100,00 %
06.04.2018 02:46 6,4 C 8,3 C 77 % 1020,9 hPa 0,0 l/m 12,6 km/h (3 Bft) W 267 0 min 0,000 mm 0,0 UV-I 0 W/m 2,7 C 2,0 C 14,5 km/h (3 Bft) 100,00 %
06.04.2018 02:47 6,4 C 8,3 C 77 % 1020,9 hPa 0,0 l/m 13,2 km/h (3 Bft) W-SW 252 0 min 0,000 mm 0,0 UV-I 0 W/m 2,7 C 1,7 C 16,1 km/h (3 Bft) 100,00 %
06.04.2018 02:48 6,4 C 8,3 C 77 % 1020,9 hPa 0,0 l/m 13,8 km/h (3 Bft) W 269 0 min 0,000 mm 0,0 UV-I 0 W/m 2,7 C 1,4 C 16,1 km/h (3 Bft) 100,00 %
06.04.2018 02:49 6,4 C 8,3 C 77 % 1020,9 hPa 0,0 l/m 12,5 km/h (3 Bft) W-SW 251 0 min 0,000 mm 0,0 UV-I 0 W/m 2,7 C 2,1 C 16,1 km/h (3 Bft) 100,00 %
06.04.2018 02:50 6,4 C 8,3 C 77 % 1020,9 hPa 0,0 l/m 11,4 km/h (2 Bft) W 272 0 min 0,000 mm 0,0 UV-I 0 W/m 2,7 C 2,7 C 14,5 km/h (3 Bft) 100,00 %
06.04.2018 02:51 6,4 C 8,3 C 77 % 1020,9 hPa 0,0 l/m 10,0 km/h (2 Bft) W 263 0 min 0,000 mm 0,0 UV-I 0 W/m 2,7 C 3,6 C 14,5 km/h (3 Bft) 96,67 %
06.04.2018 02:52 6,3 C 8,3 C 77 % 1021,0 hPa 0,0 l/m 9,6 km/h (2 Bft) W 265 0 min 0,000 mm 0,0 UV-I 0 W/m 2,6 C 3,8 C 12,9 km/h (3 Bft) 95,65 %
06.04.2018 02:53 6,3 C 8,3 C 77 % 1021,0 hPa 0,0 l/m 11,1 km/h (2 Bft) W 261 0 min 0,000 mm 0,0 UV-I 0 W/m 2,6 C 2,8 C 14,5 km/h (3 Bft) 100,00 %
06.04.2018 02:54 6,3 C 8,3 C 77 % 1020,9 hPa 0,0 l/m 9,4 km/h (2 Bft) W-SW 256 0 min 0,000 mm 0,0 UV-I 0 W/m 2,6 C 3,9 C 12,9 km/h (3 Bft) 91,30 %
06.04.2018 02:55 6,3 C 8,3 C 77 % 1021,0 hPa 0,0 l/m 10,1 km/h (2 Bft) W 266 0 min 0,000 mm 0,0 UV-I 0 W/m 2,6 C 3,4 C 14,5 km/h (3 Bft) 100,00 %
06.04.2018 02:56 6,3 C 8,3 C 77 % 1020,9 hPa 0,0 l/m 9,3 km/h (2 Bft) W 270 0 min 0,000 mm 0,0 UV-I 0 W/m 2,6 C 4,0 C 11,3 km/h (2 Bft) 96,15 %
06.04.2018 02:57 6,3 C 8,3 C 77 % 1020,9 hPa 0,0 l/m 8,2 km/h (2 Bft) W-SW 245 0 min 0,000 mm 0,0 UV-I 0 W/m 2,6 C 4,8 C 12,9 km/h (3 Bft) 100,00 %
06.04.2018 02:58 6,3 C 8,3 C 77 % 1021,0 hPa 0,0 l/m 7,4 km/h (2 Bft) SW 233 0 min 0,000 mm 0,0 UV-I 0 W/m 2,6 C 5,5 C 11,3 km/h (2 Bft) 95,65 %
06.04.2018 02:59 6,3 C 8,3 C 77 % 1021,0 hPa 0,0 l/m 7,2 km/h (2 Bft) W-SW 250 0 min 0,000 mm 0,0 UV-I 0 W/m 2,6 C 5,6 C 11,3 km/h (2 Bft) 100,00 %
06.04.2018 03:00 6,2 C 8,3 C 78 % 1021,0 hPa 0,0 l/m 8,0 km/h (2 Bft) SW 234 0 min 0,025 mm 0,0 UV-I 0 W/m 2,7 C 4,9 C 12,9 km/h (3 Bft) 95,83 %
06.04.2018 03:01 6,2 C 8,3 C 78 % 1021,0 hPa 0,0 l/m 9,1 km/h (2 Bft) SW 232 0 min 0,000 mm 0,0 UV-I 0 W/m 2,7 C 4,0 C 12,9 km/h (3 Bft) 89,66 %
06.04.2018 03:02 6,1 C 8,3 C 78 % 1021,0 hPa 0,0 l/m 8,7 km/h (2 Bft) W-SW 246 0 min 0,000 mm 0,0 UV-I 0 W/m 2,6 C 4,2 C 12,9 km/h (3 Bft) 95,83 %
06.04.2018 03:03 6,1 C 8,3 C 79 % 1020,9 hPa 0,0 l/m 9,1 km/h (2 Bft) W 259 0 min 0,000 mm 0,0 UV-I 0 W/m 2,7 C 3,9 C 12,9 km/h (3 Bft) 95,65 %
06.04.2018 03:04 6,1 C 8,3 C 79 % 1021,0 hPa 0,0 l/m 10,4 km/h (2 Bft) SW 236 0 min 0,000 mm 0,0 UV-I 0 W/m 2,7 C 3,0 C 12,9 km/h (3 Bft) 100,00 %
06.04.2018 03:05 6,0 C 8,3 C 79 % 1021,0 hPa 0,0 l/m 9,2 km/h (2 Bft) W-SW 256 0 min 0,000 mm 0,0 UV-I 0 W/m 2,6 C 3,7 C 12,9 km/h (3 Bft) 96,15 %
06.04.2018 03:06 6,0 C 8,3 C 79 % 1021,0 hPa 0,0 l/m 11,2 km/h (2 Bft) W-SW 257 0 min 0,000 mm 0,0 UV-I 0 W/m 2,6 C 2,4 C 14,5 km/h (3 Bft) 100,00 %
06.04.2018 03:07 6,0 C 8,3 C 79 % 1021,0 hPa 0,0 l/m 8,4 km/h (2 Bft) W 271 0 min 0,000 mm 0,0 UV-I 0 W/m 2,6 C 4,3 C 11,3 km/h (2 Bft) 95,65 %
06.04.2018 03:08 6,0 C 8,3 C 80 % 1021,0 hPa 0,0 l/m 8,6 km/h (2 Bft) W 266 0 min 0,000 mm 0,0 UV-I 0 W/m 2,8 C 4,2 C 12,9 km/h (3 Bft) 92,59 %
06.04.2018 03:09 6,0 C 8,3 C 79 % 1021,0 hPa 0,0 l/m 9,4 km/h (2 Bft) W 264 0 min 0,000 mm 0,0 UV-I 0 W/m 2,6 C 3,6 C 12,9 km/h (3 Bft) 100,00 %
06.04.2018 03:10 6,0 C 8,3 C 79 % 1021,0 hPa 0,0 l/m 7,5 km/h (2 Bft) W 271 0 min 0,000 mm 0,0 UV-I 0 W/m 2,6 C 5,1 C 11,3 km/h (2 Bft) 98,33 %
06.04.2018 03:11 6,0 C 8,3 C 79 % 1021,1 hPa 0,0 l/m 5,8 km/h (2 Bft) W 259 0 min 0,000 mm 0,0 UV-I 0 W/m 2,6 C 6,0 C 8,0 km/h (2 Bft) 95,12 %
06.04.2018 03:12 6,1 C 8,3 C 79 % 1021,1 hPa 0,0 l/m 7,2 km/h (2 Bft) W 259 0 min 0,000 mm 0,0 UV-I 0 W/m 2,7 C 5,4 C 11,3 km/h (2 Bft) 91,67 %
06.04.2018 03:13 6,1 C 8,3 C 79 % 1021,1 hPa 0,0 l/m 6,9 km/h (2 Bft) W 260 0 min 0,000 mm 0,0 UV-I 0 W/m 2,7 C 5,7 C 11,3 km/h (2 Bft) 100,00 %
06.04.2018 03:14 6,1 C 8,3 C 79 % 1021,1 hPa 0,0 l/m 7,2 km/h (2 Bft) W 261 0 min 0,000 mm 0,0 UV-I 0 W/m 2,7 C 5,4 C 11,3 km/h (2 Bft) 92,31 %
06.04.2018 03:15 6,1 C 8,3 C 79 % 1021,1 hPa 0,0 l/m 10,5 km/h (2 Bft) W 263 0 min 0,000 mm 0,0 UV-I 0 W/m 2,7 C 3,0 C 12,9 km/h (3 Bft) 96,67 %
06.04.2018 03:16 6,1 C 8,3 C 79 % 1021,1 hPa 0,0 l/m 8,8 km/h (2 Bft) W-SW 258 0 min 0,000 mm 0,0 UV-I 0 W/m 2,7 C 4,1 C 11,3 km/h (2 Bft) 92,31 %
06.04.2018 03:17 6,1 C 8,3 C 79 % 1021,1 hPa 0,0 l/m 10,9 km/h (2 Bft) SW 231 0 min 0,000 mm 0,0 UV-I 0 W/m 2,7 C 2,7 C 12,9 km/h (3 Bft) 100,00 %
06.04.2018 03:18 6,1 C 8,3 C 78 % 1021,1 hPa 0,0 l/m 10,6 km/h (2 Bft) W 279 0 min 0,000 mm 0,0 UV-I 0 W/m 2,6 C 2,9 C 12,9 km/h (3 Bft) 92,31 %
06.04.2018 03:19 6,2 C 8,3 C 78 % 1021,1 hPa 0,0 l/m 10,9 km/h (2 Bft) W-SW 257 0 min 0,000 mm 0,0 UV-I 0 W/m 2,7 C 2,8 C 14,5 km/h (3 Bft) 92,59 %
06.04.2018 03:20 6,2 C 8,3 C 78 % 1021,1 hPa 0,0 l/m 7,9 km/h (2 Bft) W 260 0 min 0,000 mm 0,0 UV-I 0 W/m 2,7 C 4,9 C 11,3 km/h (2 Bft) 100,00 %
06.04.2018 03:21 6,2 C 8,3 C 78 % 1021,1 hPa 0,0 l/m 8,7 km/h (2 Bft) W 274 0 min 0,000 mm 0,0 UV-I 0 W/m 2,7 C 4,3 C 11,3 km/h (2 Bft) 91,67 %
06.04.2018 03:22 6,2 C 8,3 C 78 % 1021,1 hPa 0,0 l/m 7,4 km/h (2 Bft) W-SW 256 0 min 0,000 mm 0,0 UV-I 0 W/m 2,7 C 5,4 C 11,3 km/h (2 Bft) 100,00 %
06.04.2018 03:23 6,2 C 8,3 C 78 % 1021,1 hPa 0,0 l/m 9,0 km/h (2 Bft) W-SW 258 0 min 0,000 mm 0,0 UV-I 0 W/m 2,7 C 4,1 C 14,5 km/h (3 Bft) 98,12 %
06.04.2018 03:24 6,2 C 8,3 C 78 % 1021,2 hPa 0,0 l/m 10,5 km/h (2 Bft) W-SW 243 0 min 0,000 mm 0,0 UV-I 0 W/m 2,7 C 3,1 C 14,5 km/h (3 Bft) 93,18 %
06.04.2018 03:25 6,2 C 8,3 C 78 % 1021,2 hPa 0,0 l/m 7,7 km/h (2 Bft) W-SW 243 0 min 0,000 mm 0,0 UV-I 0 W/m 2,7 C 5,1 C 11,3 km/h (2 Bft) 96,30 %
06.04.2018 03:26 6,2 C 8,3 C 78 % 1021,2 hPa 0,0 l/m 8,2 km/h (2 Bft) W 270 0 min 0,000 mm 0,0 UV-I 0 W/m 2,7 C 4,7 C 11,3 km/h (2 Bft) 98,06 %
06.04.2018 03:27 6,2 C 8,3 C 77 % 1021,2 hPa 0,0 l/m 8,0 km/h (2 Bft) W 260 0 min 0,000 mm 0,0 UV-I 0 W/m 2,5 C 4,9 C 11,3 km/h (2 Bft) 95,45 %
06.04.2018 03:28 6,2 C 8,3 C 78 % 1021,1 hPa 0,0 l/m 9,8 km/h (2 Bft) SW 232 0 min 0,000 mm 0,0 UV-I 0 W/m 2,7 C 3,5 C 12,9 km/h (3 Bft) 95,65 %
06.04.2018 03:29 6,3 C 8,3 C 77 % 1021,2 hPa 0,0 l/m 8,9 km/h (2 Bft) W 261 0 min 0,000 mm 0,0 UV-I 0 W/m 2,6 C 4,3 C 11,3 km/h (2 Bft) 100,00 %
06.04.2018 03:30 6,3 C 8,3 C 77 % 1021,2 hPa 0,0 l/m 10,5 km/h (2 Bft) W-SW 251 0 min 0,000 mm 0,0 UV-I 0 W/m 2,6 C 3,2 C 14,5 km/h (3 Bft) 91,30 %
06.04.2018 03:31 6,3 C 8,3 C 77 % 1021,2 hPa 0,0 l/m 9,5 km/h (2 Bft) W 267 0 min 0,000 mm 0,0 UV-I 0 W/m 2,6 C 3,9 C 12,9 km/h (3 Bft) 100,00 %
06.04.2018 03:32 6,3 C 8,3 C 77 % 1021,2 hPa 0,0 l/m 7,7 km/h (2 Bft) W-SW 258 0 min 0,000 mm 0,0 UV-I 0 W/m 2,6 C 5,2 C 12,9 km/h (3 Bft) 96,15 %
06.04.2018 03:33 6,3 C 8,3 C 77 % 1021,2 hPa 0,0 l/m 7,6 km/h (2 Bft) W 267 0 min 0,000 mm 0,0 UV-I 0 W/m 2,6 C 5,3 C 11,3 km/h (2 Bft) 100,00 %
06.04.2018 03:34 6,3 C 8,3 C 78 % 1021,2 hPa 0,0 l/m 9,2 km/h (2 Bft) W-NW 285 0 min 0,000 mm 0,0 UV-I 0 W/m 2,8 C 4,1 C 12,9 km/h (3 Bft) 96,15 %
06.04.2018 03:35 6,2 C 8,3 C 77 % 1021,2 hPa 0,0 l/m 7,5 km/h (2 Bft) W 267 0 min 0,000 mm 0,0 UV-I 0 W/m 2,5 C 5,3 C 11,3 km/h (2 Bft) 100,00 %
06.04.2018 03:36 6,3 C 8,3 C 77 % 1021,2 hPa 0,0 l/m 8,7 km/h (2 Bft) W 267 0 min 0,000 mm 0,0 UV-I 0 W/m 2,6 C 4,4 C 11,3 km/h (2 Bft) 96,30 %
06.04.2018 03:37 6,2 C 8,3 C 78 % 1021,2 hPa 0,0 l/m 10,9 km/h (2 Bft) W 271 0 min 0,000 mm 0,0 UV-I 0 W/m 2,7 C 2,8 C 12,9 km/h (3 Bft) 92,31 %
06.04.2018 03:38 6,2 C 8,3 C 77 % 1021,2 hPa 0,0 l/m 10,3 km/h (2 Bft) W 271 0 min 0,000 mm 0,0 UV-I 0 W/m 2,5 C 3,2 C 14,5 km/h (3 Bft) 100,00 %
06.04.2018 03:39 6,2 C 8,3 C 77 % 1021,2 hPa 0,0 l/m 9,7 km/h (2 Bft) W 260 0 min 0,000 mm 0,0 UV-I 0 W/m 2,5 C 3,6 C 12,9 km/h (3 Bft) 96,15 %
06.04.2018 03:40 6,3 C 8,3 C 77 % 1021,3 hPa 0,0 l/m 9,8 km/h (2 Bft) W 273 0 min 0,000 mm 0,0 UV-I 0 W/m 2,6 C 3,6 C 12,9 km/h (3 Bft) 95,83 %
06.04.2018 03:41 6,3 C 8,3 C 77 % 1021,3 hPa 0,0 l/m 6,0 km/h (2 Bft) W 259 0 min 0,000 mm 0,0 UV-I 0 W/m 2,6 C 6,3 C 9,7 km/h (2 Bft) 90,91 %
06.04.2018 03:42 6,3 C 8,3 C 77 % 1021,2 hPa 0,0 l/m 6,5 km/h (2 Bft) W 276 0 min 0,000 mm 0,0 UV-I 0 W/m 2,6 C 6,2 C 9,7 km/h (2 Bft) 100,00 %
06.04.2018 03:43 6,3 C 8,3 C 77 % 1021,2 hPa 0,0 l/m 8,6 km/h (2 Bft) W-NW 285 0 min 0,000 mm 0,0 UV-I 0 W/m 2,6 C 4,5 C 11,3 km/h (2 Bft) 92,86 %
06.04.2018 03:44 6,3 C 8,3 C 77 % 1021,2 hPa 0,0 l/m 5,9 km/h (2 Bft) W 270 0 min 0,000 mm 0,0 UV-I 0 W/m 2,6 C 6,3 C 11,3 km/h (2 Bft) 100,00 %
06.04.2018 03:45 6,3 C 8,3 C 77 % 1021,3 hPa 0,0 l/m 5,4 km/h (1 Bft) W 265 0 min 0,000 mm 0,0 UV-I 0 W/m 2,6 C 6,3 C 6,4 km/h (2 Bft) 96,15 %
06.04.2018 03:46 6,3 C 8,3 C 77 % 1021,3 hPa 0,0 l/m 6,4 km/h (2 Bft) W 262 0 min 0,000 mm 0,0 UV-I 0 W/m 2,6 C 6,3 C 11,3 km/h (2 Bft) 100,00 %
06.04.2018 03:47 6,3 C 8,3 C 77 % 1021,2 hPa 0,0 l/m 9,0 km/h (2 Bft) W 263 0 min 0,000 mm 0,0 UV-I 0 W/m 2,6 C 4,2 C 12,9 km/h (3 Bft) 96,15 %
06.04.2018 03:48 6,2 C 8,3 C 77 % 1021,3 hPa 0,0 l/m 10,8 km/h (2 Bft) W 259 0 min 0,000 mm 0,0 UV-I 0 W/m 2,5 C 2,9 C 14,5 km/h (3 Bft) 96,30 %
06.04.2018 03:49 6,3 C 8,3 C 77 % 1021,3 hPa 0,0 l/m 7,1 km/h (2 Bft) W 261 0 min 0,000 mm 0,0 UV-I 0 W/m 2,6 C 5,7 C 11,3 km/h (2 Bft) 100,00 %
06.04.2018 03:50 6,3 C 8,3 C 76 % 1021,3 hPa 0,0 l/m 5,4 km/h (1 Bft) W-SW 245 0 min 0,000 mm 0,0 UV-I 0 W/m 2,4 C 6,3 C 8,0 km/h (2 Bft) 96,55 %
06.04.2018 03:51 6,3 C 8,3 C 76 % 1021,3 hPa 0,0 l/m 7,4 km/h (2 Bft) W-NW 299 0 min 0,000 mm 0,0 UV-I 0 W/m 2,4 C 5,5 C 9,7 km/h (2 Bft) 100,00 %
06.04.2018 03:52 6,3 C 8,3 C 77 % 1021,3 hPa 0,0 l/m 9,3 km/h (2 Bft) W 279 0 min 0,000 mm 0,0 UV-I 0 W/m 2,6 C 4,0 C 12,9 km/h (3 Bft) 96,30 %
06.04.2018 03:53 6,3 C 8,3 C 76 % 1021,2 hPa 0,0 l/m 5,7 km/h (1 Bft) W 262 0 min 0,000 mm 0,0 UV-I 0 W/m 2,4 C 6,3 C 9,7 km/h (2 Bft) 95,65 %
06.04.2018 03:54 6,3 C 8,3 C 77 % 1021,3 hPa 0,0 l/m 4,8 km/h (1 Bft) W 267 0 min 0,000 mm 0,0 UV-I 0 W/m 2,6 C 6,3 C 6,4 km/h (2 Bft) 91,67 %
06.04.2018 03:55 6,3 C 8,3 C 76 % 1021,3 hPa 0,0 l/m 5,9 km/h (2 Bft) W 268 0 min 0,000 mm 0,0 UV-I 0 W/m 2,4 C 6,3 C 9,7 km/h (2 Bft) 100,00 %
06.04.2018 03:56 6,3 C 8,3 C 76 % 1021,3 hPa 0,0 l/m 6,1 km/h (2 Bft) W 273 0 min 0,000 mm 0,0 UV-I 0 W/m 2,4 C 6,3 C 6,4 km/h (2 Bft) 96,55 %
06.04.2018 03:57 6,3 C 8,3 C 76 % 1021,3 hPa 0,0 l/m 5,7 km/h (1 Bft) W-SW 257 0 min 0,000 mm 0,0 UV-I 0 W/m 2,4 C 6,3 C 6,4 km/h (2 Bft) 97,92 %
06.04.2018 03:58 6,3 C 8,3 C 76 % 1021,3 hPa 0,0 l/m 5,1 km/h (1 Bft) W-SW 257 0 min 0,000 mm 0,0 UV-I 0 W/m 2,4 C 6,3 C 6,4 km/h (2 Bft) 94,74 %
06.04.2018 03:59 6,3 C 8,3 C 76 % 1021,3 hPa 0,0 l/m 4,6 km/h (1 Bft) W 259 0 min 0,000 mm 0,0 UV-I 0 W/m 2,4 C 6,3 C 4,8 km/h (1 Bft) 96,30 %
06.04.2018 04:00 6,3 C 8,3 C 76 % 1021,3 hPa 0,0 l/m 8,6 km/h (2 Bft) W 267 0 min 0,000 mm 0,0 UV-I 0 W/m 2,4 C 4,5 C 11,3 km/h (2 Bft) 100,00 %
06.04.2018 04:01 6,3 C 8,3 C 76 % 1021,4 hPa 0,0 l/m 6,6 km/h (2 Bft) W 266 0 min 0,026 mm 0,0 UV-I 0 W/m 2,4 C 6,2 C 9,7 km/h (2 Bft) 94,12 %
06.04.2018 04:02 6,3 C 8,3 C 76 % 1021,4 hPa 0,0 l/m 5,2 km/h (1 Bft) W-SW 256 0 min 0,000 mm 0,0 UV-I 0 W/m 2,4 C 6,3 C 6,4 km/h (2 Bft) 100,00 %
06.04.2018 04:04 6,3 C 8,3 C 77 % 1021,3 hPa 0,0 l/m 5,2 km/h (1 Bft) W 272 0 min 0,000 mm 0,0 UV-I 0 W/m 2,6 C 6,3 C 6,4 km/h (2 Bft) 98,00 %
06.04.2018 04:05 6,3 C 8,3 C 77 % 1021,3 hPa 0,0 l/m 3,9 km/h (1 Bft) W 271 0 min 0,000 mm 0,0 UV-I 0 W/m 2,6 C 6,3 C 4,8 km/h (1 Bft) 95,83 %
06.04.2018 04:06 6,3 C 8,3 C 77 % 1021,4 hPa 0,0 l/m 4,6 km/h (1 Bft) W 268 0 min 0,000 mm 0,0 UV-I 0 W/m 2,6 C 6,3 C 6,4 km/h (2 Bft) 100,00 %
06.04.2018 04:07 6,2 C 8,3 C 77 % 1021,4 hPa 0,0 l/m 4,6 km/h (1 Bft) W 259 0 min 0,000 mm 0,0 UV-I 0 W/m 2,5 C 6,2 C 6,4 km/h (2 Bft) 96,30 %
06.04.2018 04:08 6,2 C 8,3 C 77 % 1021,3 hPa 0,0 l/m 4,6 km/h (1 Bft) W-SW 239 0 min 0,000 mm 0,0 UV-I 0 W/m 2,5 C 6,2 C 6,4 km/h (2 Bft) 96,15 %
06.04.2018 04:09 6,2 C 8,3 C 77 % 1021,3 hPa 0,0 l/m 5,8 km/h (2 Bft) W-SW 240 0 min 0,000 mm 0,0 UV-I 0 W/m 2,5 C 6,2 C 6,4 km/h (2 Bft) 100,00 %
06.04.2018 04:10 6,2 C 8,3 C 78 % 1021,3 hPa 0,0 l/m 5,8 km/h (2 Bft) W-SW 246 0 min 0,000 mm 0,0 UV-I 0 W/m 2,7 C 6,2 C 8,0 km/h (2 Bft) 100,00 %
06.04.2018 04:11 6,2 C 8,3 C 78 % 1021,3 hPa 0,0 l/m 4,9 km/h (1 Bft) W-SW 245 0 min 0,000 mm 0,0 UV-I 0 W/m 2,7 C 6,2 C 6,4 km/h (2 Bft) 96,30 %
06.04.2018 04:12 6,1 C 8,3 C 78 % 1021,3 hPa 0,0 l/m 4,5 km/h (1 Bft) SW 236 0 min 0,000 mm 0,0 UV-I 0 W/m 2,6 C 6,1 C 8,0 km/h (2 Bft) 86,96 %
06.04.2018 04:14 6,1 C 8,3 C 78 % 1021,3 hPa 0,0 l/m 4,8 km/h (1 Bft) SW 223 0 min 0,000 mm 0,0 UV-I 0 W/m 2,6 C 6,1 C 8,0 km/h (2 Bft) 100,00 %
06.04.2018 04:15 6,1 C 8,3 C 78 % 1021,3 hPa 0,0 l/m 5,1 km/h (1 Bft) W-SW 246 0 min 0,000 mm 0,0 UV-I 0 W/m 2,6 C 6,1 C 8,0 km/h (2 Bft) 100,00 %
06.04.2018 04:16 6,1 C 8,3 C 78 % 1021,4 hPa 0,0 l/m 6,3 km/h (2 Bft) SW 234 0 min 0,000 mm 0,0 UV-I 0 W/m 2,6 C 6,1 C 8,0 km/h (2 Bft) 100,00 %
06.04.2018 04:17 6,1 C 8,3 C 78 % 1021,4 hPa 0,0 l/m 5,4 km/h (1 Bft) SW 236 0 min 0,000 mm 0,0 UV-I 0 W/m 2,6 C 6,1 C 8,0 km/h (2 Bft) 100,00 %
06.04.2018 04:18 6,1 C 8,3 C 78 % 1021,4 hPa 0,0 l/m 5,2 km/h (1 Bft) SW 235 0 min 0,000 mm 0,0 UV-I 0 W/m 2,6 C 6,1 C 6,4 km/h (2 Bft) 100,00 %
06.04.2018 04:19 6,1 C 8,3 C 78 % 1021,4 hPa 0,0 l/m 6,0 km/h (2 Bft) W-SW 244 0 min 0,000 mm 0,0 UV-I 0 W/m 2,6 C 6,1 C 8,0 km/h (2 Bft) 100,00 %
06.04.2018 04:20 6,1 C 8,3 C 78 % 1021,4 hPa 0,0 l/m 4,9 km/h (1 Bft) W-SW 244 0 min 0,000 mm 0,0 UV-I 0 W/m 2,6 C 6,1 C 8,0 km/h (2 Bft) 100,00 %
06.04.2018 04:21 6,1 C 8,3 C 78 % 1021,3 hPa 0,0 l/m 3,4 km/h (1 Bft) W-SW 244 0 min 0,000 mm 0,0 UV-I 0 W/m 2,6 C 6,1 C 4,8 km/h (1 Bft) 100,00 %
06.04.2018 04:22 6,1 C 8,3 C 78 % 1021,4 hPa 0,0 l/m 3,9 km/h (1 Bft) W-SW 244 0 min 0,000 mm 0,0 UV-I 0 W/m 2,6 C 6,1 C 6,4 km/h (2 Bft) 91,67 %
06.04.2018 04:23 6,0 C 8,3 C 79 % 1021,4 hPa 0,0 l/m 5,4 km/h (1 Bft) W-SW 244 0 min 0,000 mm 0,0 UV-I 0 W/m 2,6 C 6,0 C 8,0 km/h (2 Bft) 100,00 %
06.04.2018 04:24 6,0 C 8,3 C 79 % 1021,4 hPa 0,0 l/m 5,8 km/h (2 Bft) W-SW 238 0 min 0,000 mm 0,0 UV-I 0 W/m 2,6 C 6,0 C 8,0 km/h (2 Bft) 100,00 %
06.04.2018 04:25 5,9 C 8,3 C 79 % 1021,4 hPa 0,0 l/m 7,0 km/h (2 Bft) W-SW 242 0 min 0,000 mm 0,0 UV-I 0 W/m 2,5 C 5,4 C 8,0 km/h (2 Bft) 100,00 %
06.04.2018 04:26 5,9 C 8,3 C 79 % 1021,4 hPa 0,0 l/m 4,5 km/h (1 Bft) W-SW 242 0 min 0,000 mm 0,0 UV-I 0 W/m 2,5 C 5,9 C 6,4 km/h (2 Bft) 96,30 %
06.04.2018 04:27 5,9 C 8,3 C 79 % 1021,4 hPa 0,0 l/m 5,2 km/h (1 Bft) SW 233 0 min 0,000 mm 0,0 UV-I 0 W/m 2,5 C 5,9 C 6,4 km/h (2 Bft) 95,65 %
06.04.2018 04:28 5,9 C 8,3 C 79 % 1021,4 hPa 0,0 l/m 4,8 km/h (1 Bft) W-SW 238 0 min 0,000 mm 0,0 UV-I 0 W/m 2,5 C 5,9 C 6,4 km/h (2 Bft) 100,00 %
06.04.2018 04:29 5,9 C 8,3 C 79 % 1021,4 hPa 0,0 l/m 5,6 km/h (1 Bft) W-SW 246 0 min 0,000 mm 0,0 UV-I 0 W/m 2,5 C 5,9 C 8,0 km/h (2 Bft) 100,00 %
06.04.2018 04:30 5,8 C 8,3 C 79 % 1021,4 hPa 0,0 l/m 7,0 km/h (2 Bft) W-SW 240 0 min 0,000 mm 0,0 UV-I 0 W/m 2,4 C 5,3 C 8,0 km/h (2 Bft) 100,00 %
06.04.2018 04:31 5,8 C 8,3 C 79 % 1021,5 hPa 0,0 l/m 6,8 km/h (2 Bft) W-SW 250 0 min 0,000 mm 0,0 UV-I 0 W/m 2,4 C 5,5 C 8,0 km/h (2 Bft) 92,86 %
06.04.2018 04:32 5,8 C 8,3 C 79 % 1021,5 hPa 0,0 l/m 6,6 km/h (2 Bft) SW 234 0 min 0,000 mm 0,0 UV-I 0 W/m 2,4 C 5,7 C 8,0 km/h (2 Bft) 96,67 %
06.04.2018 04:33 5,8 C 8,3 C 80 % 1021,5 hPa 0,0 l/m 5,4 km/h (1 Bft) W-SW 250 0 min 0,000 mm 0,0 UV-I 0 W/m 2,6 C 5,8 C 6,4 km/h (2 Bft) 100,00 %
06.04.2018 04:34 5,8 C 8,3 C 80 % 1021,5 hPa 0,0 l/m 4,6 km/h (1 Bft) W-SW 250 0 min 0,000 mm 0,0 UV-I 0 W/m 2,6 C 5,8 C 6,4 km/h (2 Bft) 100,00 %
06.04.2018 04:35 5,8 C 8,3 C 80 % 1021,5 hPa 0,0 l/m 5,4 km/h (1 Bft) W-SW 249 0 min 0,000 mm 0,0 UV-I 0 W/m 2,6 C 5,8 C 6,4 km/h (2 Bft) 98,22 %
06.04.2018 04:36 5,8 C 8,3 C 80 % 1021,5 hPa 0,0 l/m 4,6 km/h (1 Bft) W-SW 248 0 min 0,000 mm 0,0 UV-I 0 W/m 2,6 C 5,8 C 6,4 km/h (2 Bft) 97,37 %
06.04.2018 04:37 5,8 C 8,3 C 80 % 1021,5 hPa 0,0 l/m 4,7 km/h (1 Bft) W-SW 246 0 min 0,000 mm 0,0 UV-I 0 W/m 2,6 C 5,8 C 6,4 km/h (2 Bft) 100,00 %
06.04.2018 04:38 5,8 C 8,3 C 80 % 1021,5 hPa 0,0 l/m 4,5 km/h (1 Bft) W-SW 239 0 min 0,000 mm 0,0 UV-I 0 W/m 2,6 C 5,8 C 6,4 km/h (2 Bft) 100,00 %
06.04.2018 04:39 5,8 C 8,3 C 80 % 1021,5 hPa 0,0 l/m 4,6 km/h (1 Bft) W-SW 239 0 min 0,000 mm 0,0 UV-I 0 W/m 2,6 C 5,8 C 6,4 km/h (2 Bft) 100,00 %
06.04.2018 04:40 5,7 C 8,3 C 80 % 1021,4 hPa 0,0 l/m 5,4 km/h (1 Bft) W-SW 240 0 min 0,000 mm 0,0 UV-I 0 W/m 2,5 C 5,7 C 8,0 km/h (2 Bft) 100,00 %
06.04.2018 04:41 5,7 C 8,3 C 80 % 1021,5 hPa 0,0 l/m 6,2 km/h (2 Bft) W 265 0 min 0,000 mm 0,0 UV-I 0 W/m 2,5 C 5,7 C 9,7 km/h (2 Bft) 100,00 %
06.04.2018 04:42 5,7 C 8,3 C 80 % 1021,5 hPa 0,0 l/m 5,2 km/h (1 Bft) W-SW 255 0 min 0,000 mm 0,0 UV-I 0 W/m 2,5 C 5,7 C 6,4 km/h (2 Bft) 100,00 %
06.04.2018 04:43 5,7 C 8,3 C 80 % 1021,5 hPa 0,0 l/m 4,3 km/h (1 Bft) W-SW 254 0 min 0,000 mm 0,0 UV-I 0 W/m 2,5 C 5,7 C 4,8 km/h (1 Bft) 100,00 %
06.04.2018 04:44 5,7 C 8,3 C 80 % 1021,4 hPa 0,0 l/m 5,4 km/h (1 Bft) SW 228 0 min 0,000 mm 0,0 UV-I 0 W/m 2,5 C 5,7 C 6,4 km/h (2 Bft) 100,00 %
06.04.2018 04:45 5,7 C 8,3 C 80 % 1021,4 hPa 0,0 l/m 4,3 km/h (1 Bft) SW 230 0 min 0,000 mm 0,0 UV-I 0 W/m 2,5 C 5,7 C 4,8 km/h (1 Bft) 100,00 %
06.04.2018 04:46 5,7 C 8,3 C 80 % 1021,4 hPa 0,0 l/m 3,9 km/h (1 Bft) SW 232 0 min 0,000 mm 0,0 UV-I 0 W/m 2,5 C 5,7 C 4,8 km/h (1 Bft) 100,00 %
06.04.2018 04:47 5,7 C 8,3 C 80 % 1021,4 hPa 0,0 l/m 3,4 km/h (1 Bft) SW 232 0 min 0,000 mm 0,0 UV-I 0 W/m 2,5 C 5,7 C 4,8 km/h (1 Bft) 100,00 %
06.04.2018 04:48 5,6 C 8,3 C 80 % 1021,4 hPa 0,0 l/m 3,6 km/h (1 Bft) W-SW 242 0 min 0,000 mm 0,0 UV-I 0 W/m 2,4 C 5,6 C 6,4 km/h (2 Bft) 100,00 %
06.04.2018 04:49 5,6 C 8,3 C 81 % 1021,4 hPa 0,0 l/m 6,7 km/h (2 Bft) W-SW 242 0 min 0,000 mm 0,0 UV-I 0 W/m 2,6 C 5,4 C 9,7 km/h (2 Bft) 100,00 %
06.04.2018 04:50 5,6 C 8,3 C 81 % 1021,5 hPa 0,0 l/m 5,5 km/h (1 Bft) SW 225 0 min 0,000 mm 0,0 UV-I 0 W/m 2,6 C 5,6 C 8,0 km/h (2 Bft) 98,67 %
06.04.2018 04:51 5,7 C 8,3 C 80 % 1021,5 hPa 0,0 l/m 5,6 km/h (1 Bft) SW 227 0 min 0,000 mm 0,0 UV-I 0 W/m 2,5 C 5,7 C 6,4 km/h (2 Bft) 97,73 %
06.04.2018 04:52 5,6 C 8,3 C 80 % 1021,5 hPa 0,0 l/m 5,1 km/h (1 Bft) SW 229 0 min 0,000 mm 0,0 UV-I 0 W/m 2,4 C 5,6 C 6,4 km/h (2 Bft) 100,00 %
06.04.2018 04:53 5,6 C 8,3 C 80 % 1021,5 hPa 0,0 l/m 5,2 km/h (1 Bft) SW 227 0 min 0,000 mm 0,0 UV-I 0 W/m 2,4 C 5,6 C 6,4 km/h (2 Bft) 100,00 %
06.04.2018 04:54 5,6 C 8,3 C 80 % 1021,5 hPa 0,0 l/m 4,0 km/h (1 Bft) SW 228 0 min 0,000 mm 0,0 UV-I 0 W/m 2,4 C 5,6 C 4,8 km/h (1 Bft) 96,15 %
06.04.2018 04:55 5,6 C 8,3 C 80 % 1021,6 hPa 0,0 l/m 3,5 km/h (1 Bft) SW 228 0 min 0,000 mm 0,0 UV-I 0 W/m 2,4 C 5,6 C 4,8 km/h (1 Bft) 100,00 %
06.04.2018 04:56 5,5 C 8,3 C 81 % 1021,6 hPa 0,0 l/m 5,5 km/h (1 Bft) W-SW 238 0 min 0,000 mm 0,0 UV-I 0 W/m 2,5 C 5,5 C 8,0 km/h (2 Bft) 100,00 %
06.04.2018 04:57 5,4 C 8,3 C 81 % 1021,6 hPa 0,0 l/m 5,0 km/h (1 Bft) SW 229 0 min 0,000 mm 0,0 UV-I 0 W/m 2,4 C 5,4 C 6,4 km/h (2 Bft) 100,00 %
06.04.2018 04:58 5,4 C 8,3 C 81 % 1021,6 hPa 0,0 l/m 4,8 km/h (1 Bft) SW 229 0 min 0,000 mm 0,0 UV-I 0 W/m 2,4 C 5,4 C 6,4 km/h (2 Bft) 100,00 %
06.04.2018 04:59 5,4 C 8,3 C 81 % 1021,6 hPa 0,0 l/m 4,2 km/h (1 Bft) W-SW 246 0 min 0,000 mm 0,0 UV-I 0 W/m 2,4 C 5,4 C 4,8 km/h (1 Bft) 96,15 %
06.04.2018 05:00 5,4 C 8,3 C 81 % 1021,6 hPa 0,0 l/m 4,0 km/h (1 Bft) W-SW 246 0 min 0,000 mm 0,0 UV-I 0 W/m 2,4 C 5,4 C 4,8 km/h (1 Bft) 100,00 %
06.04.2018 05:01 5,4 C 8,3 C 81 % 1021,6 hPa 0,0 l/m 4,5 km/h (1 Bft) W-SW 244 0 min 0,025 mm 0,0 UV-I 0 W/m 2,4 C 5,4 C 6,4 km/h (2 Bft) 100,00 %
06.04.2018 05:02 5,4 C 8,3 C 81 % 1021,6 hPa 0,0 l/m 3,3 km/h (1 Bft) W-SW 244 0 min 0,000 mm 0,0 UV-I 0 W/m 2,4 C 5,4 C 4,8 km/h (1 Bft) 96,30 %
06.04.2018 05:03 5,4 C 8,3 C 81 % 1021,6 hPa 0,0 l/m 3,3 km/h (1 Bft) W-SW 244 0 min 0,000 mm 0,0 UV-I 0 W/m 2,4 C 5,4 C 4,8 km/h (1 Bft) 95,65 %
06.04.2018 05:04 5,4 C 8,3 C 81 % 1021,6 hPa 0,0 l/m 4,0 km/h (1 Bft) W-SW 244 0 min 0,000 mm 0,0 UV-I 0 W/m 2,4 C 5,4 C 4,8 km/h (1 Bft) 95,83 %
06.04.2018 05:05 5,3 C 8,3 C 82 % 1021,6 hPa 0,0 l/m 4,7 km/h (1 Bft) W-SW 244 0 min 0,000 mm 0,0 UV-I 0 W/m 2,5 C 5,3 C 6,4 km/h (2 Bft) 95,65 %
06.04.2018 05:06 5,3 C 8,3 C 82 % 1021,6 hPa 0,0 l/m 4,5 km/h (1 Bft) SW 219 0 min 0,000 mm 0,0 UV-I 0 W/m 2,5 C 5,3 C 6,4 km/h (2 Bft) 100,00 %
06.04.2018 05:07 5,3 C 8,3 C 82 % 1021,6 hPa 0,0 l/m 6,2 km/h (2 Bft) W-SW 243 0 min 0,000 mm 0,0 UV-I 0 W/m 2,5 C 5,3 C 8,0 km/h (2 Bft) 96,15 %
06.04.2018 05:08 5,4 C 8,3 C 82 % 1021,6 hPa 0,0 l/m 5,7 km/h (1 Bft) W-SW 245 0 min 0,000 mm 0,0 UV-I 0 W/m 2,6 C 5,4 C 8,0 km/h (2 Bft) 96,30 %
06.04.2018 05:09 5,4 C 8,3 C 81 % 1021,6 hPa 0,0 l/m 5,1 km/h (1 Bft) W-SW 239 0 min 0,000 mm 0,0 UV-I 0 W/m 2,4 C 5,4 C 6,4 km/h (2 Bft) 100,00 %
06.04.2018 05:10 5,5 C 8,3 C 81 % 1021,6 hPa 0,0 l/m 5,6 km/h (1 Bft) W-SW 242 0 min 0,000 mm 0,0 UV-I 0 W/m 2,5 C 5,5 C 8,0 km/h (2 Bft) 96,30 %
06.04.2018 05:11 5,5 C 8,3 C 81 % 1021,6 hPa 0,0 l/m 5,6 km/h (1 Bft) W-SW 241 0 min 0,000 mm 0,0 UV-I 0 W/m 2,5 C 5,5 C 6,4 km/h (2 Bft) 95,65 %
06.04.2018 05:12 5,5 C 8,3 C 81 % 1021,6 hPa 0,0 l/m 6,0 km/h (2 Bft) W-SW 250 0 min 0,000 mm 0,0 UV-I 0 W/m 2,5 C 5,5 C 8,0 km/h (2 Bft) 95,83 %
06.04.2018 05:14 5,5 C 8,3 C 81 % 1021,6 hPa 0,0 l/m 5,1 km/h (1 Bft) W-SW 240 0 min 0,000 mm 0,0 UV-I 0 W/m 2,5 C 5,5 C 8,0 km/h (2 Bft) 98,11 %
06.04.2018 05:15 5,4 C 8,3 C 81 % 1021,6 hPa 0,0 l/m 5,6 km/h (1 Bft) W-SW 241 0 min 0,000 mm 0,0 UV-I 0 W/m 2,4 C 5,4 C 6,4 km/h (2 Bft) 100,00 %
06.04.2018 05:16 5,4 C 8,3 C 81 % 1021,7 hPa 0,0 l/m 5,3 km/h (1 Bft) W-SW 241 0 min 0,000 mm 0,0 UV-I 0 W/m 2,4 C 5,4 C 6,4 km/h (2 Bft) 95,83 %
06.04.2018 05:17 5,4 C 8,3 C 82 % 1021,6 hPa 0,0 l/m 4,7 km/h (1 Bft) W-SW 242 0 min 0,000 mm 0,0 UV-I 0 W/m 2,6 C 5,4 C 6,4 km/h (2 Bft) 91,30 %
06.04.2018 05:18 5,3 C 8,3 C 82 % 1021,6 hPa 0,0 l/m 4,1 km/h (1 Bft) W-SW 248 0 min 0,000 mm 0,0 UV-I 0 W/m 2,5 C 5,3 C 6,4 km/h (2 Bft) 100,00 %
06.04.2018 05:19 5,3 C 8,3 C 82 % 1021,6 hPa 0,0 l/m 4,2 km/h (1 Bft) W-SW 251 0 min 0,000 mm 0,0 UV-I 0 W/m 2,5 C 5,3 C 4,8 km/h (1 Bft) 96,30 %
06.04.2018 05:20 5,3 C 8,3 C 82 % 1021,7 hPa 0,0 l/m 4,9 km/h (1 Bft) W-SW 252 0 min 0,000 mm 0,0 UV-I 0 W/m 2,5 C 5,3 C 6,4 km/h (2 Bft) 100,00 %
06.04.2018 05:21 5,3 C 8,3 C 82 % 1021,7 hPa 0,0 l/m 5,8 km/h (2 Bft) W-SW 248 0 min 0,000 mm 0,0 UV-I 0 W/m 2,5 C 5,3 C 6,4 km/h (2 Bft) 96,30 %
06.04.2018 05:22 5,3 C 8,3 C 82 % 1021,7 hPa 0,0 l/m 5,1 km/h (1 Bft) W-SW 258 0 min 0,000 mm 0,0 UV-I 0 W/m 2,5 C 5,3 C 6,4 km/h (2 Bft) 100,00 %
06.04.2018 05:23 5,3 C 8,3 C 82 % 1021,7 hPa 0,0 l/m 4,8 km/h (1 Bft) W-SW 253 0 min 0,000 mm 0,0 UV-I 0 W/m 2,5 C 5,3 C 6,4 km/h (2 Bft) 95,83 %
06.04.2018 05:24 5,3 C 8,3 C 82 % 1021,7 hPa 0,0 l/m 4,1 km/h (1 Bft) W-SW 253 0 min 0,000 mm 0,0 UV-I 0 W/m 2,5 C 5,3 C 4,8 km/h (1 Bft) 100,00 %
06.04.2018 05:25 5,3 C 8,3 C 82 % 1021,7 hPa 0,0 l/m 4,3 km/h (1 Bft) W-SW 254 0 min 0,000 mm 0,0 UV-I 0 W/m 2,5 C 5,3 C 6,4 km/h (2 Bft) 93,33 %
06.04.2018 05:26 5,3 C 8,3 C 82 % 1021,7 hPa 0,0 l/m 5,1 km/h (1 Bft) W-SW 254 0 min 0,000 mm 0,0 UV-I 0 W/m 2,5 C 5,3 C 6,4 km/h (2 Bft) 100,00 %
06.04.2018 05:27 5,3 C 8,3 C 82 % 1021,7 hPa 0,0 l/m 5,6 km/h (1 Bft) W-SW 256 0 min 0,000 mm 0,0 UV-I 0 W/m 2,5 C 5,3 C 8,0 km/h (2 Bft) 96,30 %
06.04.2018 05:28 5,3 C 8,3 C 82 % 1021,7 hPa 0,0 l/m 4,8 km/h (1 Bft) W-SW 256 0 min 0,000 mm 0,0 UV-I 0 W/m 2,5 C 5,3 C 6,4 km/h (2 Bft) 95,65 %
06.04.2018 05:29 5,3 C 8,3 C 82 % 1021,7 hPa 0,0 l/m 6,0 km/h (2 Bft) W-SW 256 0 min 0,000 mm 0,0 UV-I 0 W/m 2,5 C 5,3 C 6,4 km/h (2 Bft) 100,00 %
06.04.2018 05:30 5,3 C 8,3 C 82 % 1021,7 hPa 0,0 l/m 5,9 km/h (2 Bft) W 261 0 min 0,000 mm 0,0 UV-I 0 W/m 2,5 C 5,3 C 9,7 km/h (2 Bft) 95,65 %
06.04.2018 05:31 5,3 C 8,3 C 82 % 1021,7 hPa 0,0 l/m 6,5 km/h (2 Bft) W-SW 253 0 min 0,000 mm 0,0 UV-I 0 W/m 2,5 C 5,2 C 9,7 km/h (2 Bft) 95,83 %
06.04.2018 05:32 5,3 C 8,3 C 83 % 1021,7 hPa 0,0 l/m 6,2 km/h (2 Bft) W 281 0 min 0,000 mm 0,0 UV-I 0 W/m 2,7 C 5,3 C 9,7 km/h (2 Bft) 96,55 %
06.04.2018 05:33 5,2 C 8,3 C 83 % 1021,7 hPa 0,0 l/m 11,6 km/h (2 Bft) W 259 0 min 0,000 mm 0,0 UV-I 0 W/m 2,6 C 1,2 C 14,5 km/h (3 Bft) 100,00 %
06.04.2018 05:34 5,3 C 8,3 C 82 % 1021,7 hPa 0,0 l/m 10,4 km/h (2 Bft) W 276 0 min 0,000 mm 0,0 UV-I 0 W/m 2,5 C 2,1 C 14,5 km/h (3 Bft) 93,33 %
06.04.2018 05:35 5,3 C 8,3 C 82 % 1021,7 hPa 0,0 l/m 6,1 km/h (2 Bft) W 279 0 min 0,000 mm 0,0 UV-I 0 W/m 2,5 C 5,3 C 9,7 km/h (2 Bft) 100,00 %
06.04.2018 05:36 5,4 C 8,3 C 82 % 1021,7 hPa 0,0 l/m 5,1 km/h (1 Bft) W-NW 284 0 min 0,000 mm 0,0 UV-I 0 W/m 2,6 C 5,4 C 6,4 km/h (2 Bft) 96,15 %
06.04.2018 05:37 5,4 C 8,3 C 81 % 1021,7 hPa 0,0 l/m 5,0 km/h (1 Bft) W 274 0 min 0,000 mm 0,0 UV-I 0 W/m 2,4 C 5,4 C 9,7 km/h (2 Bft) 100,00 %
06.04.2018 05:38 5,4 C 8,3 C 81 % 1021,7 hPa 0,0 l/m 7,1 km/h (2 Bft) W-NW 292 0 min 0,000 mm 0,0 UV-I 0 W/m 2,4 C 4,8 C 11,3 km/h (2 Bft) 100,00 %
06.04.2018 05:39 5,4 C 8,3 C 81 % 1021,7 hPa 0,0 l/m 7,4 km/h (2 Bft) W-NW 300 0 min 0,000 mm 0,0 UV-I 0 W/m 2,4 C 4,5 C 12,9 km/h (3 Bft) 100,00 %
06.04.2018 05:40 5,4 C 8,3 C 81 % 1021,8 hPa 0,0 l/m 6,2 km/h (2 Bft) W 271 0 min 0,000 mm 0,0 UV-I 0 W/m 2,4 C 5,4 C 9,7 km/h (2 Bft) 96,30 %
06.04.2018 05:41 5,4 C 8,3 C 81 % 1021,8 hPa 0,0 l/m 8,5 km/h (2 Bft) W-NW 285 0 min 0,000 mm 0,0 UV-I 0 W/m 2,4 C 3,6 C 11,3 km/h (2 Bft) 100,00 %
06.04.2018 05:42 5,4 C 8,3 C 81 % 1021,8 hPa 0,0 l/m 6,4 km/h (2 Bft) W 268 0 min 0,000 mm 0,0 UV-I 0 W/m 2,4 C 5,4 C 9,7 km/h (2 Bft) 100,00 %
06.04.2018 05:43 5,4 C 8,3 C 80 % 1021,8 hPa 0,0 l/m 6,4 km/h (2 Bft) W 280 0 min 0,000 mm 0,0 UV-I 0 W/m 2,2 C 5,4 C 11,3 km/h (2 Bft) 95,65 %
06.04.2018 05:44 5,4 C 8,3 C 80 % 1021,8 hPa 0,0 l/m 7,2 km/h (2 Bft) W 266 0 min 0,000 mm 0,0 UV-I 0 W/m 2,2 C 4,7 C 9,7 km/h (2 Bft) 100,00 %
06.04.2018 05:45 5,4 C 8,3 C 81 % 1021,7 hPa 0,0 l/m 5,8 km/h (2 Bft) W 268 0 min 0,000 mm 0,0 UV-I 0 W/m 2,4 C 5,4 C 6,4 km/h (2 Bft) 100,00 %
06.04.2018 05:46 5,4 C 8,3 C 80 % 1021,7 hPa 0,0 l/m 5,7 km/h (1 Bft) W 272 0 min 0,000 mm 0,0 UV-I 0 W/m 2,2 C 5,4 C 6,4 km/h (2 Bft) 100,00 %
06.04.2018 05:47 5,4 C 8,3 C 80 % 1021,8 hPa 0,0 l/m 5,3 km/h (1 Bft) W 273 0 min 0,000 mm 0,0 UV-I 0 W/m 2,2 C 5,4 C 6,4 km/h (2 Bft) 100,00 %
06.04.2018 05:48 5,4 C 8,3 C 80 % 1021,9 hPa 0,0 l/m 4,8 km/h (1 Bft) W-NW 286 0 min 0,000 mm 0,0 UV-I 0 W/m 2,2 C 5,4 C 6,4 km/h (2 Bft) 100,00 %
06.04.2018 05:49 5,4 C 8,3 C 80 % 1021,9 hPa 0,0 l/m 4,8 km/h (1 Bft) W-NW 285 0 min 0,000 mm 0,0 UV-I 0 W/m 2,2 C 5,4 C 6,4 km/h (2 Bft) 100,00 %
06.04.2018 05:50 5,4 C 8,3 C 80 % 1021,8 hPa 0,0 l/m 5,6 km/h (1 Bft) W 264 0 min 0,000 mm 0,0 UV-I 0 W/m 2,2 C 5,4 C 6,4 km/h (2 Bft) 100,00 %
06.04.2018 05:51 5,4 C 8,3 C 80 % 1021,9 hPa 0,0 l/m 5,0 km/h (1 Bft) W-NW 292 0 min 0,000 mm 0,0 UV-I 0 W/m 2,2 C 5,4 C 6,4 km/h (2 Bft) 100,00 %
06.04.2018 05:52 5,4 C 8,3 C 80 % 1021,9 hPa 0,0 l/m 6,0 km/h (2 Bft) W 260 0 min 0,000 mm 0,0 UV-I 0 W/m 2,2 C 5,4 C 9,7 km/h (2 Bft) 100,00 %
06.04.2018 05:53 5,3 C 8,3 C 81 % 1021,9 hPa 0,0 l/m 5,1 km/h (1 Bft) W 264 0 min 0,000 mm 0,0 UV-I 0 W/m 2,3 C 5,3 C 6,4 km/h (2 Bft) 100,00 %
06.04.2018 05:54 5,3 C 8,3 C 81 % 1022,0 hPa 0,0 l/m 5,8 km/h (2 Bft) W-SW 255 0 min 0,000 mm 0,0 UV-I 0 W/m 2,3 C 5,3 C 8,0 km/h (2 Bft) 100,00 %
06.04.2018 05:55 5,3 C 8,3 C 81 % 1022,0 hPa 0,0 l/m 7,3 km/h (2 Bft) W 267 0 min 0,000 mm 0,0 UV-I 0 W/m 2,3 C 4,5 C 11,3 km/h (2 Bft) 100,00 %
06.04.2018 05:56 5,3 C 8,3 C 80 % 1022,0 hPa 0,0 l/m 5,4 km/h (1 Bft) W 263 0 min 0,000 mm 0,0 UV-I 0 W/m 2,1 C 5,3 C 9,7 km/h (2 Bft) 100,00 %
06.04.2018 05:57 5,3 C 8,3 C 80 % 1022,0 hPa 0,0 l/m 5,0 km/h (1 Bft) W 262 0 min 0,000 mm 0,0 UV-I 0 W/m 2,1 C 5,3 C 6,4 km/h (2 Bft) 100,00 %
06.04.2018 05:58 5,3 C 8,3 C 80 % 1022,0 hPa 0,0 l/m 5,5 km/h (1 Bft) W 265 0 min 0,000 mm 0,0 UV-I 0 W/m 2,1 C 5,3 C 6,4 km/h (2 Bft) 100,00 %
06.04.2018 05:59 5,4 C 8,3 C 80 % 1022,0 hPa 0,0 l/m 6,8 km/h (2 Bft) W 267 0 min 0,000 mm 0,0 UV-I 0 W/m 2,2 C 5,1 C 9,7 km/h (2 Bft) 95,83 %
06.04.2018 06:00 5,4 C 8,3 C 80 % 1022,0 hPa 0,0 l/m 7,6 km/h (2 Bft) W-SW 257 0 min 0,025 mm 0,0 UV-I 0 W/m 2,2 C 4,4 C 9,7 km/h (2 Bft) 100,00 %
06.04.2018 06:01 5,4 C 8,3 C 80 % 1021,9 hPa 0,0 l/m 6,0 km/h (2 Bft) W-SW 252 0 min 0,000 mm 0,0 UV-I 0 W/m 2,2 C 5,4 C 8,0 km/h (2 Bft) 100,00 %
06.04.2018 06:02 5,3 C 8,3 C 80 % 1022,0 hPa 0,0 l/m 6,8 km/h (2 Bft) W-SW 258 0 min 0,000 mm 0,0 UV-I 0 W/m 2,1 C 5,0 C 9,7 km/h (2 Bft) 96,15 %
06.04.2018 06:03 5,4 C 8,3 C 80 % 1022,0 hPa 0,0 l/m 6,1 km/h (2 Bft) W 264 0 min 0,000 mm 0,0 UV-I 0 W/m 2,2 C 5,4 C 6,4 km/h (2 Bft) 100,00 %
06.04.2018 06:04 5,4 C 8,3 C 80 % 1021,9 hPa 0,0 l/m 5,4 km/h (1 Bft) W-SW 251 0 min 0,000 mm 0,0 UV-I 0 W/m 2,2 C 5,4 C 6,4 km/h (2 Bft) 100,00 %
06.04.2018 06:05 5,4 C 8,3 C 80 % 1021,9 hPa 0,0 l/m 6,7 km/h (2 Bft) W 265 0 min 0,000 mm 0,0 UV-I 0 W/m 2,2 C 5,2 C 9,7 km/h (2 Bft) 100,00 %
06.04.2018 06:06 5,3 C 8,3 C 81 % 1022,0 hPa 0,0 l/m 7,9 km/h (2 Bft) W 262 0 min 0,000 mm 0,0 UV-I 0 W/m 2,3 C 4,0 C 9,7 km/h (2 Bft) 100,00 %
06.04.2018 06:07 5,3 C 8,3 C 81 % 1022,0 hPa 0,0 l/m 6,9 km/h (2 Bft) W-SW 249 0 min 0,000 mm 0,0 UV-I 0 W/m 2,3 C 4,9 C 9,7 km/h (2 Bft) 100,00 %
06.04.2018 06:08 5,3 C 8,3 C 81 % 1022,0 hPa 0,0 l/m 10,1 km/h (2 Bft) W-NW 290 0 min 0,000 mm 0,0 UV-I 0 W/m 2,3 C 2,3 C 16,1 km/h (3 Bft) 96,15 %
06.04.2018 06:09 5,4 C 8,3 C 81 % 1022,0 hPa 0,0 l/m 10,5 km/h (2 Bft) W-SW 258 0 min 0,000 mm 0,0 UV-I 0 W/m 2,4 C 2,2 C 12,9 km/h (3 Bft) 100,00 %
06.04.2018 06:10 5,4 C 8,3 C 80 % 1022,0 hPa 0,0 l/m 10,4 km/h (2 Bft) W 275 0 min 0,000 mm 0,0 UV-I 0 W/m 2,2 C 2,2 C 12,9 km/h (3 Bft) 96,15 %
06.04.2018 06:11 5,4 C 8,3 C 80 % 1022,0 hPa 0,0 l/m 7,6 km/h (2 Bft) W 269 0 min 0,000 mm 0,0 UV-I 0 W/m 2,2 C 4,4 C 9,7 km/h (2 Bft) 96,67 %
06.04.2018 06:12 5,5 C 8,3 C 80 % 1022,0 hPa 0,0 l/m 10,0 km/h (2 Bft) W 269 0 min 0,000 mm 0,0 UV-I 0 W/m 2,3 C 2,6 C 12,9 km/h (3 Bft) 100,00 %
06.04.2018 06:13 5,5 C 8,3 C 80 % 1022,0 hPa 0,0 l/m 10,5 km/h (2 Bft) W 281 0 min 0,000 mm 0,0 UV-I 0 W/m 2,3 C 2,3 C 12,9 km/h (3 Bft) 100,00 %
06.04.2018 06:14 5,5 C 8,3 C 79 % 1022,0 hPa 0,0 l/m 9,1 km/h (2 Bft) W-SW 242 0 min 0,000 mm 0,0 UV-I 0 W/m 2,2 C 3,3 C 11,3 km/h (2 Bft) 100,00 %
06.04.2018 06:15 5,5 C 8,3 C 79 % 1022,0 hPa 0,0 l/m 10,4 km/h (2 Bft) W 268 0 min 0,000 mm 0,0 UV-I 0 W/m 2,2 C 2,4 C 14,5 km/h (3 Bft) 94,44 %
06.04.2018 06:16 5,6 C 8,3 C 79 % 1022,0 hPa 0,0 l/m 11,0 km/h (2 Bft) W 278 0 min 0,000 mm 0,0 UV-I 0 W/m 2,3 C 2,1 C 14,5 km/h (3 Bft) 100,00 %
06.04.2018 06:17 5,6 C 8,3 C 78 % 1022,1 hPa 0,0 l/m 8,0 km/h (2 Bft) W 270 0 min 0,000 mm 0,0 UV-I 0 W/m 2,1 C 4,2 C 12,9 km/h (3 Bft) 100,00 %
06.04.2018 06:18 5,6 C 8,3 C 79 % 1022,0 hPa 0,0 l/m 8,9 km/h (2 Bft) W 261 0 min 0,000 mm 0,0 UV-I 0 W/m 2,3 C 3,5 C 11,3 km/h (2 Bft) 96,30 %
06.04.2018 06:19 5,6 C 8,3 C 78 % 1022,1 hPa 0,0 l/m 9,6 km/h (2 Bft) W-NW 296 0 min 0,000 mm 0,0 UV-I 0 W/m 2,1 C 3,0 C 14,5 km/h (3 Bft) 100,00 %
06.04.2018 06:20 5,6 C 8,3 C 78 % 1022,1 hPa 0,0 l/m 7,6 km/h (2 Bft) W 281 0 min 0,000 mm 0,0 UV-I 0 W/m 2,1 C 4,6 C 11,3 km/h (2 Bft) 100,00 %
06.04.2018 06:21 5,6 C 8,3 C 78 % 1022,1 hPa 0,0 l/m 13,9 km/h (3 Bft) NW 306 0 min 0,000 mm 0,0 UV-I 0 W/m 2,1 C 0,4 C 16,1 km/h (3 Bft) 96,15 %
06.04.2018 06:22 5,6 C 8,3 C 78 % 1022,1 hPa 0,0 l/m 8,0 km/h (2 Bft) W-NW 302 0 min 0,000 mm 0,0 UV-I 0 W/m 2,1 C 4,2 C 12,9 km/h (3 Bft) 100,00 %
06.04.2018 06:23 5,6 C 8,3 C 78 % 1022,1 hPa 0,0 l/m 5,9 km/h (2 Bft) NW 326 0 min 0,000 mm 0,0 UV-I 2 W/m 2,1 C 5,6 C 9,7 km/h (2 Bft) 100,00 %
06.04.2018 06:24 5,6 C 8,3 C 78 % 1022,1 hPa 0,0 l/m 5,6 km/h (1 Bft) W-NW 292 0 min 0,000 mm 0,0 UV-I 5 W/m 2,1 C 5,6 C 9,7 km/h (2 Bft) 100,00 %
06.04.2018 06:25 5,6 C 8,3 C 78 % 1022,1 hPa 0,0 l/m 5,9 km/h (2 Bft) W-NW 286 0 min 0,000 mm 0,0 UV-I 5 W/m 2,1 C 5,6 C 9,7 km/h (2 Bft) 100,00 %
06.04.2018 06:26 5,5 C 8,3 C 78 % 1022,1 hPa 0,0 l/m 5,1 km/h (1 Bft) W-NW 287 0 min 0,000 mm 0,0 UV-I 5 W/m 2,0 C 5,5 C 6,4 km/h (2 Bft) 100,00 %
06.04.2018 06:27 5,5 C 8,3 C 79 % 1022,1 hPa 0,0 l/m 4,7 km/h (1 Bft) W 278 0 min 0,000 mm 0,0 UV-I 5 W/m 2,2 C 5,5 C 6,4 km/h (2 Bft) 100,00 %
06.04.2018 06:28 5,5 C 8,3 C 78 % 1022,2 hPa 0,0 l/m 5,9 km/h (2 Bft) W 267 0 min 0,000 mm 0,0 UV-I 5 W/m 2,0 C 5,5 C 8,0 km/h (2 Bft) 100,00 %
06.04.2018 06:29 5,5 C 8,3 C 78 % 1022,2 hPa 0,0 l/m 8,8 km/h (2 Bft) W 273 0 min 0,000 mm 0,0 UV-I 5 W/m 2,0 C 3,5 C 11,3 km/h (2 Bft) 96,15 %
06.04.2018 06:30 5,5 C 8,3 C 78 % 1022,2 hPa 0,0 l/m 7,0 km/h (2 Bft) W 272 0 min 0,000 mm 0,0 UV-I 5 W/m 2,0 C 5,0 C 9,7 km/h (2 Bft) 100,00 %
06.04.2018 06:31 5,5 C 8,3 C 78 % 1022,2 hPa 0,0 l/m 6,1 km/h (2 Bft) W-NW 283 0 min 0,000 mm 0,0 UV-I 6 W/m 2,0 C 5,5 C 11,3 km/h (2 Bft) 100,00 %
06.04.2018 06:32 5,5 C 8,3 C 78 % 1022,2 hPa 0,0 l/m 10,6 km/h (2 Bft) W 275 0 min 0,000 mm 0,0 UV-I 7 W/m 2,0 C 2,2 C 14,5 km/h (3 Bft) 100,00 %
06.04.2018 06:33 5,5 C 8,3 C 78 % 1022,2 hPa 0,0 l/m 7,6 km/h (2 Bft) W 280 0 min 0,000 mm 0,0 UV-I 7 W/m 2,0 C 4,5 C 11,3 km/h (2 Bft) 100,00 %
06.04.2018 06:34 5,5 C 8,3 C 78 % 1022,2 hPa 0,0 l/m 5,7 km/h (1 Bft) W 273 0 min 0,000 mm 0,0 UV-I 7 W/m 2,0 C 5,5 C 9,7 km/h (2 Bft) 100,00 %
06.04.2018 06:35 5,5 C 8,3 C 78 % 1022,2 hPa 0,0 l/m 9,4 km/h (2 Bft) W 260 0 min 0,000 mm 0,0 UV-I 7 W/m 2,0 C 3,1 C 11,3 km/h (2 Bft) 100,00 %
06.04.2018 06:36 5,5 C 8,3 C 78 % 1022,2 hPa 0,0 l/m 7,8 km/h (2 Bft) W 259 0 min 0,000 mm 0,0 UV-I 7 W/m 2,0 C 4,3 C 11,3 km/h (2 Bft) 100,00 %
06.04.2018 06:37 5,4 C 8,3 C 78 % 1022,1 hPa 0,0 l/m 8,9 km/h (2 Bft) W 275 0 min 0,000 mm 0,0 UV-I 8 W/m 1,9 C 3,3 C 11,3 km/h (2 Bft) 100,00 %
06.04.2018 06:38 5,4 C 8,3 C 78 % 1022,2 hPa 0,0 l/m 5,9 km/h (2 Bft) W-SW 254 0 min 0,000 mm 0,0 UV-I 9 W/m 1,9 C 5,4 C 9,7 km/h (2 Bft) 100,00 %
06.04.2018 06:39 5,4 C 8,3 C 78 % 1022,2 hPa 0,0 l/m 8,6 km/h (2 Bft) W 261 0 min 0,000 mm 0,0 UV-I 9 W/m 1,9 C 3,5 C 11,3 km/h (2 Bft) 100,00 %
06.04.2018 06:40 5,4 C 8,3 C 78 % 1022,2 hPa 0,0 l/m 8,4 km/h (2 Bft) W 261 0 min 0,000 mm 0,0 UV-I 10 W/m 1,9 C 3,7 C 11,3 km/h (2 Bft) 100,00 %
06.04.2018 06:41 5,4 C 8,3 C 78 % 1022,2 hPa 0,0 l/m 7,5 km/h (2 Bft) W 265 0 min 0,000 mm 0,0 UV-I 11 W/m 1,9 C 4,4 C 11,3 km/h (2 Bft) 100,00 %
06.04.2018 06:42 5,4 C 8,3 C 79 % 1022,2 hPa 0,0 l/m 7,2 km/h (2 Bft) W 260 0 min 0,000 mm 0,0 UV-I 11 W/m 2,1 C 4,7 C 9,7 km/h (2 Bft) 100,00 %
06.04.2018 06:43 5,4 C 8,3 C 79 % 1022,2 hPa 0,0 l/m 7,4 km/h (2 Bft) W-SW 246 1 min 0,000 mm 0,0 UV-I 12 W/m 2,1 C 4,5 C 9,7 km/h (2 Bft) 100,00 %
06.04.2018 06:44 5,4 C 8,3 C 79 % 1022,2 hPa 0,0 l/m 6,4 km/h (2 Bft) W 264 1 min 0,000 mm 0,0 UV-I 12 W/m 2,1 C 5,4 C 9,7 km/h (2 Bft) 100,00 %
06.04.2018 06:45 5,3 C 8,3 C 79 % 1022,2 hPa 0,0 l/m 5,7 km/h (1 Bft) W 259 0 min 0,000 mm 0,0 UV-I 12 W/m 2,0 C 5,3 C 6,4 km/h (2 Bft) 100,00 %
06.04.2018 06:46 5,3 C 8,3 C 79 % 1022,2 hPa 0,0 l/m 4,8 km/h (1 Bft) W-SW 254 0 min 0,000 mm 0,0 UV-I 12 W/m 2,0 C 5,3 C 6,4 km/h (2 Bft) 100,00 %
06.04.2018 06:47 5,3 C 8,3 C 80 % 1022,3 hPa 0,0 l/m 6,7 km/h (2 Bft) W-SW 246 0 min 0,000 mm 0,0 UV-I 13 W/m 2,1 C 5,1 C 11,3 km/h (2 Bft) 100,00 %
06.04.2018 06:48 5,3 C 8,3 C 80 % 1022,3 hPa 0,0 l/m 5,3 km/h (1 Bft) W-SW 243 0 min 0,000 mm 0,0 UV-I 14 W/m 2,1 C 5,3 C 8,0 km/h (2 Bft) 95,65 %
06.04.2018 06:49 5,3 C 8,3 C 80 % 1022,3 hPa 0,0 l/m 5,6 km/h (1 Bft) W-SW 248 0 min 0,000 mm 0,0 UV-I 14 W/m 2,1 C 5,3 C 6,4 km/h (2 Bft) 100,00 %
06.04.2018 06:50 5,3 C 8,3 C 80 % 1022,3 hPa 0,0 l/m 6,6 km/h (2 Bft) W 266 0 min 0,000 mm 0,0 UV-I 16 W/m 2,1 C 5,1 C 9,7 km/h (2 Bft) 91,67 %
06.04.2018 06:51 5,3 C 8,3 C 80 % 1022,3 hPa 0,0 l/m 6,9 km/h (2 Bft) W 264 0 min 0,000 mm 0,0 UV-I 18 W/m 2,1 C 4,9 C 9,7 km/h (2 Bft) 100,00 %
06.04.2018 06:52 5,3 C 8,3 C 80 % 1022,3 hPa 0,0 l/m 8,4 km/h (2 Bft) W 262 0 min 0,000 mm 0,0 UV-I 18 W/m 2,1 C 3,6 C 12,9 km/h (3 Bft) 96,30 %
06.04.2018 06:53 5,3 C 8,3 C 81 % 1022,3 hPa 0,0 l/m 6,4 km/h (2 Bft) W 269 0 min 0,000 mm 0,0 UV-I 20 W/m 2,3 C 5,3 C 11,3 km/h (2 Bft) 96,55 %
06.04.2018 06:54 5,3 C 8,3 C 80 % 1022,3 hPa 0,0 l/m 6,2 km/h (2 Bft) W 281 0 min 0,000 mm 0,0 UV-I 21 W/m 2,1 C 5,3 C 9,7 km/h (2 Bft) 100,00 %
06.04.2018 06:55 5,3 C 8,3 C 80 % 1022,3 hPa 0,0 l/m 5,1 km/h (1 Bft) W-SW 256 0 min 0,000 mm 0,0 UV-I 23 W/m 2,1 C 5,3 C 8,0 km/h (2 Bft) 83,33 %
06.04.2018 06:56 5,3 C 8,3 C 80 % 1022,3 hPa 0,0 l/m 8,6 km/h (2 Bft) W 268 0 min 0,000 mm 0,0 UV-I 23 W/m 2,1 C 3,4 C 11,3 km/h (2 Bft) 100,00 %
06.04.2018 06:57 5,3 C 8,3 C 80 % 1022,3 hPa 0,0 l/m 7,0 km/h (2 Bft) W-SW 253 0 min 0,000 mm 0,0 UV-I 23 W/m 2,1 C 4,8 C 9,7 km/h (2 Bft) 96,88 %
06.04.2018 06:58 5,2 C 8,3 C 81 % 1022,3 hPa 0,0 l/m 7,0 km/h (2 Bft) W 263 0 min 0,000 mm 0,0 UV-I 23 W/m 2,2 C 4,7 C 11,3 km/h (2 Bft) 100,00 %
06.04.2018 06:59 5,2 C 8,3 C 80 % 1022,3 hPa 0,0 l/m 5,8 km/h (2 Bft) W 270 0 min 0,000 mm 0,0 UV-I 22 W/m 2,0 C 5,2 C 9,7 km/h (2 Bft) 95,65 %
06.04.2018 07:00 5,2 C 8,3 C 81 % 1022,3 hPa 0,0 l/m 7,8 km/h (2 Bft) W 269 0 min 0,026 mm 0,0 UV-I 22 W/m 2,2 C 4,0 C 11,3 km/h (2 Bft) 100,00 %
06.04.2018 07:01 5,2 C 8,3 C 81 % 1022,4 hPa 0,0 l/m 6,6 km/h (2 Bft) W 272 0 min 0,000 mm 0,0 UV-I 23 W/m 2,2 C 5,0 C 9,7 km/h (2 Bft) 95,65 %
06.04.2018 07:02 5,2 C 8,3 C 81 % 1022,3 hPa 0,0 l/m 4,8 km/h (1 Bft) W 269 0 min 0,000 mm 0,0 UV-I 25 W/m 2,2 C 5,2 C 6,4 km/h (2 Bft) 95,83 %
06.04.2018 07:03 5,2 C 8,3 C 81 % 1022,3 hPa 0,0 l/m 4,6 km/h (1 Bft) W-SW 254 0 min 0,000 mm 0,0 UV-I 26 W/m 2,2 C 5,2 C 6,4 km/h (2 Bft) 100,00 %
06.04.2018 07:04 5,2 C 8,3 C 81 % 1022,4 hPa 0,0 l/m 4,3 km/h (1 Bft) W-SW 250 0 min 0,000 mm 0,0 UV-I 27 W/m 2,2 C 5,2 C 6,4 km/h (2 Bft) 92,31 %
06.04.2018 07:05 5,2 C 8,3 C 81 % 1022,4 hPa 0,0 l/m 3,1 km/h (1 Bft) W-SW 250 0 min 0,000 mm 0,0 UV-I 29 W/m 2,2 C 5,2 C 4,8 km/h (1 Bft) 100,00 %
06.04.2018 07:06 5,2 C 8,3 C 81 % 1022,4 hPa 0,0 l/m 4,7 km/h (1 Bft) W-SW 250 0 min 0,000 mm 0,0 UV-I 32 W/m 2,2 C 5,2 C 8,0 km/h (2 Bft) 96,30 %
06.04.2018 07:07 5,2 C 8,3 C 81 % 1022,4 hPa 0,0 l/m 6,0 km/h (2 Bft) W 273 0 min 0,000 mm 0,0 UV-I 35 W/m 2,2 C 5,2 C 8,0 km/h (2 Bft) 95,65 %
06.04.2018 07:08 5,1 C 8,3 C 81 % 1022,4 hPa 0,0 l/m 4,6 km/h (1 Bft) W 271 0 min 0,000 mm 0,0 UV-I 40 W/m 2,1 C 5,1 C 6,4 km/h (2 Bft) 91,67 %
06.04.2018 07:09 5,1 C 8,3 C 81 % 1022,4 hPa 0,0 l/m 4,8 km/h (1 Bft) W 261 0 min 0,000 mm 0,0 UV-I 44 W/m 2,1 C 5,1 C 6,4 km/h (2 Bft) 93,33 %
06.04.2018 07:10 5,1 C 8,3 C 81 % 1022,4 hPa 0,0 l/m 5,1 km/h (1 Bft) W-SW 254 0 min 0,000 mm 0,0 UV-I 51 W/m 2,1 C 5,1 C 6,4 km/h (2 Bft) 96,15 %
06.04.2018 07:11 5,1 C 8,3 C 81 % 1022,4 hPa 0,0 l/m 5,2 km/h (1 Bft) W 265 0 min 0,000 mm 0,0 UV-I 53 W/m 2,1 C 5,1 C 6,4 km/h (2 Bft) 91,67 %
06.04.2018 07:12 5,1 C 8,3 C 82 % 1022,4 hPa 0,0 l/m 4,7 km/h (1 Bft) W 267 1 min 0,000 mm 0,0 UV-I 70 W/m 2,3 C 5,1 C 6,4 km/h (2 Bft) 96,15 %
06.04.2018 07:13 5,1 C 8,3 C 82 % 1022,5 hPa 0,0 l/m 4,4 km/h (1 Bft) W 266 1 min 0,000 mm 0,0 UV-I 79 W/m 2,3 C 5,1 C 6,4 km/h (2 Bft) 88,89 %
06.04.2018 07:14 5,1 C 8,3 C 82 % 1022,4 hPa 0,0 l/m 4,4 km/h (1 Bft) W 268 1 min 0,000 mm 0,0 UV-I 83 W/m 2,3 C 5,1 C 4,8 km/h (1 Bft) 88,24 %
06.04.2018 07:15 5,2 C 8,3 C 82 % 1022,5 hPa 0,0 l/m 4,1 km/h (1 Bft) W 268 1 min 0,000 mm 0,0 UV-I 85 W/m 2,4 C 5,2 C 4,8 km/h (1 Bft) 96,30 %
06.04.2018 07:16 5,2 C 8,3 C 82 % 1022,5 hPa 0,0 l/m 4,7 km/h (1 Bft) W 268 1 min 0,000 mm 0,0 UV-I 84 W/m 2,4 C 5,2 C 4,8 km/h (1 Bft) 95,65 %
06.04.2018 07:17 5,2 C 8,3 C 81 % 1022,5 hPa 0,0 l/m 2,7 km/h (1 Bft) W 268 1 min 0,000 mm 0,0 UV-I 84 W/m 2,2 C 5,2 C 4,8 km/h (1 Bft) 95,83 %
06.04.2018 07:18 5,2 C 8,3 C 81 % 1022,5 hPa 0,0 l/m 2,3 km/h (1 Bft) W 268 1 min 0,000 mm 0,0 UV-I 87 W/m 2,2 C 5,2 C 3,2 km/h (1 Bft) 95,65 %
06.04.2018 07:19 5,2 C 8,3 C 81 % 1022,5 hPa 0,0 l/m 1,1 km/h (1 Bft) W 268 1 min 0,000 mm 0,0 UV-I 82 W/m 2,2 C 5,2 C 1,6 km/h (1 Bft) 92,59 %
06.04.2018 07:20 5,3 C 8,3 C 81 % 1022,5 hPa 0,0 l/m 0,8 km/h (0 Bft) W 268 1 min 0,000 mm 0,0 UV-I 69 W/m 2,3 C 5,3 C 3,2 km/h (1 Bft) 100,00 %
06.04.2018 07:21 5,3 C 8,3 C 81 % 1022,5 hPa 0,0 l/m 2,5 km/h (1 Bft) W 268 0 min 0,000 mm 0,0 UV-I 59 W/m 2,3 C 5,3 C 4,8 km/h (1 Bft) 88,89 %
06.04.2018 07:22 5,3 C 8,3 C 82 % 1022,5 hPa 0,0 l/m 2,0 km/h (1 Bft) W 268 0 min 0,000 mm 0,0 UV-I 47 W/m 2,5 C 5,3 C 3,2 km/h (1 Bft) 95,65 %
06.04.2018 07:23 5,3 C 8,3 C 81 % 1022,6 hPa 0,0 l/m 1,5 km/h (1 Bft) W 268 0 min 0,000 mm 0,0 UV-I 47 W/m 2,3 C 5,3 C 3,2 km/h (1 Bft) 96,30 %
06.04.2018 07:24 5,3 C 8,3 C 81 % 1022,6 hPa 0,0 l/m 2,0 km/h (1 Bft) W 268 0 min 0,000 mm 0,0 UV-I 50 W/m 2,3 C 5,3 C 3,2 km/h (1 Bft) 100,00 %
06.04.2018 07:25 5,3 C 8,3 C 81 % 1022,6 hPa 0,0 l/m 1,5 km/h (1 Bft) W 268 0 min 0,000 mm 0,0 UV-I 54 W/m 2,3 C 5,3 C 3,2 km/h (1 Bft) 93,10 %
06.04.2018 07:26 5,2 C 8,3 C 82 % 1022,6 hPa 0,0 l/m 2,2 km/h (1 Bft) W 268 0 min 0,000 mm 0,0 UV-I 56 W/m 2,4 C 5,2 C 3,2 km/h (1 Bft) 95,83 %
06.04.2018 07:27 5,2 C 8,3 C 82 % 1022,6 hPa 0,0 l/m 1,2 km/h (1 Bft) W 268 0 min 0,000 mm 0,0 UV-I 58 W/m 2,4 C 5,2 C 1,6 km/h (1 Bft) 92,31 %
06.04.2018 07:28 5,2 C 8,3 C 81 % 1022,6 hPa 0,0 l/m 1,2 km/h (1 Bft) W 268 0 min 0,000 mm 0,0 UV-I 52 W/m 2,2 C 5,2 C 1,6 km/h (1 Bft) 93,33 %
06.04.2018 07:29 5,2 C 8,3 C 82 % 1022,7 hPa 0,0 l/m 0,9 km/h (0 Bft) W 268 0 min 0,000 mm 0,0 UV-I 36 W/m 2,4 C 5,2 C 1,6 km/h (1 Bft) 96,55 %
06.04.2018 07:30 5,2 C 8,3 C 83 % 1022,7 hPa 0,0 l/m 1,8 km/h (1 Bft) W 268 0 min 0,000 mm 0,0 UV-I 35 W/m 2,6 C 5,2 C 3,2 km/h (1 Bft) 91,67 %
06.04.2018 07:31 5,2 C 8,3 C 83 % 1022,7 hPa 0,0 l/m 1,3 km/h (1 Bft) W 268 0 min 0,000 mm 0,0 UV-I 38 W/m 2,6 C 5,2 C 1,6 km/h (1 Bft) 100,00 %
06.04.2018 07:32 5,2 C 8,3 C 83 % 1022,7 hPa 0,0 l/m 1,0 km/h (0 Bft) W 268 0 min 0,000 mm 0,0 UV-I 85 W/m 2,6 C 5,2 C 1,6 km/h (1 Bft) 92,59 %
06.04.2018 07:33 5,1 C 8,3 C 83 % 1022,7 hPa 0,0 l/m 0,8 km/h (0 Bft) W 268 0 min 0,000 mm 0,0 UV-I 82 W/m 2,5 C 5,1 C 1,6 km/h (1 Bft) 96,15 %
06.04.2018 07:34 5,1 C 8,3 C 83 % 1022,7 hPa 0,0 l/m 0,3 km/h (0 Bft) W 268 0 min 0,000 mm 0,0 UV-I 78 W/m 2,5 C 5,1 C 1,6 km/h (1 Bft) 95,83 %
06.04.2018 07:35 5,1 C 8,3 C 83 % 1022,7 hPa 0,0 l/m 0,6 km/h (0 Bft) W 268 0 min 0,000 mm 0,0 UV-I 65 W/m 2,5 C 5,1 C 1,6 km/h (1 Bft) 91,30 %
06.04.2018 07:36 5,1 C 8,3 C 83 % 1022,7 hPa 0,0 l/m 0,8 km/h (0 Bft) W 268 0 min 0,000 mm 0,0 UV-I 54 W/m 2,5 C 5,1 C 1,6 km/h (1 Bft) 100,00 %
06.04.2018 07:37 5,0 C 8,3 C 83 % 1022,8 hPa 0,0 l/m 1,4 km/h (1 Bft) W 268 0 min 0,000 mm 0,0 UV-I 62 W/m 2,4 C 5,0 C 3,2 km/h (1 Bft) 96,55 %
06.04.2018 07:38 5,0 C 8,3 C 83 % 1022,8 hPa 0,0 l/m 0,6 km/h (0 Bft) W 268 1 min 0,000 mm 0,0 UV-I 110 W/m 2,4 C 5,0 C 1,6 km/h (1 Bft) 92,59 %
06.04.2018 07:39 5,0 C 8,3 C 83 % 1022,8 hPa 0,0 l/m 0,0 km/h (0 Bft) W 268 1 min 0,000 mm 0,0 UV-I 138 W/m 2,4 C 5,0 C 0,0 km/h (0 Bft) 91,30 %
06.04.2018 07:40 5,1 C 8,3 C 82 % 1022,8 hPa 0,0 l/m 0,0 km/h (0 Bft) W 268 1 min 0,000 mm 0,0 UV-I 143 W/m 2,3 C 5,1 C 0,0 km/h (0 Bft) 100,00 %
06.04.2018 07:41 5,2 C 8,3 C 82 % 1022,8 hPa 0,0 l/m 0,0 km/h (0 Bft) W 268 1 min 0,000 mm 0,0 UV-I 141 W/m 2,4 C 5,2 C 0,0 km/h (0 Bft) 92,31 %
06.04.2018 07:42 5,2 C 8,3 C 81 % 1022,9 hPa 0,0 l/m 0,0 km/h (0 Bft) W 268 1 min 0,000 mm 0,0 UV-I 145 W/m 2,2 C 5,2 C 0,0 km/h (0 Bft) 92,59 %
06.04.2018 07:43 5,3 C 8,3 C 81 % 1022,8 hPa 0,0 l/m 0,0 km/h (0 Bft) W 268 1 min 0,000 mm 0,0 UV-I 146 W/m 2,3 C 5,3 C 0,0 km/h (0 Bft) 95,65 %
06.04.2018 07:44 5,3 C 8,3 C 81 % 1022,8 hPa 0,0 l/m 1,7 km/h (1 Bft) W 268 1 min 0,000 mm 0,0 UV-I 151 W/m 2,3 C 5,3 C 3,2 km/h (1 Bft) 91,67 %
06.04.2018 07:45 5,3 C 8,3 C 80 % 1022,9 hPa 0,0 l/m 2,0 km/h (1 Bft) W 268 1 min 0,000 mm 0,0 UV-I 156 W/m 2,1 C 5,3 C 3,2 km/h (1 Bft) 100,00 %
06.04.2018 07:46 5,4 C 8,3 C 81 % 1022,9 hPa 0,0 l/m 2,8 km/h (1 Bft) W 268 1 min 0,000 mm 0,0 UV-I 160 W/m 2,4 C 5,4 C 3,2 km/h (1 Bft) 95,83 %
06.04.2018 07:47 5,5 C 8,3 C 80 % 1022,9 hPa 0,0 l/m 2,3 km/h (1 Bft) W 268 1 min 0,000 mm 0,0 UV-I 163 W/m 2,3 C 5,5 C 3,2 km/h (1 Bft) 100,00 %
06.04.2018 07:48 5,6 C 8,3 C 80 % 1022,9 hPa 0,0 l/m 2,3 km/h (1 Bft) W 268 1 min 0,000 mm 0,0 UV-I 167 W/m 2,4 C 5,6 C 3,2 km/h (1 Bft) 91,30 %
06.04.2018 07:49 5,6 C 8,3 C 80 % 1022,9 hPa 0,0 l/m 1,9 km/h (1 Bft) W 268 1 min 0,000 mm 0,0 UV-I 171 W/m 2,4 C 5,6 C 3,2 km/h (1 Bft) 100,00 %
06.04.2018 07:50 5,6 C 8,3 C 79 % 1022,9 hPa 0,0 l/m 1,5 km/h (1 Bft) W 268 1 min 0,000 mm 0,0 UV-I 174 W/m 2,3 C 5,6 C 3,2 km/h (1 Bft) 96,15 %
06.04.2018 07:51 5,7 C 8,3 C 80 % 1022,9 hPa 0,0 l/m 1,9 km/h (1 Bft) W 268 1 min 0,000 mm 0,0 UV-I 176 W/m 2,5 C 5,7 C 3,2 km/h (1 Bft) 100,00 %
06.04.2018 07:52 5,7 C 8,3 C 79 % 1022,9 hPa 0,0 l/m 1,5 km/h (1 Bft) W 268 1 min 0,000 mm 0,0 UV-I 176 W/m 2,3 C 5,7 C 3,2 km/h (1 Bft) 95,65 %
06.04.2018 07:53 5,7 C 8,3 C 79 % 1022,9 hPa 0,0 l/m 1,1 km/h (1 Bft) W 268 1 min 0,000 mm 0,0 UV-I 181 W/m 2,3 C 5,7 C 3,2 km/h (1 Bft) 95,83 %
06.04.2018 07:54 5,7 C 8,3 C 79 % 1022,9 hPa 0,0 l/m 2,2 km/h (1 Bft) W 268 1 min 0,000 mm 0,0 UV-I 185 W/m 2,3 C 5,7 C 3,2 km/h (1 Bft) 100,00 %
06.04.2018 07:55 5,8 C 8,3 C 79 % 1023,0 hPa 0,0 l/m 3,0 km/h (1 Bft) W 268 1 min 0,000 mm 0,0 UV-I 186 W/m 2,4 C 5,8 C 3,2 km/h (1 Bft) 100,00 %
06.04.2018 07:56 5,8 C 8,3 C 79 % 1023,0 hPa 0,0 l/m 3,0 km/h (1 Bft) W 268 1 min 0,000 mm 0,0 UV-I 191 W/m 2,4 C 5,8 C 4,8 km/h (1 Bft) 96,55 %
06.04.2018 07:57 5,8 C 8,3 C 79 % 1023,0 hPa 0,0 l/m 3,2 km/h (1 Bft) W 268 1 min 0,000 mm 0,0 UV-I 195 W/m 2,4 C 5,8 C 4,8 km/h (1 Bft) 95,83 %
06.04.2018 07:58 5,8 C 8,3 C 79 % 1023,0 hPa 0,0 l/m 2,0 km/h (1 Bft) W 268 1 min 0,000 mm 0,0 UV-I 200 W/m 2,4 C 5,8 C 3,2 km/h (1 Bft) 100,00 %
06.04.2018 07:59 5,9 C 8,3 C 79 % 1023,0 hPa 0,0 l/m 3,8 km/h (1 Bft) W 265 1 min 0,000 mm 0,0 UV-I 206 W/m 2,5 C 5,9 C 4,8 km/h (1 Bft) 100,00 %
06.04.2018 08:00 5,9 C 8,3 C 79 % 1023,0 hPa 0,0 l/m 2,0 km/h (1 Bft) W 260 1 min 0,051 mm 0,0 UV-I 213 W/m 2,5 C 5,9 C 3,2 km/h (1 Bft) 100,00 %
06.04.2018 08:01 5,9 C 8,3 C 79 % 1023,0 hPa 0,0 l/m 4,6 km/h (1 Bft) SW 226 1 min 0,000 mm 0,0 UV-I 223 W/m 2,5 C 5,9 C 6,4 km/h (2 Bft) 100,00 %
06.04.2018 08:02 6,0 C 8,3 C 79 % 1023,0 hPa 0,0 l/m 4,2 km/h (1 Bft) SW 227 1 min 0,000 mm 0,0 UV-I 233 W/m 2,6 C 6,0 C 4,8 km/h (1 Bft) 100,00 %
06.04.2018 08:03 6,1 C 8,3 C 79 % 1023,0 hPa 0,0 l/m 3,2 km/h (1 Bft) SW 227 1 min 0,000 mm 0,0 UV-I 242 W/m 2,7 C 6,1 C 4,8 km/h (1 Bft) 100,00 %
06.04.2018 08:04 6,2 C 8,3 C 80 % 1023,0 hPa 0,0 l/m 4,0 km/h (1 Bft) W-SW 238 1 min 0,000 mm 0,0 UV-I 255 W/m 3,0 C 6,2 C 8,0 km/h (2 Bft) 100,00 %
06.04.2018 08:05 6,2 C 8,3 C 78 % 1023,1 hPa 0,0 l/m 6,9 km/h (2 Bft) W-SW 238 1 min 0,000 mm 0,0 UV-I 268 W/m 2,7 C 5,8 C 8,0 km/h (2 Bft) 96,15 %
06.04.2018 08:06 6,2 C 8,3 C 79 % 1023,1 hPa 0,0 l/m 5,1 km/h (1 Bft) W-SW 244 1 min 0,000 mm 0,0 UV-I 264 W/m 2,8 C 6,2 C 8,0 km/h (2 Bft) 100,00 %
06.04.2018 08:07 6,3 C 8,3 C 79 % 1023,1 hPa 0,0 l/m 3,6 km/h (1 Bft) SW 223 1 min 0,000 mm 0,0 UV-I 232 W/m 2,9 C 6,3 C 6,4 km/h (2 Bft) 100,00 %
06.04.2018 08:09 6,2 C 8,3 C 79 % 1023,1 hPa 0,0 l/m 5,0 km/h (1 Bft) SW 234 2 min 0,000 mm 0,0 UV-I 146 W/m 2,8 C 6,2 C 6,4 km/h (2 Bft) 100,00 %
06.04.2018 08:10 6,2 C 8,3 C 78 % 1023,1 hPa 0,0 l/m 3,5 km/h (1 Bft) W-SW 238 0 min 0,000 mm 0,0 UV-I 125 W/m 2,7 C 6,2 C 4,8 km/h (1 Bft) 100,00 %
06.04.2018 08:11 6,2 C 8,3 C 78 % 1023,2 hPa 0,0 l/m 4,4 km/h (1 Bft) W 275 0 min 0,000 mm 0,0 UV-I 111 W/m 2,7 C 6,2 C 6,4 km/h (2 Bft) 100,00 %
06.04.2018 08:12 6,1 C 8,3 C 78 % 1023,1 hPa 0,0 l/m 4,5 km/h (1 Bft) W 276 0 min 0,000 mm 0,0 UV-I 110 W/m 2,6 C 6,1 C 9,7 km/h (2 Bft) 100,00 %
06.04.2018 08:13 6,0 C 8,3 C 78 % 1023,1 hPa 0,0 l/m 1,1 km/h (1 Bft) W 276 0 min 0,000 mm 0,0 UV-I 127 W/m 2,5 C 6,0 C 3,2 km/h (1 Bft) 100,00 %
06.04.2018 08:14 5,9 C 8,3 C 77 % 1023,2 hPa 0,0 l/m 4,6 km/h (1 Bft) W 264 0 min 0,000 mm 0,0 UV-I 130 W/m 2,2 C 5,9 C 6,4 km/h (2 Bft) 100,00 %
06.04.2018 08:15 5,9 C 8,3 C 79 % 1023,2 hPa 0,0 l/m 4,2 km/h (1 Bft) W-SW 252 0 min 0,000 mm 0,0 UV-I 105 W/m 2,5 C 5,9 C 6,4 km/h (2 Bft) 100,00 %
06.04.2018 08:16 6,0 C 8,3 C 79 % 1023,1 hPa 0,0 l/m 3,5 km/h (1 Bft) SW 234 0 min 0,000 mm 0,0 UV-I 140 W/m 2,6 C 6,0 C 4,8 km/h (1 Bft) 100,00 %
06.04.2018 08:17 6,1 C 8,3 C 79 % 1023,1 hPa 0,0 l/m 4,2 km/h (1 Bft) SW 236 0 min 0,000 mm 0,0 UV-I 151 W/m 2,7 C 6,1 C 4,8 km/h (1 Bft) 100,00 %
06.04.2018 08:18 6,1 C 8,3 C 78 % 1023,1 hPa 0,0 l/m 5,6 km/h (1 Bft) W 264 1 min 0,000 mm 0,0 UV-I 270 W/m 2,6 C 6,1 C 6,4 km/h (2 Bft) 100,00 %
06.04.2018 08:19 6,1 C 8,3 C 78 % 1023,1 hPa 0,0 l/m 4,7 km/h (1 Bft) SW 228 1 min 0,000 mm 0,0 UV-I 274 W/m 2,6 C 6,1 C 6,4 km/h (2 Bft) 95,65 %
06.04.2018 08:20 6,2 C 8,3 C 78 % 1023,1 hPa 0,0 l/m 3,5 km/h (1 Bft) SW 230 1 min 0,000 mm 0,0 UV-I 259 W/m 2,7 C 6,2 C 4,8 km/h (1 Bft) 100,00 %
06.04.2018 08:21 6,2 C 8,3 C 79 % 1023,2 hPa 0,0 l/m 4,6 km/h (1 Bft) W-SW 248 1 min 0,000 mm 0,0 UV-I 211 W/m 2,8 C 6,2 C 4,8 km/h (1 Bft) 97,91 %
06.04.2018 08:22 6,3 C 8,3 C 78 % 1023,1 hPa 0,0 l/m 4,3 km/h (1 Bft) W-SW 242 1 min 0,000 mm 0,0 UV-I 248 W/m 2,8 C 6,3 C 6,4 km/h (2 Bft) 100,00 %
06.04.2018 08:23 6,3 C 8,3 C 77 % 1023,2 hPa 0,0 l/m 5,4 km/h (1 Bft) W-SW 246 1 min 0,000 mm 0,0 UV-I 188 W/m 2,6 C 6,3 C 6,4 km/h (2 Bft) 100,00 %
06.04.2018 08:24 6,3 C 8,3 C 78 % 1023,1 hPa 0,0 l/m 5,7 km/h (1 Bft) W 261 1 min 0,000 mm 0,0 UV-I 250 W/m 2,8 C 6,3 C 8,0 km/h (2 Bft) 100,00 %
06.04.2018 08:25 6,3 C 8,3 C 78 % 1023,2 hPa 0,0 l/m 3,2 km/h (1 Bft) W 261 1 min 0,000 mm 0,0 UV-I 272 W/m 2,8 C 6,3 C 4,8 km/h (1 Bft) 100,00 %
06.04.2018 08:26 6,3 C 8,3 C 77 % 1023,2 hPa 0,0 l/m 3,9 km/h (1 Bft) W 263 1 min 0,000 mm 0,0 UV-I 278 W/m 2,6 C 6,3 C 4,8 km/h (1 Bft) 100,00 %
06.04.2018 08:27 6,4 C 8,3 C 78 % 1023,3 hPa 0,0 l/m 4,0 km/h (1 Bft) W 271 1 min 0,000 mm 0,0 UV-I 280 W/m 2,8 C 6,4 C 6,4 km/h (2 Bft) 100,00 %
06.04.2018 08:28 6,5 C 8,3 C 77 % 1023,3 hPa 0,0 l/m 2,6 km/h (1 Bft) W 271 1 min 0,000 mm 0,3 UV-I 281 W/m 2,8 C 6,5 C 4,8 km/h (1 Bft) 96,15 %
06.04.2018 08:29 6,5 C 8,3 C 76 % 1023,2 hPa 0,0 l/m 2,2 km/h (1 Bft) W 271 1 min 0,000 mm 0,5 UV-I 285 W/m 2,6 C 6,5 C 4,8 km/h (1 Bft) 100,00 %
06.04.2018 08:30 6,5 C 8,3 C 76 % 1023,2 hPa 0,0 l/m 1,1 km/h (1 Bft) W 272 1 min 0,000 mm 0,5 UV-I 287 W/m 2,6 C 6,5 C 3,2 km/h (1 Bft) 100,00 %
06.04.2018 08:31 6,6 C 8,3 C 77 % 1023,2 hPa 0,0 l/m 3,5 km/h (1 Bft) W 261 1 min 0,000 mm 0,5 UV-I 289 W/m 2,9 C 6,6 C 6,4 km/h (2 Bft) 100,00 %
06.04.2018 08:32 6,6 C 8,3 C 77 % 1023,3 hPa 0,0 l/m 7,6 km/h (2 Bft) W 272 1 min 0,000 mm 0,5 UV-I 293 W/m 2,9 C 5,6 C 11,3 km/h (2 Bft) 90,91 %
06.04.2018 08:33 6,5 C 8,3 C 75 % 1023,3 hPa 0,0 l/m 4,7 km/h (1 Bft) W-NW 285 1 min 0,000 mm 0,5 UV-I 298 W/m 2,4 C 6,5 C 9,7 km/h (2 Bft) 100,00 %
06.04.2018 08:34 6,6 C 8,3 C 77 % 1023,3 hPa 0,0 l/m 5,1 km/h (1 Bft) W 263 1 min 0,000 mm 0,5 UV-I 302 W/m 2,9 C 6,6 C 9,7 km/h (2 Bft) 100,00 %
06.04.2018 08:35 6,5 C 8,3 C 75 % 1023,3 hPa 0,0 l/m 4,6 km/h (1 Bft) W 265 1 min 0,000 mm 0,5 UV-I 306 W/m 2,4 C 6,5 C 6,4 km/h (2 Bft) 100,00 %
06.04.2018 08:36 6,5 C 8,3 C 75 % 1023,3 hPa 0,0 l/m 5,0 km/h (1 Bft) W-SW 253 1 min 0,000 mm 0,5 UV-I 306 W/m 2,4 C 6,5 C 8,0 km/h (2 Bft) 100,00 %
06.04.2018 08:37 6,5 C 8,3 C 76 % 1023,3 hPa 0,0 l/m 5,5 km/h (1 Bft) W-SW 251 1 min 0,000 mm 0,5 UV-I 307 W/m 2,6 C 6,5 C 8,0 km/h (2 Bft) 100,00 %
06.04.2018 08:38 6,5 C 8,3 C 75 % 1023,2 hPa 0,0 l/m 5,0 km/h (1 Bft) W 276 1 min 0,000 mm 0,5 UV-I 310 W/m 2,4 C 6,5 C 9,7 km/h (2 Bft) 100,00 %
06.04.2018 08:39 6,4 C 8,3 C 75 % 1023,3 hPa 0,0 l/m 6,9 km/h (2 Bft) W-SW 254 1 min 0,000 mm 0,5 UV-I 314 W/m 2,3 C 6,0 C 9,7 km/h (2 Bft) 96,30 %
06.04.2018 08:40 6,5 C 8,3 C 75 % 1023,2 hPa 0,0 l/m 4,9 km/h (1 Bft) W-SW 257 1 min 0,000 mm 0,6 UV-I 319 W/m 2,4 C 6,5 C 6,4 km/h (2 Bft) 100,00 %
06.04.2018 08:41 6,6 C 8,3 C 76 % 1023,2 hPa 0,0 l/m 5,2 km/h (1 Bft) W-SW 253 1 min 0,000 mm 0,6 UV-I 317 W/m 2,7 C 6,6 C 6,4 km/h (2 Bft) 100,00 %
06.04.2018 08:42 6,6 C 8,3 C 75 % 1023,2 hPa 0,0 l/m 6,5 km/h (2 Bft) W 271 1 min 0,000 mm 0,6 UV-I 318 W/m 2,5 C 6,5 C 9,7 km/h (2 Bft) 100,00 %
06.04.2018 08:43 6,7 C 8,3 C 75 % 1023,2 hPa 0,0 l/m 5,0 km/h (1 Bft) W-SW 254 1 min 0,000 mm 0,6 UV-I 320 W/m 2,6 C 6,7 C 6,4 km/h (2 Bft) 100,00 %
06.04.2018 08:44 6,7 C 8,3 C 75 % 1023,3 hPa 0,0 l/m 7,0 km/h (2 Bft) W-SW 255 1 min 0,000 mm 0,6 UV-I 323 W/m 2,6 C 6,2 C 9,7 km/h (2 Bft) 100,00 %
06.04.2018 08:45 6,7 C 8,3 C 74 % 1023,3 hPa 0,0 l/m 5,1 km/h (1 Bft) W-SW 246 1 min 0,000 mm 0,6 UV-I 328 W/m 2,4 C 6,7 C 6,4 km/h (2 Bft) 100,00 %
06.04.2018 08:46 6,7 C 8,3 C 74 % 1023,2 hPa 0,0 l/m 5,7 km/h (1 Bft) W-SW 248 1 min 0,000 mm 0,6 UV-I 330 W/m 2,4 C 6,7 C 8,0 km/h (2 Bft) 100,00 %
06.04.2018 08:47 6,7 C 8,3 C 75 % 1023,2 hPa 0,0 l/m 3,5 km/h (1 Bft) W-SW 248 1 min 0,000 mm 0,6 UV-I 332 W/m 2,6 C 6,7 C 4,8 km/h (1 Bft) 100,00 %
06.04.2018 08:48 6,7 C 8,3 C 75 % 1023,2 hPa 0,0 l/m 1,0 km/h (0 Bft) W-SW 248 1 min 0,000 mm 0,6 UV-I 335 W/m 2,6 C 6,7 C 3,2 km/h (1 Bft) 100,00 %
06.04.2018 08:49 6,8 C 8,3 C 75 % 1023,2 hPa 0,0 l/m 0,3 km/h (0 Bft) W-SW 248 1 min 0,000 mm 0,6 UV-I 339 W/m 2,7 C 6,8 C 1,6 km/h (1 Bft) 100,00 %
06.04.2018 08:50 6,7 C 8,3 C 74 % 1023,3 hPa 0,0 l/m 0,4 km/h (0 Bft) W-SW 248 1 min 0,000 mm 0,6 UV-I 341 W/m 2,4 C 6,7 C 3,2 km/h (1 Bft) 100,00 %
06.04.2018 08:51 6,7 C 8,3 C 74 % 1023,3 hPa 0,0 l/m 2,3 km/h (1 Bft) W-SW 248 1 min 0,000 mm 0,7 UV-I 345 W/m 2,4 C 6,7 C 3,2 km/h (1 Bft) 100,00 %
06.04.2018 08:52 6,7 C 8,3 C 75 % 1023,2 hPa 0,0 l/m 3,4 km/h (1 Bft) W-SW 252 1 min 0,000 mm 0,7 UV-I 348 W/m 2,6 C 6,7 C 4,8 km/h (1 Bft) 100,00 %
06.04.2018 08:53 6,7 C 8,3 C 75 % 1023,3 hPa 0,0 l/m 3,6 km/h (1 Bft) W-SW 244 1 min 0,000 mm 0,7 UV-I 352 W/m 2,6 C 6,7 C 4,8 km/h (1 Bft) 100,00 %
06.04.2018 08:54 6,8 C 8,3 C 75 % 1023,2 hPa 0,0 l/m 4,0 km/h (1 Bft) SW 229 1 min 0,000 mm 0,7 UV-I 352 W/m 2,7 C 6,8 C 4,8 km/h (1 Bft) 95,83 %
06.04.2018 08:55 7,0 C 8,3 C 76 % 1023,2 hPa 0,0 l/m 5,9 km/h (2 Bft) SW 229 1 min 0,000 mm 0,7 UV-I 354 W/m 3,1 C 7,0 C 6,4 km/h (2 Bft) 100,00 %
06.04.2018 08:56 7,1 C 8,3 C 75 % 1023,2 hPa 0,0 l/m 6,4 km/h (2 Bft) SW 232 1 min 0,000 mm 0,7 UV-I 359 W/m 3,0 C 7,1 C 8,0 km/h (2 Bft) 100,00 %
06.04.2018 08:57 7,2 C 8,3 C 74 % 1023,2 hPa 0,0 l/m 4,1 km/h (1 Bft) W 266 1 min 0,000 mm 0,7 UV-I 360 W/m 2,9 C 7,2 C 6,4 km/h (2 Bft) 100,00 %
06.04.2018 08:58 7,2 C 8,3 C 73 % 1023,2 hPa 0,0 l/m 3,0 km/h (1 Bft) W 266 1 min 0,000 mm 0,7 UV-I 362 W/m 2,7 C 7,2 C 3,2 km/h (1 Bft) 95,83 %
06.04.2018 08:59 7,2 C 8,3 C 74 % 1023,2 hPa 0,0 l/m 2,2 km/h (1 Bft) W 266 1 min 0,000 mm 0,7 UV-I 366 W/m 2,9 C 7,2 C 3,2 km/h (1 Bft) 100,00 %
06.04.2018 09:00 7,1 C 8,3 C 73 % 1023,2 hPa 0,0 l/m 3,7 km/h (1 Bft) W-SW 253 1 min 0,127 mm 0,7 UV-I 370 W/m 2,6 C 7,1 C 4,8 km/h (1 Bft) 100,00 %
06.04.2018 09:01 7,0 C 8,3 C 73 % 1023,3 hPa 0,0 l/m 1,4 km/h (1 Bft) W-SW 253 1 min 0,000 mm 0,8 UV-I 373 W/m 2,5 C 7,0 C 3,2 km/h (1 Bft) 100,00 %
06.04.2018 09:02 7,0 C 8,3 C 73 % 1023,2 hPa 0,0 l/m 1,6 km/h (1 Bft) W-SW 253 1 min 0,000 mm 0,8 UV-I 375 W/m 2,5 C 7,0 C 3,2 km/h (1 Bft) 96,30 %
06.04.2018 09:03 7,0 C 8,3 C 76 % 1023,2 hPa 0,0 l/m 3,1 km/h (1 Bft) W-SW 253 1 min 0,000 mm 0,8 UV-I 379 W/m 3,1 C 7,0 C 6,4 km/h (2 Bft) 96,15 %
06.04.2018 09:04 7,1 C 8,3 C 75 % 1023,2 hPa 0,0 l/m 3,7 km/h (1 Bft) SW 231 1 min 0,000 mm 0,8 UV-I 381 W/m 3,0 C 7,1 C 4,8 km/h (1 Bft) 100,00 %
06.04.2018 09:05 7,1 C 8,3 C 74 % 1023,2 hPa 0,0 l/m 2,7 km/h (1 Bft) SW 234 1 min 0,000 mm 0,8 UV-I 386 W/m 2,8 C 7,1 C 3,2 km/h (1 Bft) 100,00 %
06.04.2018 09:06 7,1 C 8,3 C 74 % 1023,2 hPa 0,0 l/m 1,9 km/h (1 Bft) W 269 1 min 0,000 mm 0,8 UV-I 389 W/m 2,8 C 7,1 C 3,2 km/h (1 Bft) 96,15 %
06.04.2018 09:07 7,1 C 8,3 C 75 % 1023,2 hPa 0,0 l/m 2,6 km/h (1 Bft) W 272 1 min 0,000 mm 0,8 UV-I 391 W/m 3,0 C 7,1 C 4,8 km/h (1 Bft) 96,30 %
06.04.2018 09:08 7,2 C 8,3 C 74 % 1023,2 hPa 0,0 l/m 1,3 km/h (1 Bft) W 272 1 min 0,000 mm 0,8 UV-I 395 W/m 2,9 C 7,2 C 1,6 km/h (1 Bft) 100,00 %
06.04.2018 09:09 7,3 C 8,3 C 73 % 1023,2 hPa 0,0 l/m 2,5 km/h (1 Bft) W 274 1 min 0,000 mm 0,8 UV-I 397 W/m 2,8 C 7,3 C 4,8 km/h (1 Bft) 98,11 %
06.04.2018 09:10 7,4 C 8,3 C 72 % 1023,2 hPa 0,0 l/m 3,3 km/h (1 Bft) W-NW 296 1 min 0,000 mm 0,9 UV-I 399 W/m 2,7 C 7,4 C 6,4 km/h (2 Bft) 97,56 %
06.04.2018 09:11 7,3 C 8,3 C 72 % 1023,2 hPa 0,0 l/m 3,8 km/h (1 Bft) NW 305 1 min 0,000 mm 0,9 UV-I 403 W/m 2,6 C 7,3 C 4,8 km/h (1 Bft) 95,83 %
06.04.2018 09:12 7,3 C 8,3 C 72 % 1023,3 hPa 0,0 l/m 3,7 km/h (1 Bft) W-NW 302 1 min 0,000 mm 0,9 UV-I 404 W/m 2,6 C 7,3 C 4,8 km/h (1 Bft) 96,15 %
06.04.2018 09:13 7,2 C 8,3 C 72 % 1023,2 hPa 0,0 l/m 1,8 km/h (1 Bft) W-NW 302 1 min 0,000 mm 0,9 UV-I 407 W/m 2,5 C 7,2 C 3,2 km/h (1 Bft) 100,00 %
06.04.2018 09:14 7,1 C 8,3 C 72 % 1023,2 hPa 0,0 l/m 1,7 km/h (1 Bft) W-NW 302 1 min 0,000 mm 0,9 UV-I 409 W/m 2,4 C 7,1 C 3,2 km/h (1 Bft) 96,15 %
06.04.2018 09:15 7,1 C 8,3 C 73 % 1023,2 hPa 0,0 l/m 3,9 km/h (1 Bft) W-NW 291 1 min 0,000 mm 0,9 UV-I 412 W/m 2,6 C 7,1 C 6,4 km/h (2 Bft) 100,00 %
06.04.2018 09:16 7,2 C 8,3 C 74 % 1023,2 hPa 0,0 l/m 2,7 km/h (1 Bft) W-NW 291 1 min 0,000 mm 0,9 UV-I 413 W/m 2,9 C 7,2 C 4,8 km/h (1 Bft) 96,15 %
06.04.2018 09:17 7,1 C 8,3 C 73 % 1023,2 hPa 0,0 l/m 2,4 km/h (1 Bft) W-NW 291 1 min 0,000 mm 0,9 UV-I 416 W/m 2,6 C 7,1 C 4,8 km/h (1 Bft) 100,00 %
06.04.2018 09:18 7,1 C 8,3 C 73 % 1023,2 hPa 0,0 l/m 0,7 km/h (0 Bft) W-NW 291 1 min 0,000 mm 0,9 UV-I 419 W/m 2,6 C 7,1 C 1,6 km/h (1 Bft) 92,31 %
06.04.2018 09:19 7,1 C 8,3 C 72 % 1023,3 hPa 0,0 l/m 0,2 km/h (0 Bft) W-NW 291 1 min 0,000 mm 1,0 UV-I 424 W/m 2,4 C 7,1 C 1,6 km/h (1 Bft) 100,00 %
06.04.2018 09:20 7,1 C 8,3 C 72 % 1023,2 hPa 0,0 l/m 2,3 km/h (1 Bft) W-NW 293 1 min 0,000 mm 1,0 UV-I 427 W/m 2,4 C 7,1 C 3,2 km/h (1 Bft) 92,31 %
06.04.2018 09:21 7,1 C 8,3 C 73 % 1023,2 hPa 0,0 l/m 3,1 km/h (1 Bft) W-NW 293 1 min 0,000 mm 1,0 UV-I 429 W/m 2,6 C 7,1 C 4,8 km/h (1 Bft) 95,83 %
06.04.2018 09:22 7,2 C 8,3 C 73 % 1023,2 hPa 0,0 l/m 2,6 km/h (1 Bft) W-NW 293 1 min 0,000 mm 1,0 UV-I 432 W/m 2,7 C 7,2 C 3,2 km/h (1 Bft) 93,33 %
06.04.2018 09:23 7,3 C 8,3 C 73 % 1023,2 hPa 0,0 l/m 1,8 km/h (1 Bft) W-NW 293 1 min 0,000 mm 1,0 UV-I 437 W/m 2,8 C 7,3 C 3,2 km/h (1 Bft) 96,55 %
06.04.2018 09:24 7,3 C 8,3 C 73 % 1023,3 hPa 0,0 l/m 1,8 km/h (1 Bft) W-NW 293 1 min 0,000 mm 1,0 UV-I 440 W/m 2,8 C 7,3 C 3,2 km/h (1 Bft) 100,00 %
06.04.2018 09:25 7,4 C 8,3 C 72 % 1023,2 hPa 0,0 l/m 2,7 km/h (1 Bft) N-NW 346 1 min 0,000 mm 1,0 UV-I 444 W/m 2,7 C 7,4 C 4,8 km/h (1 Bft) 93,10 %
06.04.2018 09:26 7,4 C 8,3 C 73 % 1023,2 hPa 0,0 l/m 3,4 km/h (1 Bft) N-NW 346 1 min 0,000 mm 1,1 UV-I 446 W/m 2,9 C 7,4 C 4,8 km/h (1 Bft) 100,00 %
06.04.2018 09:27 7,6 C 8,3 C 72 % 1023,2 hPa 0,0 l/m 3,2 km/h (1 Bft) N-NW 346 1 min 0,000 mm 1,1 UV-I 448 W/m 2,9 C 7,6 C 4,8 km/h (1 Bft) 91,30 %
06.04.2018 09:28 7,7 C 8,3 C 72 % 1023,2 hPa 0,0 l/m 2,0 km/h (1 Bft) N-NW 346 1 min 0,000 mm 1,1 UV-I 452 W/m 3,0 C 7,7 C 3,2 km/h (1 Bft) 92,59 %
06.04.2018 09:29 7,7 C 8,3 C 72 % 1023,2 hPa 0,0 l/m 2,4 km/h (1 Bft) N-NW 346 1 min 0,000 mm 1,1 UV-I 455 W/m 3,0 C 7,7 C 4,8 km/h (1 Bft) 95,65 %
06.04.2018 09:30 7,7 C 8,3 C 72 % 1023,2 hPa 0,0 l/m 3,0 km/h (1 Bft) N-NW 346 1 min 0,000 mm 1,1 UV-I 458 W/m 3,0 C 7,7 C 3,2 km/h (1 Bft) 100,00 %
06.04.2018 09:31 7,8 C 8,3 C 73 % 1023,2 hPa 0,0 l/m 1,6 km/h (1 Bft) N-NW 346 1 min 0,000 mm 1,1 UV-I 460 W/m 3,3 C 7,8 C 4,8 km/h (1 Bft) 100,00 %
06.04.2018 09:32 7,7 C 8,3 C 72 % 1023,2 hPa 0,0 l/m 0,2 km/h (0 Bft) N-NW 346 1 min 0,000 mm 1,1 UV-I 462 W/m 3,0 C 7,7 C 1,6 km/h (1 Bft) 100,00 %
06.04.2018 09:33 7,8 C 8,3 C 73 % 1023,3 hPa 0,0 l/m 3,4 km/h (1 Bft) SW 215 1 min 0,000 mm 1,1 UV-I 462 W/m 3,3 C 7,8 C 8,0 km/h (2 Bft) 95,65 %
06.04.2018 09:34 7,8 C 8,3 C 73 % 1023,2 hPa 0,0 l/m 4,5 km/h (1 Bft) W-SW 238 1 min 0,000 mm 1,1 UV-I 462 W/m 3,3 C 7,8 C 6,4 km/h (2 Bft) 100,00 %
06.04.2018 09:35 7,8 C 8,3 C 72 % 1023,2 hPa 0,0 l/m 3,7 km/h (1 Bft) SW 229 1 min 0,000 mm 1,1 UV-I 463 W/m 3,1 C 7,8 C 6,4 km/h (2 Bft) 96,15 %
06.04.2018 09:36 7,7 C 8,3 C 71 % 1023,3 hPa 0,0 l/m 4,9 km/h (1 Bft) W-SW 242 1 min 0,000 mm 1,1 UV-I 457 W/m 2,8 C 7,7 C 6,4 km/h (2 Bft) 96,30 %
06.04.2018 09:37 7,6 C 8,3 C 71 % 1023,3 hPa 0,0 l/m 3,2 km/h (1 Bft) W-SW 242 1 min 0,000 mm 1,0 UV-I 452 W/m 2,7 C 7,6 C 6,4 km/h (2 Bft) 100,00 %
06.04.2018 09:38 7,5 C 8,3 C 73 % 1023,2 hPa 0,0 l/m 7,7 km/h (2 Bft) SW 218 1 min 0,000 mm 0,9 UV-I 279 W/m 3,0 C 6,5 C 9,7 km/h (2 Bft) 100,00 %
06.04.2018 09:39 7,6 C 8,3 C 74 % 1023,2 hPa 0,0 l/m 8,4 km/h (2 Bft) SW 221 0 min 0,000 mm 1,1 UV-I 186 W/m 3,3 C 6,0 C 9,7 km/h (2 Bft) 100,00 %
06.04.2018 09:40 7,7 C 8,3 C 74 % 1023,2 hPa 0,0 l/m 7,4 km/h (2 Bft) SW 220 1 min 0,000 mm 1,2 UV-I 469 W/m 3,4 C 6,9 C 9,7 km/h (2 Bft) 95,65 %
06.04.2018 09:41 7,7 C 8,3 C 74 % 1023,2 hPa 0,0 l/m 5,3 km/h (1 Bft) SW 220 1 min 0,000 mm 1,2 UV-I 464 W/m 3,4 C 7,7 C 6,4 km/h (2 Bft) 100,00 %
06.04.2018 09:42 7,8 C 8,3 C 73 % 1023,2 hPa 0,0 l/m 3,9 km/h (1 Bft) SW 219 1 min 0,000 mm 1,2 UV-I 457 W/m 3,3 C 7,8 C 6,4 km/h (2 Bft) 100,00 %
06.04.2018 09:43 7,8 C 8,3 C 71 % 1023,2 hPa 0,0 l/m 6,2 km/h (2 Bft) S-SW 208 1 min 0,000 mm 1,1 UV-I 288 W/m 2,9 C 7,8 C 9,7 km/h (2 Bft) 100,00 %
06.04.2018 09:44 7,7 C 8,3 C 72 % 1023,2 hPa 0,0 l/m 5,8 km/h (2 Bft) SW 219 0 min 0,000 mm 1,1 UV-I 167 W/m 3,0 C 7,7 C 9,7 km/h (2 Bft) 96,15 %
06.04.2018 09:45 7,7 C 8,3 C 71 % 1023,2 hPa 0,0 l/m 4,1 km/h (1 Bft) SW 218 0 min 0,000 mm 1,1 UV-I 231 W/m 2,8 C 7,7 C 4,8 km/h (1 Bft) 100,00 %
06.04.2018 09:46 7,5 C 8,3 C 71 % 1023,2 hPa 0,0 l/m 2,9 km/h (1 Bft) S-SW 197 1 min 0,000 mm 1,3 UV-I 285 W/m 2,6 C 7,5 C 4,8 km/h (1 Bft) 96,55 %
06.04.2018 09:47 7,4 C 8,3 C 71 % 1023,2 hPa 0,0 l/m 1,7 km/h (1 Bft) S-SW 197 1 min 0,000 mm 1,3 UV-I 470 W/m 2,5 C 7,4 C 3,2 km/h (1 Bft) 100,00 %
06.04.2018 09:48 7,4 C 8,3 C 71 % 1023,2 hPa 0,0 l/m 1,6 km/h (1 Bft) S-SW 197 1 min 0,000 mm 1,3 UV-I 478 W/m 2,5 C 7,4 C 3,2 km/h (1 Bft) 100,00 %
06.04.2018 09:49 7,5 C 8,3 C 72 % 1023,2 hPa 0,0 l/m 1,2 km/h (1 Bft) S-SW 197 1 min 0,000 mm 1,3 UV-I 490 W/m 2,8 C 7,5 C 1,6 km/h (1 Bft) 100,00 %
06.04.2018 09:50 7,7 C 8,3 C 73 % 1023,2 hPa 0,0 l/m 0,2 km/h (0 Bft) S-SW 197 1 min 0,000 mm 1,3 UV-I 496 W/m 3,2 C 7,7 C 1,6 km/h (1 Bft) 96,15 %
06.04.2018 09:51 7,7 C 8,3 C 71 % 1023,2 hPa 0,0 l/m 0,1 km/h (0 Bft) S-SW 197 1 min 0,000 mm 1,3 UV-I 499 W/m 2,8 C 7,7 C 1,6 km/h (1 Bft) 100,00 %
06.04.2018 09:52 7,8 C 8,3 C 71 % 1023,2 hPa 0,0 l/m 2,5 km/h (1 Bft) S-SW 197 1 min 0,000 mm 1,1 UV-I 449 W/m 2,9 C 7,8 C 3,2 km/h (1 Bft) 95,65 %
06.04.2018 09:53 7,8 C 8,3 C 70 % 1023,2 hPa 0,0 l/m 4,2 km/h (1 Bft) NO 52 0 min 0,000 mm 1,1 UV-I 171 W/m 2,7 C 7,8 C 4,8 km/h (1 Bft) 100,00 %
06.04.2018 09:54 7,8 C 8,3 C 71 % 1023,2 hPa 0,0 l/m 4,1 km/h (1 Bft) NO 53 0 min 0,000 mm 1,0 UV-I 113 W/m 2,9 C 7,8 C 4,8 km/h (1 Bft) 92,31 %
06.04.2018 09:55 7,7 C 8,3 C 72 % 1023,2 hPa 0,0 l/m 3,8 km/h (1 Bft) NO 53 0 min 0,000 mm 1,2 UV-I 214 W/m 3,0 C 7,7 C 4,8 km/h (1 Bft) 95,83 %
06.04.2018 09:56 7,7 C 8,3 C 71 % 1023,2 hPa 0,0 l/m 2,4 km/h (1 Bft) NO 53 0 min 0,000 mm 1,1 UV-I 279 W/m 2,8 C 7,7 C 3,2 km/h (1 Bft) 94,12 %
06.04.2018 09:57 7,6 C 8,3 C 72 % 1023,2 hPa 0,0 l/m 4,5 km/h (1 Bft) NO 44 0 min 0,000 mm 1,2 UV-I 182 W/m 2,9 C 7,6 C 6,4 km/h (2 Bft) 96,30 %
06.04.2018 09:58 7,7 C 8,3 C 73 % 1023,2 hPa 0,0 l/m 5,0 km/h (1 Bft) NO 44 0 min 0,000 mm 1,1 UV-I 143 W/m 3,2 C 7,7 C 6,4 km/h (2 Bft) 100,00 %
06.04.2018 09:59 7,8 C 8,3 C 73 % 1023,2 hPa 0,0 l/m 4,6 km/h (1 Bft) NO 44 0 min 0,000 mm 1,3 UV-I 192 W/m 3,3 C 7,8 C 4,8 km/h (1 Bft) 100,00 %
06.04.2018 10:00 7,8 C 8,3 C 73 % 1023,2 hPa 0,0 l/m 3,2 km/h (1 Bft) NO 44 0 min 0,000 mm 1,1 UV-I 152 W/m 3,3 C 7,8 C 4,8 km/h (1 Bft) 91,30 %
06.04.2018 10:01 7,8 C 8,3 C 73 % 1023,2 hPa 0,0 l/m 1,8 km/h (1 Bft) NO 44 0 min 0,177 mm 1,1 UV-I 111 W/m 3,3 C 7,8 C 3,2 km/h (1 Bft) 95,83 %
06.04.2018 10:02 7,8 C 8,3 C 72 % 1023,2 hPa 0,0 l/m 1,9 km/h (1 Bft) NO 44 0 min 0,000 mm 1,3 UV-I 111 W/m 3,1 C 7,8 C 3,2 km/h (1 Bft) 100,00 %
06.04.2018 10:03 7,8 C 8,3 C 70 % 1023,2 hPa 0,0 l/m 0,1 km/h (0 Bft) NO 44 1 min 0,000 mm 1,3 UV-I 439 W/m 2,7 C 7,8 C 1,6 km/h (1 Bft) 96,15 %
06.04.2018 10:04 7,8 C 8,3 C 70 % 1023,2 hPa 0,0 l/m 0,4 km/h (0 Bft) NO 44 1 min 0,000 mm 1,4 UV-I 469 W/m 2,7 C 7,8 C 1,6 km/h (1 Bft) 100,00 %
06.04.2018 10:05 7,8 C 8,3 C 70 % 1023,2 hPa 0,0 l/m 3,2 km/h (1 Bft) W-SW 256 1 min 0,000 mm 1,2 UV-I 331 W/m 2,7 C 7,8 C 4,8 km/h (1 Bft) 95,83 %
06.04.2018 10:06 7,7 C 8,3 C 70 % 1023,2 hPa 0,0 l/m 4,2 km/h (1 Bft) W-SW 254 0 min 0,000 mm 1,2 UV-I 100 W/m 2,6 C 7,7 C 4,8 km/h (1 Bft) 91,67 %
06.04.2018 10:07 7,7 C 8,3 C 69 % 1023,2 hPa 0,0 l/m 2,4 km/h (1 Bft) W-SW 254 0 min 0,000 mm 1,5 UV-I 100 W/m 2,4 C 7,7 C 3,2 km/h (1 Bft) 96,15 %
06.04.2018 10:08 7,7 C 8,3 C 70 % 1023,2 hPa 0,0 l/m 1,9 km/h (1 Bft) W-SW 254 0 min 0,000 mm 1,4 UV-I 100 W/m 2,6 C 7,7 C 3,2 km/h (1 Bft) 100,00 %
06.04.2018 10:09 7,7 C 8,3 C 70 % 1023,2 hPa 0,0 l/m 3,0 km/h (1 Bft) W-SW 254 0 min 0,000 mm 1,3 UV-I 100 W/m 2,6 C 7,7 C 6,4 km/h (2 Bft) 93,75 %
06.04.2018 10:10 7,8 C 8,3 C 71 % 1023,2 hPa 0,0 l/m 4,1 km/h (1 Bft) W-SW 254 0 min 0,000 mm 1,6 UV-I 212 W/m 2,9 C 7,8 C 6,4 km/h (2 Bft) 95,83 %
06.04.2018 10:11 7,8 C 8,3 C 69 % 1023,2 hPa 0,0 l/m 3,7 km/h (1 Bft) NW 317 1 min 0,000 mm 1,6 UV-I 541 W/m 2,5 C 7,8 C 6,4 km/h (2 Bft) 100,00 %
06.04.2018 10:12 7,8 C 8,3 C 69 % 1023,2 hPa 0,0 l/m 3,2 km/h (1 Bft) NW 317 1 min 0,000 mm 1,5 UV-I 541 W/m 2,5 C 7,8 C 4,8 km/h (1 Bft) 96,30 %
06.04.2018 10:13 7,8 C 8,3 C 68 % 1023,2 hPa 0,0 l/m 1,2 km/h (1 Bft) NW 317 1 min 0,000 mm 1,5 UV-I 526 W/m 2,3 C 7,8 C 3,2 km/h (1 Bft) 100,00 %
06.04.2018 10:14 7,8 C 8,3 C 69 % 1023,2 hPa 0,0 l/m 0,1 km/h (0 Bft) NW 317 1 min 0,000 mm 1,5 UV-I 453 W/m 2,5 C 7,8 C 1,6 km/h (1 Bft) 91,67 %
06.04.2018 10:15 8,0 C 8,3 C 69 % 1023,1 hPa 0,0 l/m 1,4 km/h (1 Bft) NW 317 1 min 0,000 mm 1,6 UV-I 451 W/m 2,7 C 8,0 C 3,2 km/h (1 Bft) 100,00 %
06.04.2018 10:16 8,2 C 8,3 C 70 % 1023,2 hPa 0,0 l/m 3,0 km/h (1 Bft) NW 317 1 min 0,000 mm 1,6 UV-I 557 W/m 3,1 C 8,2 C 3,2 km/h (1 Bft) 91,67 %
06.04.2018 10:17 8,4 C 8,3 C 71 % 1023,2 hPa 0,0 l/m 2,3 km/h (1 Bft) NW 317 1 min 0,000 mm 1,3 UV-I 557 W/m 3,5 C 8,4 C 3,2 km/h (1 Bft) 100,00 %
06.04.2018 10:18 8,4 C 8,3 C 67 % 1023,2 hPa 0,0 l/m 1,3 km/h (1 Bft) NW 317 1 min 0,000 mm 1,3 UV-I 557 W/m 2,6 C 8,4 C 1,6 km/h (1 Bft) 95,83 %
06.04.2018 10:19 8,4 C 8,3 C 66 % 1023,2 hPa 0,0 l/m 0,9 km/h (0 Bft) NW 317 1 min 0,000 mm 1,4 UV-I 557 W/m 2,4 C 8,4 C 1,6 km/h (1 Bft) 96,15 %
06.04.2018 10:20 8,2 C 8,3 C 66 % 1023,2 hPa 0,0 l/m 2,9 km/h (1 Bft) NW 317 1 min 0,000 mm 1,4 UV-I 557 W/m 2,2 C 8,2 C 4,8 km/h (1 Bft) 100,00 %
06.04.2018 10:21 8,1 C 8,3 C 67 % 1023,2 hPa 0,0 l/m 2,8 km/h (1 Bft) NW 317 1 min 0,000 mm 1,4 UV-I 557 W/m 2,3 C 8,1 C 4,8 km/h (1 Bft) 100,00 %
06.04.2018 10:22 8,1 C 8,3 C 67 % 1023,2 hPa 0,0 l/m 1,7 km/h (1 Bft) NW 317 1 min 0,000 mm 1,6 UV-I 557 W/m 2,3 C 8,1 C 3,2 km/h (1 Bft) 95,65 %
06.04.2018 10:23 8,1 C 8,3 C 66 % 1023,2 hPa 0,0 l/m 1,9 km/h (1 Bft) NW 317 1 min 0,000 mm 1,2 UV-I 360 W/m 2,1 C 8,1 C 3,2 km/h (1 Bft) 95,83 %
06.04.2018 10:24 8,2 C 8,3 C 68 % 1023,2 hPa 0,0 l/m 1,9 km/h (1 Bft) NW 317 0 min 0,000 mm 1,2 UV-I 97 W/m 2,7 C 8,2 C 3,2 km/h (1 Bft) 100,00 %
06.04.2018 10:25 8,2 C 8,3 C 68 % 1023,2 hPa 0,0 l/m 0,6 km/h (0 Bft) NW 317 0 min 0,000 mm 1,2 UV-I 90 W/m 2,7 C 8,2 C 1,6 km/h (1 Bft) 95,83 %
06.04.2018 10:26 8,3 C 8,3 C 69 % 1023,2 hPa 0,0 l/m 1,8 km/h (1 Bft) NW 317 0 min 0,000 mm 1,2 UV-I 99 W/m 3,0 C 8,3 C 3,2 km/h (1 Bft) 100,00 %
06.04.2018 10:27 8,2 C 8,3 C 69 % 1023,3 hPa 0,0 l/m 3,6 km/h (1 Bft) NW 317 0 min 0,000 mm 1,5 UV-I 100 W/m 2,9 C 8,2 C 4,8 km/h (1 Bft) 96,30 %
06.04.2018 10:28 8,3 C 8,3 C 70 % 1023,3 hPa 0,0 l/m 5,4 km/h (1 Bft) N-NW 338 0 min 0,000 mm 1,2 UV-I 97 W/m 3,2 C 8,3 C 6,4 km/h (2 Bft) 100,00 %
06.04.2018 10:29 8,2 C 8,3 C 69 % 1023,2 hPa 0,0 l/m 3,5 km/h (1 Bft) N-NW 338 0 min 0,000 mm 1,2 UV-I 92 W/m 2,9 C 8,2 C 4,8 km/h (1 Bft) 93,33 %
06.04.2018 10:30 8,1 C 8,3 C 68 % 1023,2 hPa 0,0 l/m 3,3 km/h (1 Bft) N-NW 338 0 min 0,000 mm 1,2 UV-I 91 W/m 2,6 C 8,1 C 4,8 km/h (1 Bft) 95,65 %
06.04.2018 10:31 8,1 C 8,3 C 68 % 1023,3 hPa 0,0 l/m 3,5 km/h (1 Bft) N-NW 338 0 min 0,000 mm 1,3 UV-I 92 W/m 2,6 C 8,1 C 6,4 km/h (2 Bft) 95,83 %
06.04.2018 10:32 8,0 C 8,3 C 69 % 1023,3 hPa 0,0 l/m 4,2 km/h (1 Bft) N-NW 338 0 min 0,000 mm 1,3 UV-I 111 W/m 2,7 C 8,0 C 4,8 km/h (1 Bft) 100,00 %
06.04.2018 10:33 7,9 C 8,3 C 69 % 1023,2 hPa 0,0 l/m 4,0 km/h (1 Bft) N-NW 339 0 min 0,000 mm 1,8 UV-I 114 W/m 2,6 C 7,9 C 4,8 km/h (1 Bft) 96,30 %
06.04.2018 10:34 8,0 C 8,3 C 67 % 1023,2 hPa 0,0 l/m 2,5 km/h (1 Bft) N-NW 338 0 min 0,000 mm 1,9 UV-I 305 W/m 2,3 C 8,0 C 4,8 km/h (1 Bft) 96,15 %
06.04.2018 10:35 8,1 C 8,3 C 68 % 1023,3 hPa 0,0 l/m 2,4 km/h (1 Bft) N-NW 338 1 min 0,000 mm 1,9 UV-I 633 W/m 2,6 C 8,1 C 4,8 km/h (1 Bft) 95,83 %
06.04.2018 10:36 8,1 C 8,3 C 69 % 1023,2 hPa 0,0 l/m 3,8 km/h (1 Bft) N-NW 339 1 min 0,000 mm 1,9 UV-I 633 W/m 2,8 C 8,1 C 6,4 km/h (2 Bft) 91,30 %
06.04.2018 10:37 8,2 C 8,3 C 68 % 1023,2 hPa 0,0 l/m 4,3 km/h (1 Bft) N-NW 339 1 min 0,000 mm 1,9 UV-I 634 W/m 2,7 C 8,2 C 6,4 km/h (2 Bft) 95,83 %
06.04.2018 10:38 8,3 C 8,3 C 69 % 1023,2 hPa 0,0 l/m 2,9 km/h (1 Bft) N-NW 338 1 min 0,000 mm 1,5 UV-I 609 W/m 3,0 C 8,3 C 4,8 km/h (1 Bft) 92,31 %
06.04.2018 10:39 8,3 C 8,3 C 68 % 1023,2 hPa 0,0 l/m 1,1 km/h (1 Bft) N-NW 339 0 min 0,000 mm 1,3 UV-I 110 W/m 2,7 C 8,3 C 1,6 km/h (1 Bft) 100,00 %
06.04.2018 10:40 8,3 C 8,3 C 66 % 1023,2 hPa 0,0 l/m 0,2 km/h (0 Bft) N-NW 339 0 min 0,000 mm 1,3 UV-I 133 W/m 2,3 C 8,3 C 1,6 km/h (1 Bft) 91,67 %
06.04.2018 10:41 8,3 C 8,3 C 66 % 1023,2 hPa 0,0 l/m 0,0 km/h (0 Bft) N-NW 339 0 min 0,000 mm 1,4 UV-I 143 W/m 2,3 C 8,3 C 0,0 km/h (0 Bft) 92,31 %
06.04.2018 10:42 8,2 C 8,3 C 64 % 1023,2 hPa 0,0 l/m 0,0 km/h (0 Bft) N-NW 339 0 min 0,000 mm 1,3 UV-I 128 W/m 1,8 C 8,2 C 0,0 km/h (0 Bft) 93,33 %
06.04.2018 10:43 8,1 C 8,3 C 64 % 1023,2 hPa 0,0 l/m 0,2 km/h (0 Bft) N-NW 339 0 min 0,000 mm 1,3 UV-I 112 W/m 1,7 C 8,1 C 1,6 km/h (1 Bft) 96,15 %
06.04.2018 10:44 8,0 C 8,3 C 65 % 1023,2 hPa 0,0 l/m 1,4 km/h (1 Bft) N-NW 338 0 min 0,000 mm 1,3 UV-I 113 W/m 1,8 C 8,0 C 3,2 km/h (1 Bft) 91,67 %
06.04.2018 10:45 7,9 C 8,3 C 65 % 1023,2 hPa 0,0 l/m 2,0 km/h (1 Bft) N-NW 338 0 min 0,000 mm 1,4 UV-I 137 W/m 1,7 C 7,9 C 3,2 km/h (1 Bft) 96,55 %
06.04.2018 10:46 7,8 C 8,3 C 65 % 1023,2 hPa 0,0 l/m 2,1 km/h (1 Bft) N-NW 340 0 min 0,000 mm 1,5 UV-I 137 W/m 1,6 C 7,8 C 3,2 km/h (1 Bft) 95,83 %
06.04.2018 10:47 7,8 C 8,3 C 65 % 1023,2 hPa 0,0 l/m 2,4 km/h (1 Bft) N-NW 340 1 min 0,000 mm 2,1 UV-I 392 W/m 1,6 C 7,8 C 3,2 km/h (1 Bft) 88,46 %
06.04.2018 10:48 8,1 C 8,3 C 68 % 1023,2 hPa 0,0 l/m 2,5 km/h (1 Bft) N-NW 340 1 min 0,000 mm 2,2 UV-I 677 W/m 2,6 C 8,1 C 3,2 km/h (1 Bft) 100,00 %
06.04.2018 10:49 8,3 C 8,3 C 66 % 1023,2 hPa 0,0 l/m 2,8 km/h (1 Bft) N-NW 339 1 min 0,000 mm 2,1 UV-I 676 W/m 2,3 C 8,3 C 3,2 km/h (1 Bft) 92,31 %
06.04.2018 10:50 8,5 C 8,3 C 66 % 1023,2 hPa 0,0 l/m 1,6 km/h (1 Bft) N-NW 339 1 min 0,000 mm 2,2 UV-I 665 W/m 2,5 C 8,5 C 3,2 km/h (1 Bft) 100,00 %
06.04.2018 10:51 8,6 C 8,3 C 61 % 1023,2 hPa 0,0 l/m 1,4 km/h (1 Bft) N-NW 339 1 min 0,000 mm 2,2 UV-I 666 W/m 1,5 C 8,6 C 3,2 km/h (1 Bft) 91,30 %
06.04.2018 10:52 8,6 C 8,3 C 62 % 1023,2 hPa 0,0 l/m 1,9 km/h (1 Bft) N-NW 339 1 min 0,000 mm 2,2 UV-I 668 W/m 1,7 C 8,6 C 3,2 km/h (1 Bft) 100,00 %
06.04.2018 10:53 8,7 C 8,3 C 62 % 1023,2 hPa 0,0 l/m 2,5 km/h (1 Bft) N-NW 339 1 min 0,000 mm 2,2 UV-I 670 W/m 1,8 C 8,7 C 3,2 km/h (1 Bft) 88,46 %
06.04.2018 10:54 8,7 C 8,3 C 61 % 1023,2 hPa 0,0 l/m 1,9 km/h (1 Bft) N-NW 339 1 min 0,000 mm 2,2 UV-I 673 W/m 1,6 C 8,7 C 4,8 km/h (1 Bft) 96,30 %
06.04.2018 10:55 8,8 C 8,3 C 62 % 1023,2 hPa 0,0 l/m 4,1 km/h (1 Bft) W-NW 296 1 min 0,000 mm 2,2 UV-I 673 W/m 1,9 C 8,8 C 6,4 km/h (2 Bft) 92,86 %
06.04.2018 10:56 8,8 C 8,3 C 58 % 1023,2 hPa 0,0 l/m 3,6 km/h (1 Bft) N-NW 331 1 min 0,000 mm 2,3 UV-I 671 W/m 1,0 C 8,8 C 8,0 km/h (2 Bft) 100,00 %
06.04.2018 10:57 8,9 C 8,3 C 58 % 1023,2 hPa 0,0 l/m 9,3 km/h (2 Bft) NW 318 1 min 0,000 mm 2,3 UV-I 669 W/m 1,1 C 6,8 C 12,9 km/h (3 Bft) 88,46 %
06.04.2018 10:58 9,0 C 8,3 C 58 % 1023,2 hPa 0,0 l/m 5,5 km/h (1 Bft) NW 318 1 min 0,000 mm 2,3 UV-I 667 W/m 1,2 C 9,0 C 6,4 km/h (2 Bft) 92,59 %
06.04.2018 10:59 9,0 C 8,3 C 59 % 1023,2 hPa 0,0 l/m 4,8 km/h (1 Bft) N-NW 327 1 min 0,000 mm 2,2 UV-I 665 W/m 1,4 C 9,0 C 6,4 km/h (2 Bft) 100,00 %
06.04.2018 11:00 9,1 C 8,3 C 58 % 1023,2 hPa 0,0 l/m 4,4 km/h (1 Bft) N-NW 327 1 min 0,000 mm 2,3 UV-I 664 W/m 1,3 C 9,1 C 8,0 km/h (2 Bft) 87,50 %
06.04.2018 11:01 9,1 C 8,3 C 58 % 1023,2 hPa 0,0 l/m 3,2 km/h (1 Bft) N-NW 329 1 min 0,178 mm 2,3 UV-I 663 W/m 1,3 C 9,1 C 6,4 km/h (2 Bft) 100,00 %
06.04.2018 11:02 9,1 C 8,3 C 58 % 1023,2 hPa 0,0 l/m 5,7 km/h (1 Bft) NW 311 1 min 0,000 mm 2,3 UV-I 664 W/m 1,3 C 9,1 C 8,0 km/h (2 Bft) 96,55 %
06.04.2018 11:03 9,2 C 8,3 C 58 % 1023,2 hPa 0,0 l/m 3,9 km/h (1 Bft) NW 311 1 min 0,000 mm 2,3 UV-I 665 W/m 1,4 C 9,2 C 6,4 km/h (2 Bft) 100,00 %
06.04.2018 11:04 9,3 C 8,3 C 56 % 1023,3 hPa 0,0 l/m 2,5 km/h (1 Bft) NW 306 1 min 0,000 mm 2,3 UV-I 670 W/m 1,0 C 9,3 C 3,2 km/h (1 Bft) 100,00 %
06.04.2018 11:05 9,2 C 8,3 C 55 % 1023,2 hPa 0,0 l/m 2,0 km/h (1 Bft) NW 306 1 min 0,000 mm 2,3 UV-I 677 W/m 0,6 C 9,2 C 3,2 km/h (1 Bft) 100,00 %
06.04.2018 11:06 9,3 C 8,3 C 54 % 1023,2 hPa 0,0 l/m 0,9 km/h (0 Bft) NW 306 1 min 0,000 mm 2,3 UV-I 681 W/m 0,5 C 9,3 C 1,6 km/h (1 Bft) 96,43 %
06.04.2018 11:07 9,3 C 8,3 C 54 % 1023,2 hPa 0,0 l/m 1,4 km/h (1 Bft) NW 306 1 min 0,000 mm 2,4 UV-I 684 W/m 0,5 C 9,3 C 3,2 km/h (1 Bft) 100,00 %
06.04.2018 11:08 9,3 C 8,3 C 55 % 1023,3 hPa 0,0 l/m 4,5 km/h (1 Bft) W 271 1 min 0,000 mm 2,4 UV-I 688 W/m 0,7 C 9,3 C 6,4 km/h (2 Bft) 100,00 %
06.04.2018 11:09 9,2 C 8,3 C 57 % 1023,2 hPa 0,0 l/m 2,4 km/h (1 Bft) W 271 1 min 0,000 mm 2,4 UV-I 692 W/m 1,1 C 9,2 C 3,2 km/h (1 Bft) 100,00 %
06.04.2018 11:10 9,2 C 8,3 C 56 % 1023,2 hPa 0,0 l/m 2,5 km/h (1 Bft) W 271 1 min 0,000 mm 2,4 UV-I 694 W/m 0,9 C 9,2 C 3,2 km/h (1 Bft) 100,00 %
06.04.2018 11:11 9,1 C 8,3 C 56 % 1023,2 hPa 0,0 l/m 4,0 km/h (1 Bft) W 261 1 min 0,000 mm 2,4 UV-I 698 W/m 0,8 C 9,1 C 6,4 km/h (2 Bft) 100,00 %
06.04.2018 11:12 9,1 C 8,3 C 57 % 1023,2 hPa 0,0 l/m 4,5 km/h (1 Bft) W 260 1 min 0,000 mm 2,5 UV-I 702 W/m 1,0 C 9,1 C 4,8 km/h (1 Bft) 100,00 %
06.04.2018 11:13 9,1 C 8,3 C 57 % 1023,2 hPa 0,0 l/m 3,9 km/h (1 Bft) W 261 1 min 0,000 mm 2,5 UV-I 708 W/m 1,0 C 9,1 C 6,4 km/h (2 Bft) 100,00 %
06.04.2018 11:14 9,1 C 8,3 C 57 % 1023,2 hPa 0,0 l/m 3,2 km/h (1 Bft) N 355 1 min 0,000 mm 2,5 UV-I 719 W/m 1,0 C 9,1 C 6,4 km/h (2 Bft) 100,00 %
06.04.2018 11:15 9,3 C 8,3 C 60 % 1023,2 hPa 0,0 l/m 4,6 km/h (1 Bft) N-NO 13 1 min 0,000 mm 2,5 UV-I 732 W/m 1,9 C 9,3 C 6,4 km/h (2 Bft) 100,00 %
06.04.2018 11:16 9,6 C 8,3 C 60 % 1023,2 hPa 0,0 l/m 3,5 km/h (1 Bft) NW 315 1 min 0,000 mm 2,5 UV-I 737 W/m 2,2 C 9,6 C 4,8 km/h (1 Bft) 100,00 %
06.04.2018 11:17 9,7 C 8,3 C 59 % 1023,2 hPa 0,0 l/m 5,0 km/h (1 Bft) W-NW 302 1 min 0,000 mm 2,4 UV-I 737 W/m 2,1 C 9,7 C 8,0 km/h (2 Bft) 96,30 %
06.04.2018 11:18 9,8 C 8,3 C 58 % 1023,2 hPa 0,0 l/m 6,4 km/h (2 Bft) NW 319 1 min 0,000 mm 2,5 UV-I 737 W/m 1,9 C 9,8 C 8,0 km/h (2 Bft) 100,00 %
06.04.2018 11:19 9,7 C 8,3 C 58 % 1023,2 hPa 0,0 l/m 5,4 km/h (1 Bft) W 277 1 min 0,000 mm 2,5 UV-I 758 W/m 1,8 C 9,7 C 9,7 km/h (2 Bft) 100,00 %
06.04.2018 11:20 9,7 C 8,3 C 58 % 1023,2 hPa 0,0 l/m 4,4 km/h (1 Bft) W-NW 290 1 min 0,000 mm 1,8 UV-I 758 W/m 1,8 C 9,7 C 4,8 km/h (1 Bft) 100,00 %
06.04.2018 11:21 9,7 C 8,3 C 60 % 1023,2 hPa 0,0 l/m 3,8 km/h (1 Bft) N-NW 339 1 min 0,000 mm 2,0 UV-I 758 W/m 2,3 C 9,7 C 4,8 km/h (1 Bft) 96,15 %
06.04.2018 11:22 9,8 C 8,3 C 61 % 1023,2 hPa 0,0 l/m 6,1 km/h (2 Bft) NO 55 1 min 0,000 mm 2,3 UV-I 758 W/m 2,6 C 9,8 C 8,0 km/h (2 Bft) 100,00 %
06.04.2018 11:23 9,9 C 8,3 C 61 % 1023,2 hPa 0,0 l/m 7,6 km/h (2 Bft) O-SO 106 1 min 0,000 mm 2,4 UV-I 758 W/m 2,7 C 9,0 C 11,3 km/h (2 Bft) 100,00 %
06.04.2018 11:24 9,9 C 8,3 C 59 % 1023,2 hPa 0,0 l/m 4,7 km/h (1 Bft) O-NO 69 1 min 0,000 mm 2,6 UV-I 806 W/m 2,3 C 9,9 C 6,4 km/h (2 Bft) 100,00 %
06.04.2018 11:25 9,9 C 8,3 C 59 % 1023,2 hPa 0,0 l/m 3,9 km/h (1 Bft) O 101 1 min 0,000 mm 2,7 UV-I 824 W/m 2,3 C 9,9 C 4,8 km/h (1 Bft) 95,65 %
06.04.2018 11:26 9,8 C 8,3 C 58 % 1023,2 hPa 0,0 l/m 3,4 km/h (1 Bft) NO 37 1 min 0,000 mm 2,7 UV-I 819 W/m 1,9 C 9,8 C 4,8 km/h (1 Bft) 100,00 %
06.04.2018 11:27 9,9 C 8,3 C 60 % 1023,2 hPa 0,0 l/m 3,7 km/h (1 Bft) N-NO 30 1 min 0,000 mm 2,5 UV-I 784 W/m 2,5 C 9,9 C 6,4 km/h (2 Bft) 100,00 %
06.04.2018 11:28 9,7 C 8,3 C 57 % 1023,2 hPa 0,0 l/m 3,9 km/h (1 Bft) N 350 1 min 0,000 mm 2,1 UV-I 784 W/m 1,6 C 9,7 C 6,4 km/h (2 Bft) 100,00 %
06.04.2018 11:29 9,7 C 8,3 C 58 % 1023,2 hPa 0,0 l/m 3,6 km/h (1 Bft) N 5 1 min 0,000 mm 2,6 UV-I 784 W/m 1,8 C 9,7 C 8,0 km/h (2 Bft) 100,00 %
06.04.2018 11:30 9,8 C 8,3 C 58 % 1023,2 hPa 0,0 l/m 8,9 km/h (2 Bft) NO 44 1 min 0,000 mm 2,6 UV-I 784 W/m 1,9 C 8,0 C 12,9 km/h (3 Bft) 100,00 %
06.04.2018 11:31 10,0 C 8,3 C 59 % 1023,2 hPa 0,0 l/m 10,9 km/h (2 Bft) N-NO 26 1 min 0,000 mm 2,6 UV-I 808 W/m 2,4 C 7,1 C 16,1 km/h (3 Bft) 92,86 %
06.04.2018 11:32 10,2 C 8,3 C 61 % 1023,2 hPa 0,0 l/m 14,3 km/h (3 Bft) N 11 1 min 0,000 mm 2,6 UV-I 802 W/m 3,0 C 5,7 C 17,7 km/h (3 Bft) 100,00 %
06.04.2018 11:33 10,2 C 8,3 C 62 % 1023,1 hPa 0,0 l/m 9,7 km/h (2 Bft) N-NO 33 1 min 0,000 mm 2,5 UV-I 805 W/m 3,3 C 8,0 C 16,1 km/h (3 Bft) 100,00 %
06.04.2018 11:34 10,3 C 8,3 C 62 % 1023,2 hPa 0,0 l/m 8,5 km/h (2 Bft) NO 43 1 min 0,000 mm 2,2 UV-I 817 W/m 3,3 C 8,8 C 12,9 km/h (3 Bft) 96,30 %
06.04.2018 11:35 10,3 C 8,3 C 60 % 1023,2 hPa 0,0 l/m 7,8 km/h (2 Bft) N 350 1 min 0,000 mm 2,6 UV-I 817 W/m 2,9 C 9,3 C 12,9 km/h (3 Bft) 100,00 %
06.04.2018 11:36 10,3 C 8,3 C 55 % 1023,2 hPa 0,0 l/m 7,0 km/h (2 Bft) NW 306 1 min 0,000 mm 2,6 UV-I 751 W/m 1,7 C 9,9 C 12,9 km/h (3 Bft) 100,00 %
06.04.2018 11:37 10,3 C 8,3 C 54 % 1023,2 hPa 0,0 l/m 8,6 km/h (2 Bft) N-NW 337 1 min 0,000 mm 2,5 UV-I 721 W/m 1,4 C 8,8 C 12,9 km/h (3 Bft) 100,00 %
06.04.2018 11:38 10,2 C 8,3 C 53 % 1023,2 hPa 0,0 l/m 5,8 km/h (2 Bft) NW 325 1 min 0,000 mm 2,6 UV-I 713 W/m 1,1 C 10,2 C 6,4 km/h (2 Bft) 100,00 %
06.04.2018 11:39 10,2 C 8,3 C 55 % 1023,2 hPa 0,0 l/m 10,5 km/h (2 Bft) N-NO 16 1 min 0,000 mm 2,6 UV-I 721 W/m 1,6 C 7,5 C 14,5 km/h (3 Bft) 100,00 %
06.04.2018 11:40 10,2 C 8,3 C 58 % 1023,1 hPa 0,0 l/m 10,4 km/h (2 Bft) N-NO 33 1 min 0,000 mm 2,2 UV-I 721 W/m 2,3 C 7,6 C 16,1 km/h (3 Bft) 100,00 %
06.04.2018 11:41 10,1 C 8,3 C 59 % 1023,2 hPa 0,0 l/m 10,4 km/h (2 Bft) N-NO 23 0 min 0,000 mm 2,0 UV-I 331 W/m 2,5 C 7,5 C 12,9 km/h (3 Bft) 100,00 %
06.04.2018 11:42 9,9 C 8,3 C 58 % 1023,2 hPa 0,0 l/m 9,2 km/h (2 Bft) NO 36 0 min 0,000 mm 2,4 UV-I 262 W/m 2,0 C 8,0 C 12,9 km/h (3 Bft) 100,00 %
06.04.2018 11:43 9,9 C 8,3 C 60 % 1023,1 hPa 0,0 l/m 11,0 km/h (2 Bft) N-NO 27 0 min 0,000 mm 2,8 UV-I 341 W/m 2,5 C 6,9 C 12,9 km/h (3 Bft) 100,00 %
06.04.2018 11:44 10,1 C 8,3 C 58 % 1023,2 hPa 0,0 l/m 11,1 km/h (2 Bft) N-NO 19 1 min 0,000 mm 2,8 UV-I 757 W/m 2,2 C 7,1 C 12,9 km/h (3 Bft) 100,00 %
06.04.2018 11:45 10,1 C 8,3 C 61 % 1023,2 hPa 0,0 l/m 11,8 km/h (2 Bft) N-NO 29 1 min 0,000 mm 2,8 UV-I 738 W/m 2,9 C 6,7 C 12,9 km/h (3 Bft) 92,59 %
06.04.2018 11:46 10,2 C 8,3 C 61 % 1023,2 hPa 0,0 l/m 8,8 km/h (2 Bft) N-NO 17 1 min 0,000 mm 2,7 UV-I 751 W/m 3,0 C 8,5 C 12,9 km/h (3 Bft) 100,00 %
06.04.2018 11:47 10,3 C 8,3 C 62 % 1023,2 hPa 0,0 l/m 9,5 km/h (2 Bft) N-NO 30 1 min 0,000 mm 2,7 UV-I 782 W/m 3,3 C 8,2 C 16,1 km/h (3 Bft) 96,30 %
06.04.2018 11:48 10,3 C 8,3 C 61 % 1023,1 hPa 0,0 l/m 13,7 km/h (3 Bft) NO 45 1 min 0,000 mm 2,7 UV-I 784 W/m 3,1 C 6,1 C 17,7 km/h (3 Bft) 90,91 %
06.04.2018 11:49 10,3 C 8,3 C 59 % 1023,1 hPa 0,0 l/m 7,3 km/h (2 Bft) N-NO 17 1 min 0,000 mm 2,2 UV-I 628 W/m 2,6 C 9,7 C 11,3 km/h (2 Bft) 100,00 %
06.04.2018 11:50 10,3 C 8,3 C 58 % 1023,1 hPa 0,0 l/m 8,4 km/h (2 Bft) O-NO 63 1 min 0,000 mm 2,5 UV-I 601 W/m 2,4 C 8,9 C 11,3 km/h (2 Bft) 100,00 %
06.04.2018 11:51 10,3 C 8,3 C 62 % 1023,2 hPa 0,0 l/m 6,5 km/h (2 Bft) O-NO 78 1 min 0,000 mm 2,8 UV-I 690 W/m 3,3 C 10,3 C 9,7 km/h (2 Bft) 100,00 %
06.04.2018 11:52 10,4 C 8,3 C 60 % 1023,1 hPa 0,0 l/m 8,0 km/h (2 Bft) O-NO 65 1 min 0,000 mm 2,9 UV-I 795 W/m 3,0 C 9,3 C 11,3 km/h (2 Bft) 100,00 %
06.04.2018 11:53 10,5 C 8,3 C 59 % 1023,1 hPa 0,0 l/m 8,9 km/h (2 Bft) NO 45 1 min 0,000 mm 2,9 UV-I 792 W/m 2,8 C 8,8 C 11,3 km/h (2 Bft) 100,00 %
06.04.2018 11:54 10,6 C 8,3 C 59 % 1023,1 hPa 0,0 l/m 6,7 km/h (2 Bft) NO 44 1 min 0,000 mm 2,9 UV-I 781 W/m 2,9 C 10,4 C 11,3 km/h (2 Bft) 100,00 %
06.04.2018 11:55 10,7 C 8,3 C 61 % 1023,1 hPa 0,0 l/m 9,4 km/h (2 Bft) O-NO 61 1 min 0,000 mm 2,9 UV-I 778 W/m 3,5 C 8,7 C 12,9 km/h (3 Bft) 100,00 %
06.04.2018 11:56 10,6 C 8,3 C 59 % 1023,2 hPa 0,0 l/m 5,9 km/h (2 Bft) NO 45 1 min 0,000 mm 2,9 UV-I 773 W/m 2,9 C 10,6 C 8,0 km/h (2 Bft) 100,00 %
06.04.2018 11:57 10,6 C 8,3 C 57 % 1023,1 hPa 0,0 l/m 8,7 km/h (2 Bft) NO 53 1 min 0,000 mm 2,9 UV-I 777 W/m 2,4 C 9,0 C 11,3 km/h (2 Bft) 100,00 %
06.04.2018 11:58 10,7 C 8,3 C 62 % 1023,2 hPa 0,0 l/m 6,4 km/h (2 Bft) O 80 1 min 0,000 mm 2,9 UV-I 779 W/m 3,7 C 10,7 C 9,7 km/h (2 Bft) 100,00 %
06.04.2018 11:59 10,5 C 8,3 C 53 % 1023,2 hPa 0,0 l/m 2,7 km/h (1 Bft) SO 137 1 min 0,000 mm 2,9 UV-I 774 W/m 1,3 C 10,5 C 4,8 km/h (1 Bft) 100,00 %
06.04.2018 12:00 10,3 C 8,3 C 55 % 1023,1 hPa 0,0 l/m 5,3 km/h (1 Bft) N-NO 19 1 min 0,000 mm 2,9 UV-I 768 W/m 1,7 C 10,3 C 9,7 km/h (2 Bft) 100,00 %
06.04.2018 12:01 10,2 C 8,3 C 57 % 1023,1 hPa 0,0 l/m 3,5 km/h (1 Bft) N 5 1 min 0,330 mm 2,9 UV-I 766 W/m 2,1 C 10,2 C 4,8 km/h (1 Bft) 100,00 %
06.04.2018 12:02 10,1 C 8,3 C 53 % 1023,1 hPa 0,0 l/m 6,3 km/h (2 Bft) NW 325 1 min 0,000 mm 2,9 UV-I 766 W/m 1,0 C 10,1 C 9,7 km/h (2 Bft) 100,00 %
06.04.2018 12:03 10,1 C 8,3 C 55 % 1023,0 hPa 0,0 l/m 5,5 km/h (1 Bft) N 355 1 min 0,000 mm 2,9 UV-I 766 W/m 1,5 C 10,1 C 9,7 km/h (2 Bft) 100,00 %
06.04.2018 12:04 10,1 C 8,3 C 56 % 1023,1 hPa 0,0 l/m 2,8 km/h (1 Bft) N 355 1 min 0,000 mm 3,0 UV-I 769 W/m 1,7 C 10,1 C 4,8 km/h (1 Bft) 100,00 %
06.04.2018 12:05 10,2 C 8,3 C 58 % 1023,1 hPa 0,0 l/m 3,2 km/h (1 Bft) NO 50 1 min 0,000 mm 3,0 UV-I 770 W/m 2,3 C 10,2 C 8,0 km/h (2 Bft) 95,65 %
06.04.2018 12:06 10,3 C 8,3 C 55 % 1023,1 hPa 0,0 l/m 8,5 km/h (2 Bft) O-NO 73 1 min 0,000 mm 3,0 UV-I 765 W/m 1,7 C 8,8 C 12,9 km/h (3 Bft) 95,83 %
06.04.2018 12:07 10,3 C 8,3 C 54 % 1023,1 hPa 0,0 l/m 8,8 km/h (2 Bft) O 95 1 min 0,000 mm 3,0 UV-I 759 W/m 1,4 C 8,6 C 14,5 km/h (3 Bft) 96,15 %
06.04.2018 12:08 10,3 C 8,3 C 52 % 1023,1 hPa 0,0 l/m 7,5 km/h (2 Bft) O-NO 71 1 min 0,000 mm 3,0 UV-I 763 W/m 0,9 C 9,5 C 9,7 km/h (2 Bft) 93,33 %
06.04.2018 12:09 10,4 C 8,3 C 54 % 1023,1 hPa 0,0 l/m 8,0 km/h (2 Bft) O-SO 107 1 min 0,000 mm 3,0 UV-I 764 W/m 1,5 C 9,3 C 9,7 km/h (2 Bft) 100,00 %
06.04.2018 12:10 10,2 C 8,3 C 51 % 1023,0 hPa 0,0 l/m 5,5 km/h (1 Bft) O-SO 123 1 min 0,000 mm 3,0 UV-I 766 W/m 0,5 C 10,2 C 11,3 km/h (2 Bft) 96,30 %
06.04.2018 12:11 10,2 C 8,3 C 53 % 1023,0 hPa 0,0 l/m 2,9 km/h (1 Bft) O-NO 74 1 min 0,000 mm 3,0 UV-I 769 W/m 1,1 C 10,2 C 6,4 km/h (2 Bft) 100,00 %
06.04.2018 12:12 10,3 C 8,3 C 57 % 1023,0 hPa 0,0 l/m 10,1 km/h (2 Bft) O-NO 76 1 min 0,000 mm 3,0 UV-I 765 W/m 2,2 C 7,9 C 16,1 km/h (3 Bft) 96,30 %
06.04.2018 12:13 10,3 C 8,3 C 56 % 1023,0 hPa 0,0 l/m 8,7 km/h (2 Bft) NO 50 1 min 0,000 mm 3,0 UV-I 761 W/m 1,9 C 8,7 C 14,5 km/h (3 Bft) 97,86 %
06.04.2018 12:14 10,6 C 8,3 C 59 % 1023,0 hPa 0,0 l/m 4,4 km/h (1 Bft) NO 49 1 min 0,000 mm 3,0 UV-I 761 W/m 2,9 C 10,6 C 6,4 km/h (2 Bft) 97,73 %
06.04.2018 12:15 10,7 C 8,3 C 58 % 1023,0 hPa 0,0 l/m 5,8 km/h (2 Bft) O 94 1 min 0,000 mm 3,0 UV-I 763 W/m 2,8 C 10,7 C 9,7 km/h (2 Bft) 92,31 %
06.04.2018 12:16 10,6 C 8,3 C 53 % 1023,0 hPa 0,0 l/m 4,1 km/h (1 Bft) NO 50 1 min 0,000 mm 3,0 UV-I 765 W/m 1,4 C 10,6 C 4,8 km/h (1 Bft) 95,83 %
06.04.2018 12:17 10,6 C 8,3 C 53 % 1023,0 hPa 0,0 l/m 1,4 km/h (1 Bft) NO 50 1 min 0,000 mm 3,1 UV-I 765 W/m 1,4 C 10,6 C 3,2 km/h (1 Bft) 100,00 %
06.04.2018 12:18 10,6 C 8,3 C 52 % 1023,0 hPa 0,0 l/m 2,1 km/h (1 Bft) O-NO 72 1 min 0,000 mm 3,1 UV-I 763 W/m 1,2 C 10,6 C 12,9 km/h (3 Bft) 96,15 %
06.04.2018 12:19 10,5 C 8,3 C 54 % 1023,0 hPa 0,0 l/m 13,2 km/h (3 Bft) O-SO 107 1 min 0,000 mm 3,1 UV-I 762 W/m 1,6 C 6,5 C 16,1 km/h (3 Bft) 95,83 %
06.04.2018 12:20 10,4 C 8,3 C 53 % 1023,0 hPa 0,0 l/m 8,1 km/h (2 Bft) NO 42 1 min 0,000 mm 3,1 UV-I 762 W/m 1,2 C 9,2 C 12,9 km/h (3 Bft) 100,00 %
06.04.2018 12:21 10,4 C 8,3 C 53 % 1022,9 hPa 0,0 l/m 3,7 km/h (1 Bft) O 85 1 min 0,000 mm 3,1 UV-I 765 W/m 1,2 C 10,4 C 4,8 km/h (1 Bft) 95,83 %
06.04.2018 12:22 10,5 C 8,3 C 55 % 1022,9 hPa 0,0 l/m 4,4 km/h (1 Bft) O-SO 107 1 min 0,000 mm 3,1 UV-I 765 W/m 1,8 C 10,5 C 9,7 km/h (2 Bft) 96,15 %
06.04.2018 12:23 10,5 C 8,3 C 54 % 1022,9 hPa 0,0 l/m 9,6 km/h (2 Bft) O 96 1 min 0,000 mm 3,1 UV-I 765 W/m 1,6 C 8,4 C 11,3 km/h (2 Bft) 97,84 %
06.04.2018 12:24 10,6 C 8,3 C 53 % 1022,9 hPa 0,0 l/m 10,2 km/h (2 Bft) O-SO 113 1 min 0,000 mm 3,1 UV-I 763 W/m 1,4 C 8,1 C 14,5 km/h (3 Bft) 95,45 %
06.04.2018 12:25 10,6 C 8,3 C 54 % 1022,9 hPa 0,0 l/m 7,3 km/h (2 Bft) SO 140 1 min 0,000 mm 3,1 UV-I 764 W/m 1,7 C 10,0 C 12,9 km/h (3 Bft) 100,00 %
06.04.2018 12:26 10,5 C 8,3 C 52 % 1022,9 hPa 0,0 l/m 12,1 km/h (2 Bft) NO 53 1 min 0,000 mm 3,1 UV-I 765 W/m 1,1 C 7,0 C 17,7 km/h (3 Bft) 92,86 %
06.04.2018 12:27 10,7 C 8,3 C 56 % 1022,9 hPa 0,0 l/m 7,7 km/h (2 Bft) NO 44 1 min 0,000 mm 3,1 UV-I 766 W/m 2,3 C 9,8 C 11,3 km/h (2 Bft) 100,00 %
06.04.2018 12:28 10,6 C 8,3 C 53 % 1022,9 hPa 0,0 l/m 1,6 km/h (1 Bft) O-NO 61 1 min 0,000 mm 3,1 UV-I 768 W/m 1,4 C 10,6 C 4,8 km/h (1 Bft) 96,15 %
06.04.2018 12:29 10,5 C 8,3 C 51 % 1022,9 hPa 0,0 l/m 3,1 km/h (1 Bft) NO 53 1 min 0,000 mm 3,1 UV-I 768 W/m 0,8 C 10,5 C 4,8 km/h (1 Bft) 100,00 %
06.04.2018 12:30 10,3 C 8,3 C 51 % 1022,9 hPa 0,0 l/m 5,0 km/h (1 Bft) W 263 1 min 0,000 mm 3,1 UV-I 768 W/m 0,6 C 10,3 C 9,7 km/h (2 Bft) 100,00 %
06.04.2018 12:31 10,2 C 8,3 C 51 % 1022,8 hPa 0,0 l/m 3,5 km/h (1 Bft) W 279 1 min 0,000 mm 3,1 UV-I 768 W/m 0,5 C 10,2 C 6,4 km/h (2 Bft) 100,00 %
06.04.2018 12:32 10,2 C 8,3 C 52 % 1022,8 hPa 0,0 l/m 1,9 km/h (1 Bft) W 279 1 min 0,000 mm 3,1 UV-I 767 W/m 0,8 C 10,2 C 4,8 km/h (1 Bft) 100,00 %
06.04.2018 12:33 10,2 C 8,3 C 54 % 1022,8 hPa 0,0 l/m 3,5 km/h (1 Bft) NO 56 1 min 0,000 mm 3,1 UV-I 766 W/m 1,3 C 10,2 C 6,4 km/h (2 Bft) 100,00 %
06.04.2018 12:34 10,4 C 8,3 C 58 % 1022,8 hPa 0,0 l/m 10,7 km/h (2 Bft) O-SO 104 1 min 0,000 mm 3,1 UV-I 765 W/m 2,5 C 7,6 C 12,9 km/h (3 Bft) 100,00 %
06.04.2018 12:35 10,7 C 8,3 C 53 % 1022,8 hPa 0,0 l/m 7,2 km/h (2 Bft) NO 54 1 min 0,000 mm 3,1 UV-I 768 W/m 1,5 C 10,1 C 9,7 km/h (2 Bft) 96,55 %
06.04.2018 12:36 10,8 C 8,3 C 54 % 1022,8 hPa 0,0 l/m 2,8 km/h (1 Bft) O-NO 61 1 min 0,000 mm 3,1 UV-I 768 W/m 1,9 C 10,8 C 9,7 km/h (2 Bft) 100,00 %
06.04.2018 12:37 10,8 C 8,3 C 52 % 1022,7 hPa 0,0 l/m 9,8 km/h (2 Bft) O 96 1 min 0,000 mm 3,1 UV-I 768 W/m 1,3 C 8,6 C 14,5 km/h (3 Bft) 100,00 %
06.04.2018 12:38 10,9 C 8,3 C 55 % 1022,8 hPa 0,0 l/m 10,2 km/h (2 Bft) O-NO 71 1 min 0,000 mm 3,1 UV-I 768 W/m 2,2 C 8,5 C 14,5 km/h (3 Bft) 100,00 %
06.04.2018 12:39 11,0 C 8,3 C 53 % 1022,8 hPa 0,0 l/m 7,4 km/h (2 Bft) O 81 1 min 0,000 mm 3,1 UV-I 767 W/m 1,8 C 10,3 C 16,1 km/h (3 Bft) 100,00 %
06.04.2018 12:40 11,1 C 8,3 C 54 % 1022,8 hPa 0,0 l/m 10,9 km/h (2 Bft) O-SO 120 1 min 0,000 mm 3,1 UV-I 766 W/m 2,2 C 8,3 C 12,9 km/h (3 Bft) 100,00 %
06.04.2018 12:41 11,1 C 8,3 C 51 % 1022,8 hPa 0,0 l/m 9,4 km/h (2 Bft) O 100 1 min 0,000 mm 3,1 UV-I 766 W/m 1,4 C 9,1 C 11,3 km/h (2 Bft) 100,00 %
06.04.2018 12:42 10,9 C 8,3 C 51 % 1022,8 hPa 0,0 l/m 7,8 km/h (2 Bft) O-NO 69 1 min 0,000 mm 3,1 UV-I 768 W/m 1,2 C 9,9 C 11,3 km/h (2 Bft) 100,00 %
06.04.2018 12:43 11,0 C 8,3 C 54 % 1022,7 hPa 0,0 l/m 3,4 km/h (1 Bft) O-NO 60 1 min 0,000 mm 3,1 UV-I 768 W/m 2,1 C 11,0 C 4,8 km/h (1 Bft) 100,00 %
06.04.2018 12:44 10,9 C 8,3 C 51 % 1022,7 hPa 0,0 l/m 4,6 km/h (1 Bft) N-NO 32 1 min 0,000 mm 3,1 UV-I 768 W/m 1,2 C 10,9 C 8,0 km/h (2 Bft) 100,00 %
06.04.2018 12:45 10,8 C 8,3 C 52 % 1022,7 hPa 0,0 l/m 7,1 km/h (2 Bft) N-NO 17 1 min 0,000 mm 3,2 UV-I 767 W/m 1,3 C 10,3 C 8,0 km/h (2 Bft) 100,00 %
06.04.2018 12:46 10,8 C 8,3 C 53 % 1022,7 hPa 0,0 l/m 4,4 km/h (1 Bft) N-NO 19 1 min 0,000 mm 3,2 UV-I 766 W/m 1,6 C 10,8 C 6,4 km/h (2 Bft) 100,00 %
06.04.2018 12:47 10,8 C 8,3 C 55 % 1022,6 hPa 0,0 l/m 5,5 km/h (1 Bft) NO 55 1 min 0,000 mm 3,2 UV-I 766 W/m 2,1 C 10,8 C 8,0 km/h (2 Bft) 100,00 %
06.04.2018 12:48 11,1 C 8,3 C 60 % 1022,7 hPa 0,0 l/m 10,6 km/h (2 Bft) O 101 1 min 0,000 mm 3,2 UV-I 766 W/m 3,6 C 8,5 C 14,5 km/h (3 Bft) 100,00 %
06.04.2018 12:49 11,2 C 8,3 C 53 % 1022,7 hPa 0,0 l/m 7,3 km/h (2 Bft) NO 39 1 min 0,000 mm 3,2 UV-I 770 W/m 2,0 C 10,6 C 11,3 km/h (2 Bft) 100,00 %
06.04.2018 12:50 11,1 C 8,3 C 52 % 1022,7 hPa 0,0 l/m 5,8 km/h (2 Bft) NO 54 1 min 0,000 mm 3,2 UV-I 772 W/m 1,6 C 11,1 C 9,7 km/h (2 Bft) 100,00 %
06.04.2018 12:51 10,9 C 8,3 C 50 % 1022,7 hPa 0,0 l/m 6,1 km/h (2 Bft) O-NO 65 1 min 0,000 mm 3,2 UV-I 772 W/m 0,9 C 10,9 C 8,0 km/h (2 Bft) 100,00 %
06.04.2018 12:52 10,9 C 8,3 C 51 % 1022,6 hPa 0,0 l/m 6,6 km/h (2 Bft) O-NO 59 1 min 0,000 mm 3,2 UV-I 774 W/m 1,2 C 10,8 C 8,0 km/h (2 Bft) 100,00 %
06.04.2018 12:53 11,1 C 8,3 C 56 % 1022,6 hPa 0,0 l/m 6,9 km/h (2 Bft) N-NO 27 1 min 0,000 mm 3,2 UV-I 774 W/m 2,7 C 10,8 C 9,7 km/h (2 Bft) 100,00 %
06.04.2018 12:54 11,1 C 8,3 C 52 % 1022,6 hPa 0,0 l/m 4,3 km/h (1 Bft) N-NO 26 1 min 0,000 mm 3,2 UV-I 779 W/m 1,6 C 11,1 C 4,8 km/h (1 Bft) 100,00 %
06.04.2018 12:55 11,1 C 8,3 C 51 % 1022,6 hPa 0,0 l/m 3,0 km/h (1 Bft) NO 40 1 min 0,000 mm 2,8 UV-I 779 W/m 1,4 C 11,1 C 4,8 km/h (1 Bft) 100,00 %
06.04.2018 12:56 11,1 C 8,3 C 53 % 1022,6 hPa 0,0 l/m 6,0 km/h (2 Bft) NO 42 1 min 0,000 mm 3,2 UV-I 782 W/m 1,9 C 11,1 C 6,4 km/h (2 Bft) 100,00 %
06.04.2018 12:57 11,2 C 8,3 C 57 % 1022,5 hPa 0,0 l/m 10,6 km/h (2 Bft) O 83 1 min 0,000 mm 3,2 UV-I 779 W/m 3,0 C 8,6 C 12,9 km/h (3 Bft) 100,00 %
06.04.2018 12:58 11,1 C 8,3 C 50 % 1022,6 hPa 0,0 l/m 5,4 km/h (1 Bft) O-NO 71 1 min 0,000 mm 3,2 UV-I 777 W/m 1,1 C 11,1 C 11,3 km/h (2 Bft) 96,15 %
06.04.2018 12:59 11,0 C 8,3 C 51 % 1022,5 hPa 0,0 l/m 6,8 km/h (2 Bft) NO 54 1 min 0,000 mm 3,2 UV-I 774 W/m 1,3 C 10,7 C 9,7 km/h (2 Bft) 100,00 %
06.04.2018 13:00 11,0 C 8,3 C 54 % 1022,5 hPa 0,0 l/m 6,9 km/h (2 Bft) N-NO 22 1 min 0,381 mm 3,2 UV-I 774 W/m 2,1 C 10,7 C 9,7 km/h (2 Bft) 100,00 %
06.04.2018 13:01 11,0 C 8,3 C 54 % 1022,5 hPa 0,0 l/m 5,1 km/h (1 Bft) NO 53 1 min 0,000 mm 3,2 UV-I 774 W/m 2,1 C 11,0 C 8,0 km/h (2 Bft) 100,00 %
06.04.2018 13:02 10,9 C 8,3 C 51 % 1022,5 hPa 0,0 l/m 4,8 km/h (1 Bft) NO 53 1 min 0,000 mm 3,2 UV-I 776 W/m 1,2 C 10,9 C 6,4 km/h (2 Bft) 100,00 %
06.04.2018 13:03 10,9 C 8,3 C 52 % 1022,5 hPa 0,0 l/m 3,0 km/h (1 Bft) NO 53 1 min 0,000 mm 3,2 UV-I 777 W/m 1,4 C 10,9 C 4,8 km/h (1 Bft) 95,83 %
06.04.2018 13:04 10,9 C 8,3 C 49 % 1022,5 hPa 0,0 l/m 2,7 km/h (1 Bft) O-SO 117 1 min 0,000 mm 3,2 UV-I 773 W/m 0,6 C 10,9 C 3,2 km/h (1 Bft) 100,00 %
06.04.2018 13:05 10,7 C 8,3 C 48 % 1022,5 hPa 0,0 l/m 2,9 km/h (1 Bft) S 169 1 min 0,000 mm 3,1 UV-I 733 W/m 0,1 C 10,7 C 3,2 km/h (1 Bft) 95,83 %
06.04.2018 13:06 10,6 C 8,3 C 49 % 1022,4 hPa 0,0 l/m 5,1 km/h (1 Bft) S 169 1 min 0,000 mm 3,1 UV-I 705 W/m 0,3 C 10,6 C 6,4 km/h (2 Bft) 95,65 %
06.04.2018 13:08 10,6 C 8,3 C 50 % 1022,4 hPa 0,0 l/m 3,8 km/h (1 Bft) SO 132 2 min 0,000 mm 3,1 UV-I 716 W/m 0,6 C 10,6 C 6,4 km/h (2 Bft) 98,11 %
06.04.2018 13:09 10,6 C 8,3 C 51 % 1022,4 hPa 0,0 l/m 4,1 km/h (1 Bft) SO 132 1 min 0,000 mm 3,1 UV-I 711 W/m 0,9 C 10,6 C 6,4 km/h (2 Bft) 100,00 %
06.04.2018 13:10 10,8 C 8,3 C 50 % 1022,3 hPa 0,0 l/m 8,6 km/h (2 Bft) O 98 1 min 0,000 mm 3,1 UV-I 747 W/m 0,8 C 9,3 C 12,9 km/h (3 Bft) 100,00 %
06.04.2018 13:11 10,8 C 8,3 C 48 % 1022,3 hPa 0,0 l/m 6,5 km/h (2 Bft) O-NO 74 1 min 0,000 mm 3,2 UV-I 753 W/m 0,2 C 10,8 C 14,5 km/h (3 Bft) 100,00 %
06.04.2018 13:12 10,9 C 8,3 C 50 % 1022,4 hPa 0,0 l/m 1,2 km/h (1 Bft) O-SO 111 1 min 0,000 mm 3,2 UV-I 762 W/m 0,9 C 10,9 C 4,8 km/h (1 Bft) 100,00 %
06.04.2018 13:13 10,9 C 8,3 C 49 % 1022,3 hPa 0,0 l/m 3,9 km/h (1 Bft) O-SO 122 1 min 0,000 mm 3,2 UV-I 765 W/m 0,6 C 10,9 C 4,8 km/h (1 Bft) 100,00 %
06.04.2018 13:14 10,9 C 8,3 C 49 % 1022,2 hPa 0,0 l/m 0,9 km/h (0 Bft) O-SO 122 1 min 0,000 mm 3,2 UV-I 768 W/m 0,6 C 10,9 C 3,2 km/h (1 Bft) 100,00 %
06.04.2018 13:15 10,9 C 8,3 C 50 % 1022,2 hPa 0,0 l/m 1,0 km/h (0 Bft) O-SO 122 1 min 0,000 mm 3,2 UV-I 772 W/m 0,9 C 10,9 C 1,6 km/h (1 Bft) 100,00 %
06.04.2018 13:16 10,9 C 8,3 C 53 % 1022,2 hPa 0,0 l/m 5,4 km/h (1 Bft) O 99 1 min 0,000 mm 3,2 UV-I 772 W/m 1,7 C 10,9 C 9,7 km/h (2 Bft) 100,00 %
06.04.2018 13:17 11,1 C 8,3 C 52 % 1022,2 hPa 0,0 l/m 9,5 km/h (2 Bft) O 95 1 min 0,000 mm 3,2 UV-I 766 W/m 1,6 C 9,1 C 12,9 km/h (3 Bft) 100,00 %
06.04.2018 13:18 11,2 C 8,3 C 52 % 1022,2 hPa 0,0 l/m 15,0 km/h (3 Bft) O-NO 69 1 min 0,000 mm 3,2 UV-I 766 W/m 1,7 C 6,6 C 17,7 km/h (3 Bft) 100,00 %
06.04.2018 13:19 11,2 C 8,3 C 52 % 1022,3 hPa 0,0 l/m 12,3 km/h (3 Bft) O 89 1 min 0,000 mm 3,2 UV-I 766 W/m 1,7 C 7,8 C 16,1 km/h (3 Bft) 100,00 %
06.04.2018 13:20 11,2 C 8,3 C 52 % 1022,2 hPa 0,0 l/m 8,0 km/h (2 Bft) O 101 1 min 0,000 mm 3,2 UV-I 768 W/m 1,7 C 10,1 C 14,5 km/h (3 Bft) 100,00 %
06.04.2018 13:21 11,3 C 8,3 C 50 % 1022,2 hPa 0,0 l/m 10,9 km/h (2 Bft) O-SO 117 1 min 0,000 mm 3,2 UV-I 770 W/m 1,3 C 8,6 C 14,5 km/h (3 Bft) 100,00 %
06.04.2018 13:22 11,3 C 8,3 C 52 % 1022,3 hPa 0,0 l/m 10,2 km/h (2 Bft) O-SO 115 1 min 0,000 mm 3,2 UV-I 772 W/m 1,8 C 8,9 C 11,3 km/h (2 Bft) 100,00 %
06.04.2018 13:23 11,2 C 8,3 C 49 % 1022,3 hPa 0,0 l/m 5,2 km/h (1 Bft) O-SO 115 1 min 0,000 mm 3,2 UV-I 770 W/m 0,9 C 11,2 C 9,7 km/h (2 Bft) 100,00 %
06.04.2018 13:24 11,0 C 8,3 C 48 % 1022,2 hPa 0,0 l/m 0,4 km/h (0 Bft) O-SO 115 1 min 0,000 mm 3,2 UV-I 771 W/m 0,4 C 11,0 C 1,6 km/h (1 Bft) 100,00 %
06.04.2018 13:25 11,1 C 8,3 C 52 % 1022,2 hPa 0,0 l/m 3,6 km/h (1 Bft) O-SO 105 1 min 0,000 mm 3,2 UV-I 772 W/m 1,6 C 11,1 C 16,1 km/h (3 Bft) 100,00 %
06.04.2018 13:26 11,2 C 8,3 C 49 % 1022,2 hPa 0,0 l/m 13,0 km/h (3 Bft) O 100 1 min 0,000 mm 3,2 UV-I 773 W/m 0,9 C 7,4 C 16,1 km/h (3 Bft) 100,00 %
06.04.2018 13:27 11,3 C 8,3 C 52 % 1022,2 hPa 0,0 l/m 9,1 km/h (2 Bft) O 92 1 min 0,000 mm 3,2 UV-I 773 W/m 1,8 C 9,5 C 14,5 km/h (3 Bft) 96,15 %
06.04.2018 13:28 11,4 C 8,3 C 53 % 1022,2 hPa 0,0 l/m 10,7 km/h (2 Bft) O 100 1 min 0,000 mm 3,2 UV-I 775 W/m 2,2 C 8,8 C 16,1 km/h (3 Bft) 100,00 %
06.04.2018 13:29 11,6 C 8,3 C 51 % 1022,2 hPa 0,0 l/m 4,2 km/h (1 Bft) O-SO 119 1 min 0,000 mm 3,2 UV-I 775 W/m 1,8 C 11,6 C 8,0 km/h (2 Bft) 100,00 %
06.04.2018 13:30 11,6 C 8,3 C 49 % 1022,1 hPa 0,0 l/m 4,0 km/h (1 Bft) O-SO 111 1 min 0,000 mm 3,2 UV-I 775 W/m 1,3 C 11,6 C 6,4 km/h (2 Bft) 100,00 %
06.04.2018 13:31 11,4 C 8,3 C 50 % 1022,1 hPa 0,0 l/m 3,3 km/h (1 Bft) N-NO 29 1 min 0,000 mm 3,2 UV-I 776 W/m 1,4 C 11,4 C 6,4 km/h (2 Bft) 100,00 %
06.04.2018 13:32 11,5 C 8,3 C 51 % 1022,1 hPa 0,0 l/m 13,5 km/h (3 Bft) NO 46 1 min 0,000 mm 3,2 UV-I 774 W/m 1,7 C 7,6 C 17,7 km/h (3 Bft) 100,00 %
06.04.2018 13:33 11,8 C 8,3 C 59 % 1022,1 hPa 0,0 l/m 12,4 km/h (3 Bft) NO 36 1 min 0,000 mm 3,2 UV-I 773 W/m 4,1 C 8,4 C 14,5 km/h (3 Bft) 100,00 %
06.04.2018 13:34 12,0 C 8,3 C 57 % 1022,1 hPa 0,0 l/m 11,7 km/h (2 Bft) NO 36 1 min 0,000 mm 3,1 UV-I 775 W/m 3,8 C 9,0 C 14,5 km/h (3 Bft) 96,55 %
06.04.2018 13:35 12,2 C 8,3 C 59 % 1022,1 hPa 0,0 l/m 12,5 km/h (3 Bft) O-NO 57 1 min 0,000 mm 3,1 UV-I 778 W/m 4,4 C 8,8 C 20,9 km/h (4 Bft) 95,83 %
06.04.2018 13:36 12,2 C 8,3 C 56 % 1022,1 hPa 0,0 l/m 19,0 km/h (3 Bft) O-NO 65 1 min 0,000 mm 3,1 UV-I 762 W/m 3,7 C 6,4 C 22,5 km/h (4 Bft) 100,00 %
06.04.2018 13:37 12,2 C 8,3 C 51 % 1022,0 hPa 0,0 l/m 12,1 km/h (2 Bft) O-NO 71 1 min 0,000 mm 3,0 UV-I 679 W/m 2,4 C 9,0 C 19,3 km/h (3 Bft) 100,00 %
06.04.2018 13:38 12,1 C 8,3 C 52 % 1022,0 hPa 0,0 l/m 17,1 km/h (3 Bft) O-NO 69 1 min 0,000 mm 2,9 UV-I 688 W/m 2,5 C 6,9 C 22,5 km/h (4 Bft) 100,00 %
06.04.2018 13:39 11,9 C 8,3 C 52 % 1022,1 hPa 0,0 l/m 16,1 km/h (3 Bft) NO 56 1 min 0,000 mm 2,8 UV-I 694 W/m 2,4 C 7,0 C 19,3 km/h (3 Bft) 96,30 %
06.04.2018 13:40 11,8 C 8,3 C 50 % 1022,0 hPa 0,0 l/m 15,1 km/h (3 Bft) NO 48 1 min 0,000 mm 2,9 UV-I 635 W/m 1,7 C 7,3 C 17,7 km/h (3 Bft) 100,00 %
06.04.2018 13:41 11,8 C 8,3 C 52 % 1022,0 hPa 0,0 l/m 17,0 km/h (3 Bft) O-NO 57 1 min 0,000 mm 2,9 UV-I 626 W/m 2,3 C 6,6 C 19,3 km/h (3 Bft) 100,00 %
06.04.2018 13:42 11,7 C 8,3 C 50 % 1022,0 hPa 0,0 l/m 15,3 km/h (3 Bft) O 94 1 min 0,000 mm 2,9 UV-I 688 W/m 1,6 C 7,1 C 19,3 km/h (3 Bft) 96,15 %
06.04.2018 13:43 11,6 C 8,3 C 49 % 1022,0 hPa 0,0 l/m 12,3 km/h (3 Bft) O 84 1 min 0,000 mm 3,0 UV-I 701 W/m 1,3 C 8,2 C 14,5 km/h (3 Bft) 94,44 %
06.04.2018 13:44 11,6 C 8,3 C 50 % 1022,0 hPa 0,0 l/m 12,0 km/h (2 Bft) O 85 1 min 0,000 mm 3,1 UV-I 756 W/m 1,5 C 8,4 C 14,5 km/h (3 Bft) 100,00 %
06.04.2018 13:45 11,6 C 8,3 C 49 % 1022,0 hPa 0,0 l/m 12,8 km/h (3 Bft) O-NO 62 1 min 0,000 mm 3,1 UV-I 772 W/m 1,3 C 8,0 C 19,3 km/h (3 Bft) 95,83 %
06.04.2018 13:46 11,6 C 8,3 C 54 % 1022,0 hPa 0,0 l/m 13,2 km/h (3 Bft) O-NO 77 1 min 0,000 mm 3,0 UV-I 756 W/m 2,6 C 7,8 C 17,7 km/h (3 Bft) 95,65 %
06.04.2018 13:47 11,7 C 8,3 C 54 % 1022,0 hPa 0,0 l/m 12,3 km/h (3 Bft) O-NO 74 1 min 0,000 mm 3,0 UV-I 752 W/m 2,7 C 8,3 C 16,1 km/h (3 Bft) 96,67 %
06.04.2018 13:48 11,7 C 8,3 C 51 % 1022,0 hPa 0,0 l/m 11,7 km/h (2 Bft) O 96 1 min 0,000 mm 3,0 UV-I 760 W/m 1,9 C 8,6 C 14,5 km/h (3 Bft) 100,00 %
06.04.2018 13:49 11,8 C 8,3 C 53 % 1022,0 hPa 0,0 l/m 11,1 km/h (2 Bft) O-NO 61 1 min 0,000 mm 3,1 UV-I 755 W/m 2,5 C 9,0 C 14,5 km/h (3 Bft) 91,30 %
06.04.2018 13:50 11,9 C 8,3 C 54 % 1022,0 hPa 0,0 l/m 7,2 km/h (2 Bft) N-NO 26 1 min 0,000 mm 3,0 UV-I 760 W/m 2,9 C 11,4 C 9,7 km/h (2 Bft) 100,00 %
06.04.2018 13:51 12,1 C 8,3 C 55 % 1022,0 hPa 0,0 l/m 8,2 km/h (2 Bft) O-NO 78 1 min 0,000 mm 3,0 UV-I 753 W/m 3,3 C 10,9 C 11,3 km/h (2 Bft) 95,65 %
06.04.2018 13:52 12,1 C 8,3 C 54 % 1021,9 hPa 0,0 l/m 10,5 km/h (2 Bft) O-NO 68 1 min 0,000 mm 3,0 UV-I 747 W/m 3,1 C 9,7 C 14,5 km/h (3 Bft) 96,30 %
06.04.2018 13:53 12,1 C 8,3 C 53 % 1021,9 hPa 0,0 l/m 15,0 km/h (3 Bft) NO 46 1 min 0,000 mm 3,0 UV-I 758 W/m 2,8 C 7,7 C 20,9 km/h (4 Bft) 100,00 %
06.04.2018 13:54 12,1 C 8,3 C 53 % 1021,8 hPa 0,0 l/m 11,4 km/h (2 Bft) O-NO 59 1 min 0,000 mm 2,7 UV-I 758 W/m 2,8 C 9,2 C 17,7 km/h (3 Bft) 91,67 %
06.04.2018 13:55 11,9 C 8,3 C 51 % 1021,9 hPa 0,0 l/m 18,9 km/h (3 Bft) O-NO 57 1 min 0,000 mm 2,9 UV-I 758 W/m 2,1 C 6,1 C 22,5 km/h (4 Bft) 100,00 %
06.04.2018 13:56 11,9 C 8,3 C 55 % 1021,9 hPa 0,0 l/m 19,6 km/h (3 Bft) NO 46 1 min 0,000 mm 3,0 UV-I 768 W/m 3,2 C 5,9 C 22,5 km/h (4 Bft) 96,67 %
06.04.2018 13:57 11,8 C 8,3 C 52 % 1021,9 hPa 0,0 l/m 19,1 km/h (3 Bft) O-NO 57 1 min 0,000 mm 3,0 UV-I 766 W/m 2,3 C 5,9 C 24,1 km/h (4 Bft) 96,15 %
06.04.2018 13:58 11,8 C 8,3 C 55 % 1021,9 hPa 0,0 l/m 14,5 km/h (3 Bft) O 79 1 min 0,000 mm 3,0 UV-I 760 W/m 3,1 C 7,5 C 19,3 km/h (3 Bft) 95,83 %
06.04.2018 13:59 11,9 C 8,3 C 55 % 1021,8 hPa 0,0 l/m 11,6 km/h (2 Bft) O-NO 65 1 min 0,000 mm 3,0 UV-I 756 W/m 3,2 C 8,9 C 17,7 km/h (3 Bft) 100,00 %
06.04.2018 14:00 11,8 C 8,3 C 52 % 1021,8 hPa 0,0 l/m 12,2 km/h (2 Bft) N-NO 25 1 min 0,000 mm 3,0 UV-I 751 W/m 2,3 C 8,5 C 17,7 km/h (3 Bft) 92,59 %
06.04.2018 14:01 11,8 C 8,3 C 57 % 1021,8 hPa 0,0 l/m 9,5 km/h (2 Bft) O-NO 63 1 min 0,407 mm 2,9 UV-I 738 W/m 3,6 C 9,9 C 14,5 km/h (3 Bft) 95,83 %
06.04.2018 14:02 11,9 C 8,3 C 54 % 1021,8 hPa 0,0 l/m 8,2 km/h (2 Bft) O-NO 61 1 min 0,000 mm 3,0 UV-I 745 W/m 2,9 C 10,7 C 11,3 km/h (2 Bft) 100,00 %
06.04.2018 14:03 11,9 C 8,3 C 56 % 1021,8 hPa 0,0 l/m 9,1 km/h (2 Bft) NO 40 1 min 0,000 mm 3,0 UV-I 752 W/m 3,4 C 10,2 C 14,5 km/h (3 Bft) 96,15 %
06.04.2018 14:04 12,2 C 8,3 C 60 % 1021,7 hPa 0,0 l/m 15,4 km/h (3 Bft) O-NO 62 1 min 0,000 mm 2,9 UV-I 738 W/m 4,7 C 7,6 C 20,9 km/h (4 Bft) 100,00 %
06.04.2018 14:05 12,3 C 8,3 C 61 % 1021,7 hPa 0,0 l/m 12,7 km/h (3 Bft) N-NO 26 1 min 0,000 mm 2,9 UV-I 753 W/m 5,0 C 8,9 C 20,9 km/h (4 Bft) 93,33 %
06.04.2018 14:06 12,2 C 8,3 C 52 % 1021,7 hPa 0,0 l/m 10,3 km/h (2 Bft) N-NO 32 1 min 0,000 mm 2,9 UV-I 754 W/m 2,6 C 9,9 C 14,5 km/h (3 Bft) 100,00 %
06.04.2018 14:07 12,1 C 8,3 C 54 % 1021,7 hPa 0,0 l/m 8,3 km/h (2 Bft) NO 48 1 min 0,000 mm 2,9 UV-I 747 W/m 3,1 C 10,9 C 9,7 km/h (2 Bft) 96,30 %
06.04.2018 14:08 11,8 C 8,3 C 52 % 1021,6 hPa 0,0 l/m 9,7 km/h (2 Bft) NO 50 1 min 0,000 mm 2,9 UV-I 740 W/m 2,3 C 9,7 C 14,5 km/h (3 Bft) 100,00 %
06.04.2018 14:09 11,9 C 8,3 C 58 % 1021,6 hPa 0,0 l/m 16,1 km/h (3 Bft) NO 46 1 min 0,000 mm 2,9 UV-I 748 W/m 3,9 C 7,0 C 20,9 km/h (4 Bft) 100,00 %
06.04.2018 14:10 12,1 C 8,3 C 60 % 1021,6 hPa 0,0 l/m 13,6 km/h (3 Bft) NO 51 1 min 0,000 mm 2,9 UV-I 746 W/m 4,6 C 8,2 C 16,1 km/h (3 Bft) 100,00 %
06.04.2018 14:11 12,1 C 8,3 C 54 % 1021,6 hPa 0,0 l/m 12,6 km/h (3 Bft) NO 35 1 min 0,000 mm 2,9 UV-I 747 W/m 3,1 C 8,7 C 16,1 km/h (3 Bft) 100,00 %
06.04.2018 14:12 12,3 C 8,3 C 61 % 1021,6 hPa 0,0 l/m 14,8 km/h (3 Bft) O-NO 64 1 min 0,000 mm 2,9 UV-I 747 W/m 5,0 C 8,0 C 20,9 km/h (4 Bft) 100,00 %
06.04.2018 14:13 12,3 C 8,3 C 56 % 1021,5 hPa 0,0 l/m 16,2 km/h (3 Bft) NO 35 1 min 0,000 mm 2,9 UV-I 734 W/m 3,8 C 7,5 C 25,7 km/h (4 Bft) 100,00 %
06.04.2018 14:14 12,3 C 8,3 C 57 % 1021,5 hPa 0,0 l/m 17,0 km/h (3 Bft) N-NO 18 1 min 0,000 mm 2,9 UV-I 732 W/m 4,0 C 7,2 C 20,9 km/h (4 Bft) 95,65 %
06.04.2018 14:15 12,3 C 8,3 C 57 % 1021,5 hPa 0,0 l/m 16,5 km/h (3 Bft) NO 50 1 min 0,000 mm 2,9 UV-I 749 W/m 4,0 C 7,4 C 20,9 km/h (4 Bft) 100,00 %
06.04.2018 14:16 12,3 C 8,3 C 58 % 1021,5 hPa 0,0 l/m 16,0 km/h (3 Bft) NO 37 1 min 0,000 mm 2,9 UV-I 756 W/m 4,3 C 7,6 C 20,9 km/h (4 Bft) 95,65 %
06.04.2018 14:17 12,2 C 8,3 C 56 % 1021,5 hPa 0,0 l/m 13,6 km/h (3 Bft) N-NO 27 1 min 0,000 mm 2,9 UV-I 754 W/m 3,7 C 8,4 C 17,7 km/h (3 Bft) 100,00 %
06.04.2018 14:18 12,2 C 8,3 C 57 % 1021,5 hPa 0,0 l/m 15,3 km/h (3 Bft) O-NO 69 1 min 0,000 mm 2,9 UV-I 748 W/m 3,9 C 7,7 C 19,3 km/h (3 Bft) 100,00 %
06.04.2018 14:19 12,2 C 8,3 C 56 % 1021,5 hPa 0,0 l/m 18,1 km/h (3 Bft) O-NO 71 1 min 0,000 mm 2,9 UV-I 743 W/m 3,7 C 6,7 C 24,1 km/h (4 Bft) 93,33 %
06.04.2018 14:20 12,2 C 8,3 C 54 % 1021,5 hPa 0,0 l/m 13,3 km/h (3 Bft) O-NO 78 1 min 0,000 mm 2,8 UV-I 740 W/m 3,2 C 8,5 C 17,7 km/h (3 Bft) 100,00 %
06.04.2018 14:21 12,2 C 8,3 C 51 % 1021,4 hPa 0,0 l/m 12,2 km/h (2 Bft) O-SO 110 1 min 0,000 mm 2,8 UV-I 749 W/m 2,4 C 9,0 C 17,7 km/h (3 Bft) 100,00 %
06.04.2018 14:22 12,1 C 8,3 C 50 % 1021,4 hPa 0,0 l/m 17,4 km/h (3 Bft) O-NO 65 1 min 0,000 mm 2,8 UV-I 735 W/m 2,0 C 6,8 C 20,9 km/h (4 Bft) 100,00 %
06.04.2018 14:23 12,1 C 8,3 C 52 % 1021,4 hPa 0,0 l/m 17,2 km/h (3 Bft) O 101 1 min 0,000 mm 2,8 UV-I 729 W/m 2,5 C 6,9 C 22,5 km/h (4 Bft) 96,67 %
06.04.2018 14:24 11,9 C 8,3 C 51 % 1021,4 hPa 0,0 l/m 11,9 km/h (2 Bft) O-NO 61 1 min 0,000 mm 2,8 UV-I 736 W/m 2,1 C 8,7 C 17,7 km/h (3 Bft) 100,00 %
06.04.2018 14:25 12,0 C 8,3 C 51 % 1021,4 hPa 0,0 l/m 14,5 km/h (3 Bft) NO 52 1 min 0,000 mm 2,8 UV-I 722 W/m 2,2 C 7,8 C 19,3 km/h (3 Bft) 100,00 %
06.04.2018 14:26 12,2 C 8,3 C 53 % 1021,4 hPa 0,0 l/m 14,3 km/h (3 Bft) NO 54 1 min 0,000 mm 2,7 UV-I 730 W/m 2,9 C 8,1 C 17,7 km/h (3 Bft) 100,00 %
06.04.2018 14:27 12,3 C 8,3 C 53 % 1021,4 hPa 0,0 l/m 11,2 km/h (2 Bft) O-NO 60 1 min 0,000 mm 2,7 UV-I 722 W/m 3,0 C 9,5 C 19,3 km/h (3 Bft) 100,00 %
06.04.2018 14:28 12,4 C 8,3 C 57 % 1021,4 hPa 0,0 l/m 13,3 km/h (3 Bft) NO 47 1 min 0,000 mm 2,7 UV-I 730 W/m 4,1 C 8,7 C 17,7 km/h (3 Bft) 100,00 %
06.04.2018 14:29 12,5 C 8,3 C 53 % 1021,3 hPa 0,0 l/m 15,2 km/h (3 Bft) NO 49 1 min 0,000 mm 2,7 UV-I 703 W/m 3,2 C 8,1 C 19,3 km/h (3 Bft) 100,00 %
06.04.2018 14:30 12,6 C 8,3 C 53 % 1021,3 hPa 0,0 l/m 14,1 km/h (3 Bft) O-NO 61 1 min 0,000 mm 2,6 UV-I 684 W/m 3,3 C 8,6 C 17,7 km/h (3 Bft) 100,00 %
06.04.2018 14:31 12,6 C 8,3 C 53 % 1021,3 hPa 0,0 l/m 12,9 km/h (3 Bft) O 89 1 min 0,000 mm 2,5 UV-I 661 W/m 3,3 C 9,1 C 16,1 km/h (3 Bft) 98,03 %
06.04.2018 14:32 12,6 C 8,3 C 52 % 1021,3 hPa 0,0 l/m 13,0 km/h (3 Bft) O-SO 119 1 min 0,000 mm 2,4 UV-I 601 W/m 3,0 C 9,1 C 19,3 km/h (3 Bft) 100,00 %
06.04.2018 14:33 12,5 C 8,3 C 51 % 1021,3 hPa 0,0 l/m 18,2 km/h (3 Bft) O-NO 71 1 min 0,000 mm 2,5 UV-I 617 W/m 2,6 C 7,1 C 25,7 km/h (4 Bft) 100,00 %
06.04.2018 14:34 12,3 C 8,3 C 48 % 1021,3 hPa 0,0 l/m 17,2 km/h (3 Bft) O 88 1 min 0,000 mm 2,5 UV-I 622 W/m 1,6 C 7,1 C 20,9 km/h (4 Bft) 98,04 %
06.04.2018 14:35 12,2 C 8,3 C 49 % 1021,3 hPa 0,0 l/m 16,2 km/h (3 Bft) O-NO 68 1 min 0,000 mm 2,5 UV-I 639 W/m 1,8 C 7,4 C 19,3 km/h (3 Bft) 100,00 %
06.04.2018 14:36 12,0 C 8,3 C 50 % 1021,2 hPa 0,0 l/m 14,7 km/h (3 Bft) O 80 1 min 0,000 mm 2,5 UV-I 663 W/m 1,9 C 7,7 C 17,7 km/h (3 Bft) 100,00 %
06.04.2018 14:37 12,0 C 8,3 C 55 % 1021,2 hPa 0,0 l/m 10,1 km/h (2 Bft) NO 39 1 min 0,000 mm 2,6 UV-I 685 W/m 3,2 C 9,8 C 14,5 km/h (3 Bft) 100,00 %
06.04.2018 14:38 12,2 C 8,3 C 53 % 1021,2 hPa 0,0 l/m 14,8 km/h (3 Bft) NO 46 1 min 0,000 mm 2,6 UV-I 692 W/m 2,9 C 7,9 C 17,7 km/h (3 Bft) 100,00 %
06.04.2018 14:39 12,4 C 8,3 C 56 % 1021,2 hPa 0,0 l/m 16,4 km/h (3 Bft) N-NO 24 1 min 0,000 mm 2,6 UV-I 688 W/m 3,9 C 7,5 C 20,9 km/h (4 Bft) 100,00 %
06.04.2018 14:40 12,6 C 8,3 C 58 % 1021,2 hPa 0,0 l/m 13,4 km/h (3 Bft) NO 41 1 min 0,000 mm 2,6 UV-I 693 W/m 4,6 C 8,9 C 19,3 km/h (3 Bft) 100,00 %
06.04.2018 14:41 12,6 C 8,3 C 57 % 1021,1 hPa 0,0 l/m 16,9 km/h (3 Bft) N-NO 32 1 min 0,000 mm 2,6 UV-I 691 W/m 4,3 C 7,6 C 19,3 km/h (3 Bft) 100,00 %
06.04.2018 14:42 12,7 C 8,3 C 54 % 1021,2 hPa 0,0 l/m 14,3 km/h (3 Bft) NO 52 1 min 0,000 mm 2,6 UV-I 700 W/m 3,6 C 8,7 C 20,9 km/h (4 Bft) 100,00 %
06.04.2018 14:43 12,6 C 8,3 C 51 % 1021,1 hPa 0,0 l/m 15,9 km/h (3 Bft) O-NO 76 1 min 0,000 mm 2,6 UV-I 683 W/m 2,7 C 8,0 C 20,9 km/h (4 Bft) 100,00 %
06.04.2018 14:44 12,5 C 8,3 C 51 % 1021,1 hPa 0,0 l/m 15,2 km/h (3 Bft) O-NO 59 1 min 0,000 mm 2,6 UV-I 696 W/m 2,6 C 8,1 C 17,7 km/h (3 Bft) 100,00 %
06.04.2018 14:45 12,5 C 8,3 C 54 % 1021,1 hPa 0,0 l/m 15,0 km/h (3 Bft) O 90 1 min 0,000 mm 2,6 UV-I 696 W/m 3,5 C 8,2 C 17,7 km/h (3 Bft) 100,00 %
06.04.2018 14:46 12,6 C 8,3 C 53 % 1021,1 hPa 0,0 l/m 15,0 km/h (3 Bft) O-NO 61 1 min 0,000 mm 2,6 UV-I 699 W/m 3,3 C 8,3 C 20,9 km/h (4 Bft) 95,83 %
06.04.2018 14:48 12,4 C 8,3 C 51 % 1021,1 hPa 0,0 l/m 16,1 km/h (3 Bft) O-NO 70 2 min 0,000 mm 2,5 UV-I 695 W/m 2,6 C 7,6 C 22,5 km/h (4 Bft) 97,73 %
06.04.2018 14:49 12,3 C 8,3 C 52 % 1021,1 hPa 0,0 l/m 15,5 km/h (3 Bft) O 92 1 min 0,000 mm 2,5 UV-I 689 W/m 2,7 C 7,7 C 19,3 km/h (3 Bft) 100,00 %
06.04.2018 14:50 12,3 C 8,3 C 51 % 1021,0 hPa 0,0 l/m 17,3 km/h (3 Bft) O-SO 113 1 min 0,000 mm 2,5 UV-I 683 W/m 2,5 C 7,1 C 20,9 km/h (4 Bft) 100,00 %
06.04.2018 14:51 12,3 C 8,3 C 51 % 1021,0 hPa 0,0 l/m 14,6 km/h (3 Bft) O-SO 117 1 min 0,000 mm 2,5 UV-I 678 W/m 2,5 C 8,1 C 20,9 km/h (4 Bft) 100,00 %
06.04.2018 14:52 12,3 C 8,3 C 53 % 1021,1 hPa 0,0 l/m 12,2 km/h (2 Bft) O-SO 105 1 min 0,000 mm 2,4 UV-I 668 W/m 3,0 C 9,1 C 16,1 km/h (3 Bft) 100,00 %
06.04.2018 14:53 12,3 C 8,3 C 51 % 1021,0 hPa 0,0 l/m 12,5 km/h (3 Bft) O 95 1 min 0,000 mm 2,4 UV-I 662 W/m 2,5 C 8,9 C 17,7 km/h (3 Bft) 100,00 %
06.04.2018 14:54 12,3 C 8,3 C 51 % 1021,0 hPa 0,0 l/m 13,7 km/h (3 Bft) O-NO 75 1 min 0,000 mm 2,4 UV-I 673 W/m 2,5 C 8,4 C 17,7 km/h (3 Bft) 100,00 %
06.04.2018 14:55 12,4 C 8,3 C 52 % 1021,0 hPa 0,0 l/m 12,6 km/h (3 Bft) O-SO 104 1 min 0,000 mm 2,5 UV-I 690 W/m 2,8 C 9,0 C 17,7 km/h (3 Bft) 100,00 %
06.04.2018 14:56 12,4 C 8,3 C 51 % 1021,0 hPa 0,0 l/m 13,5 km/h (3 Bft) O-NO 78 1 min 0,000 mm 2,5 UV-I 696 W/m 2,6 C 8,6 C 17,7 km/h (3 Bft) 96,15 %
06.04.2018 14:58 12,4 C 8,3 C 53 % 1020,9 hPa 0,0 l/m 13,9 km/h (3 Bft) O-NO 65 2 min 0,000 mm 2,4 UV-I 688 W/m 3,1 C 8,5 C 19,3 km/h (3 Bft) 100,00 %
06.04.2018 14:59 12,4 C 8,3 C 51 % 1020,9 hPa 0,0 l/m 10,2 km/h (2 Bft) O-NO 74 1 min 0,000 mm 2,4 UV-I 689 W/m 2,6 C 10,1 C 14,5 km/h (3 Bft) 100,00 %
06.04.2018 15:00 12,4 C 8,3 C 51 % 1020,9 hPa 0,0 l/m 14,3 km/h (3 Bft) O-NO 71 1 min 0,406 mm 2,4 UV-I 671 W/m 2,6 C 8,3 C 17,7 km/h (3 Bft) 100,00 %
06.04.2018 15:01 12,4 C 8,3 C 51 % 1021,0 hPa 0,0 l/m 15,8 km/h (3 Bft) O-NO 76 1 min 0,000 mm 2,4 UV-I 675 W/m 2,6 C 7,7 C 19,3 km/h (3 Bft) 91,67 %
06.04.2018 15:02 12,3 C 8,3 C 49 % 1021,0 hPa 0,0 l/m 11,8 km/h (2 Bft) O-NO 77 1 min 0,000 mm 2,4 UV-I 686 W/m 1,9 C 9,3 C 14,5 km/h (3 Bft) 96,67 %
06.04.2018 15:03 12,2 C 8,3 C 49 % 1020,9 hPa 0,0 l/m 12,1 km/h (2 Bft) O 101 1 min 0,000 mm 2,4 UV-I 680 W/m 1,8 C 9,0 C 17,7 km/h (3 Bft) 100,00 %
06.04.2018 15:04 12,2 C 8,3 C 50 % 1021,0 hPa 0,0 l/m 11,6 km/h (2 Bft) O 101 1 min 0,000 mm 2,3 UV-I 669 W/m 2,1 C 9,2 C 14,5 km/h (3 Bft) 91,67 %
06.04.2018 15:05 12,1 C 8,3 C 50 % 1020,9 hPa 0,0 l/m 14,1 km/h (3 Bft) O 84 1 min 0,000 mm 2,3 UV-I 669 W/m 2,0 C 8,0 C 17,7 km/h (3 Bft) 100,00 %
06.04.2018 15:06 12,1 C 8,3 C 51 % 1020,9 hPa 0,0 l/m 14,1 km/h (3 Bft) O 82 1 min 0,000 mm 2,3 UV-I 665 W/m 2,3 C 8,0 C 19,3 km/h (3 Bft) 100,00 %
06.04.2018 15:07 12,2 C 8,3 C 51 % 1020,8 hPa 0,0 l/m 15,0 km/h (3 Bft) O-NO 61 1 min 0,000 mm 2,3 UV-I 664 W/m 2,4 C 7,8 C 19,3 km/h (3 Bft) 100,00 %
06.04.2018 15:08 12,3 C 8,3 C 52 % 1020,8 hPa 0,0 l/m 15,6 km/h (3 Bft) O 80 1 min 0,000 mm 2,3 UV-I 652 W/m 2,7 C 7,7 C 17,7 km/h (3 Bft) 100,00 %
06.04.2018 15:09 12,3 C 8,3 C 51 % 1020,8 hPa 0,0 l/m 15,7 km/h (3 Bft) O-NO 66 1 min 0,000 mm 2,2 UV-I 654 W/m 2,5 C 7,7 C 19,3 km/h (3 Bft) 96,55 %
06.04.2018 15:10 12,3 C 8,3 C 51 % 1020,8 hPa 0,0 l/m 13,5 km/h (3 Bft) O-NO 67 1 min 0,000 mm 2,3 UV-I 660 W/m 2,5 C 8,5 C 17,7 km/h (3 Bft) 100,00 %
06.04.2018 15:11 12,3 C 8,3 C 51 % 1020,8 hPa 0,0 l/m 10,5 km/h (2 Bft) NO 45 1 min 0,000 mm 2,3 UV-I 655 W/m 2,5 C 9,9 C 17,7 km/h (3 Bft) 100,00 %
06.04.2018 15:12 12,3 C 8,3 C 54 % 1020,8 hPa 0,0 l/m 12,3 km/h (3 Bft) NO 42 1 min 0,000 mm 2,2 UV-I 645 W/m 3,3 C 9,0 C 16,1 km/h (3 Bft) 100,00 %
06.04.2018 15:13 12,4 C 8,3 C 53 % 1020,8 hPa 0,0 l/m 19,1 km/h (3 Bft) O-NO 59 1 min 0,000 mm 2,2 UV-I 639 W/m 3,1 C 6,7 C 24,1 km/h (4 Bft) 100,00 %
06.04.2018 15:14 12,4 C 8,3 C 53 % 1020,8 hPa 0,0 l/m 14,1 km/h (3 Bft) O-NO 78 1 min 0,000 mm 2,2 UV-I 635 W/m 3,1 C 8,4 C 20,9 km/h (4 Bft) 100,00 %
06.04.2018 15:15 12,6 C 8,3 C 52 % 1020,8 hPa 0,0 l/m 13,1 km/h (3 Bft) NO 53 1 min 0,000 mm 2,2 UV-I 645 W/m 3,0 C 9,0 C 20,9 km/h (4 Bft) 100,00 %
06.04.2018 15:16 12,7 C 8,3 C 56 % 1020,8 hPa 0,0 l/m 12,5 km/h (3 Bft) NO 34 1 min 0,000 mm 2,2 UV-I 636 W/m 4,2 C 9,4 C 14,5 km/h (3 Bft) 96,30 %
06.04.2018 15:18 12,9 C 8,3 C 55 % 1020,7 hPa 0,0 l/m 16,1 km/h (3 Bft) O-NO 67 2 min 0,000 mm 2,1 UV-I 609 W/m 4,1 C 8,3 C 24,1 km/h (4 Bft) 97,56 %
06.04.2018 15:19 12,8 C 8,3 C 53 % 1020,7 hPa 0,0 l/m 17,5 km/h (3 Bft) N-NO 32 1 min 0,000 mm 2,1 UV-I 621 W/m 3,5 C 7,7 C 22,5 km/h (4 Bft) 100,00 %
06.04.2018 15:20 12,9 C 8,3 C 52 % 1020,7 hPa 0,0 l/m 16,9 km/h (3 Bft) NO 34 1 min 0,000 mm 2,1 UV-I 633 W/m 3,3 C 8,0 C 22,5 km/h (4 Bft) 94,44 %
06.04.2018 15:21 12,9 C 8,3 C 57 % 1020,7 hPa 0,0 l/m 14,8 km/h (3 Bft) NO 49 1 min 0,000 mm 2,1 UV-I 639 W/m 4,6 C 8,7 C 19,3 km/h (3 Bft) 100,00 %
06.04.2018 15:22 13,0 C 8,3 C 54 % 1020,7 hPa 0,0 l/m 15,1 km/h (3 Bft) O-NO 67 1 min 0,000 mm 2,1 UV-I 642 W/m 3,9 C 8,7 C 19,3 km/h (3 Bft) 95,65 %
06.04.2018 15:23 13,0 C 8,3 C 54 % 1020,7 hPa 0,0 l/m 11,2 km/h (2 Bft) O 83 1 min 0,000 mm 2,1 UV-I 639 W/m 3,9 C 10,3 C 16,1 km/h (3 Bft) 96,30 %
06.04.2018 15:24 12,9 C 8,3 C 50 % 1020,7 hPa 0,0 l/m 10,2 km/h (2 Bft) O-NO 66 1 min 0,000 mm 2,1 UV-I 636 W/m 2,7 C 10,7 C 14,5 km/h (3 Bft) 96,15 %
06.04.2018 15:25 12,8 C 8,3 C 48 % 1020,7 hPa 0,0 l/m 16,4 km/h (3 Bft) NO 53 1 min 0,000 mm 2,1 UV-I 635 W/m 2,1 C 8,0 C 24,1 km/h (4 Bft) 95,83 %
06.04.2018 15:26 12,8 C 8,3 C 50 % 1020,6 hPa 0,0 l/m 19,3 km/h (3 Bft) O-NO 70 1 min 0,000 mm 2,1 UV-I 635 W/m 2,6 C 7,1 C 24,1 km/h (4 Bft) 100,00 %
06.04.2018 15:27 12,7 C 8,3 C 48 % 1020,6 hPa 0,0 l/m 16,9 km/h (3 Bft) O-NO 63 1 min 0,000 mm 2,1 UV-I 633 W/m 2,0 C 7,7 C 20,9 km/h (4 Bft) 96,30 %
06.04.2018 15:28 12,6 C 8,3 C 48 % 1020,6 hPa 0,0 l/m 16,2 km/h (3 Bft) NO 46 1 min 0,000 mm 2,1 UV-I 631 W/m 1,9 C 7,9 C 20,9 km/h (4 Bft) 100,00 %
06.04.2018 15:29 12,6 C 8,3 C 51 % 1020,6 hPa 0,0 l/m 16,5 km/h (3 Bft) O-NO 71 1 min 0,000 mm 2,1 UV-I 628 W/m 2,7 C 7,7 C 20,9 km/h (4 Bft) 95,83 %
06.04.2018 15:30 12,6 C 8,3 C 51 % 1020,6 hPa 0,0 l/m 17,8 km/h (3 Bft) O-NO 63 1 min 0,000 mm 2,0 UV-I 626 W/m 2,7 C 7,3 C 24,1 km/h (4 Bft) 92,31 %
06.04.2018 15:31 12,6 C 8,3 C 48 % 1020,6 hPa 0,0 l/m 12,9 km/h (3 Bft) O-NO 76 1 min 0,000 mm 2,0 UV-I 624 W/m 1,9 C 9,1 C 16,1 km/h (3 Bft) 93,33 %
06.04.2018 15:33 12,8 C 8,3 C 54 % 1020,5 hPa 0,0 l/m 14,2 km/h (3 Bft) N-NO 30 2 min 0,000 mm 2,0 UV-I 618 W/m 3,7 C 8,8 C 17,7 km/h (3 Bft) 98,00 %
06.04.2018 15:34 12,9 C 8,3 C 58 % 1020,5 hPa 0,0 l/m 15,7 km/h (3 Bft) O 89 1 min 0,000 mm 2,0 UV-I 611 W/m 4,8 C 8,4 C 20,9 km/h (4 Bft) 95,65 %
06.04.2018 15:35 13,0 C 8,3 C 50 % 1020,6 hPa 0,0 l/m 11,5 km/h (2 Bft) O 99 1 min 0,000 mm 2,0 UV-I 612 W/m 2,8 C 10,2 C 17,7 km/h (3 Bft) 100,00 %
06.04.2018 15:36 12,9 C 8,3 C 49 % 1020,6 hPa 0,0 l/m 15,8 km/h (3 Bft) O-NO 78 1 min 0,000 mm 1,9 UV-I 612 W/m 2,5 C 8,4 C 19,3 km/h (3 Bft) 93,33 %
06.04.2018 15:37 12,8 C 8,3 C 49 % 1020,5 hPa 0,0 l/m 15,1 km/h (3 Bft) O 81 1 min 0,000 mm 1,9 UV-I 612 W/m 2,4 C 8,5 C 19,3 km/h (3 Bft) 100,00 %
06.04.2018 15:38 12,8 C 8,3 C 50 % 1020,5 hPa 0,0 l/m 13,3 km/h (3 Bft) O-NO 71 1 min 0,000 mm 1,9 UV-I 609 W/m 2,6 C 9,2 C 17,7 km/h (3 Bft) 96,55 %
06.04.2018 15:39 12,8 C 8,3 C 48 % 1020,5 hPa 0,0 l/m 13,0 km/h (3 Bft) O-NO 60 1 min 0,000 mm 1,9 UV-I 607 W/m 2,1 C 9,3 C 19,3 km/h (3 Bft) 100,00 %
06.04.2018 15:40 12,7 C 8,3 C 51 % 1020,4 hPa 0,0 l/m 17,2 km/h (3 Bft) O-NO 74 1 min 0,000 mm 1,9 UV-I 601 W/m 2,8 C 7,6 C 24,1 km/h (4 Bft) 96,30 %
06.04.2018 15:41 12,8 C 8,3 C 54 % 1020,4 hPa 0,0 l/m 19,7 km/h (3 Bft) O-NO 57 1 min 0,000 mm 1,8 UV-I 556 W/m 3,7 C 7,0 C 25,7 km/h (4 Bft) 96,55 %
06.04.2018 15:42 12,8 C 8,3 C 53 % 1020,4 hPa 0,0 l/m 18,6 km/h (3 Bft) O-NO 61 1 min 0,000 mm 1,9 UV-I 588 W/m 3,5 C 7,3 C 24,1 km/h (4 Bft) 100,00 %
06.04.2018 15:43 12,9 C 8,3 C 52 % 1020,4 hPa 0,0 l/m 13,2 km/h (3 Bft) O 88 1 min 0,000 mm 1,9 UV-I 598 W/m 3,3 C 9,3 C 16,1 km/h (3 Bft) 96,15 %
06.04.2018 15:44 12,8 C 8,3 C 50 % 1020,4 hPa 0,0 l/m 19,2 km/h (3 Bft) O 91 1 min 0,000 mm 1,8 UV-I 595 W/m 2,6 C 7,1 C 27,4 km/h (4 Bft) 100,00 %
06.04.2018 15:45 12,8 C 8,3 C 49 % 1020,4 hPa 0,0 l/m 14,8 km/h (3 Bft) O 80 1 min 0,000 mm 1,8 UV-I 587 W/m 2,4 C 8,6 C 19,3 km/h (3 Bft) 100,00 %
06.04.2018 15:46 12,8 C 8,3 C 48 % 1020,4 hPa 0,0 l/m 15,0 km/h (3 Bft) O 96 1 min 0,000 mm 1,8 UV-I 578 W/m 2,1 C 8,5 C 19,3 km/h (3 Bft) 100,00 %
06.04.2018 15:47 12,7 C 8,3 C 49 % 1020,4 hPa 0,0 l/m 12,7 km/h (3 Bft) O 99 1 min 0,000 mm 1,8 UV-I 581 W/m 2,3 C 9,3 C 19,3 km/h (3 Bft) 100,00 %
06.04.2018 15:48 12,7 C 8,3 C 52 % 1020,3 hPa 0,0 l/m 15,1 km/h (3 Bft) N-NO 31 1 min 0,000 mm 1,8 UV-I 580 W/m 3,1 C 8,4 C 19,3 km/h (3 Bft) 100,00 %
06.04.2018 15:49 12,8 C 8,3 C 51 % 1020,3 hPa 0,0 l/m 15,4 km/h (3 Bft) O-NO 66 1 min 0,000 mm 1,8 UV-I 582 W/m 2,9 C 8,4 C 20,9 km/h (4 Bft) 100,00 %
06.04.2018 15:50 12,8 C 8,3 C 50 % 1020,3 hPa 0,0 l/m 14,7 km/h (3 Bft) O 87 1 min 0,000 mm 1,8 UV-I 579 W/m 2,6 C 8,6 C 17,7 km/h (3 Bft) 100,00 %
06.04.2018 15:51 12,8 C 8,3 C 49 % 1020,3 hPa 0,0 l/m 14,2 km/h (3 Bft) O 98 1 min 0,000 mm 1,7 UV-I 575 W/m 2,4 C 8,8 C 17,7 km/h (3 Bft) 100,00 %
06.04.2018 15:52 12,8 C 8,3 C 51 % 1020,3 hPa 0,0 l/m 16,3 km/h (3 Bft) O 90 1 min 0,000 mm 1,7 UV-I 573 W/m 2,9 C 8,1 C 20,9 km/h (4 Bft) 100,00 %
06.04.2018 15:53 12,8 C 8,3 C 50 % 1020,3 hPa 0,0 l/m 13,4 km/h (3 Bft) O 79 1 min 0,000 mm 1,7 UV-I 568 W/m 2,6 C 9,1 C 20,9 km/h (4 Bft) 100,00 %
06.04.2018 15:54 12,9 C 8,3 C 50 % 1020,3 hPa 0,0 l/m 13,6 km/h (3 Bft) O-NO 67 1 min 0,000 mm 1,7 UV-I 567 W/m 2,7 C 9,2 C 19,3 km/h (3 Bft) 100,00 %
06.04.2018 15:55 13,0 C 8,3 C 50 % 1020,3 hPa 0,0 l/m 12,3 km/h (3 Bft) O-SO 108 1 min 0,000 mm 1,7 UV-I 564 W/m 2,8 C 9,8 C 16,1 km/h (3 Bft) 100,00 %
06.04.2018 15:56 12,9 C 8,3 C 48 % 1020,3 hPa 0,0 l/m 12,8 km/h (3 Bft) O-NO 69 1 min 0,000 mm 1,7 UV-I 568 W/m 2,2 C 9,5 C 16,1 km/h (3 Bft) 91,67 %
06.04.2018 15:57 12,9 C 8,3 C 49 % 1020,2 hPa 0,0 l/m 14,3 km/h (3 Bft) NO 43 1 min 0,000 mm 1,7 UV-I 570 W/m 2,5 C 8,9 C 19,3 km/h (3 Bft) 100,00 %
06.04.2018 15:58 13,1 C 8,3 C 51 % 1020,2 hPa 0,0 l/m 23,5 km/h (4 Bft) NO 53 1 min 0,000 mm 1,7 UV-I 568 W/m 3,2 C 6,4 C 30,6 km/h (5 Bft) 100,00 %
06.04.2018 15:59 13,1 C 8,3 C 51 % 1020,2 hPa 0,0 l/m 20,8 km/h (4 Bft) O-NO 74 1 min 0,000 mm 1,6 UV-I 564 W/m 3,2 C 7,1 C 25,7 km/h (4 Bft) 95,65 %
06.04.2018 16:00 13,1 C 8,3 C 52 % 1020,1 hPa 0,0 l/m 19,2 km/h (3 Bft) NO 41 1 min 0,381 mm 1,6 UV-I 563 W/m 3,5 C 7,5 C 22,5 km/h (4 Bft) 100,00 %
06.04.2018 16:01 13,2 C 8,3 C 53 % 1020,2 hPa 0,0 l/m 18,5 km/h (3 Bft) O 84 1 min 0,000 mm 1,6 UV-I 559 W/m 3,8 C 7,9 C 22,5 km/h (4 Bft) 91,67 %
06.04.2018 16:02 13,1 C 8,3 C 51 % 1020,2 hPa 0,0 l/m 17,4 km/h (3 Bft) O 83 1 min 0,000 mm 1,6 UV-I 558 W/m 3,2 C 8,1 C 22,5 km/h (4 Bft) 100,00 %
06.04.2018 16:03 13,1 C 8,3 C 49 % 1020,2 hPa 0,0 l/m 18,5 km/h (3 Bft) N-NO 33 1 min 0,000 mm 1,6 UV-I 557 W/m 2,6 C 7,7 C 27,4 km/h (4 Bft) 100,00 %
06.04.2018 16:04 13,1 C 8,3 C 50 % 1020,1 hPa 0,0 l/m 17,8 km/h (3 Bft) O-NO 71 1 min 0,000 mm 1,6 UV-I 556 W/m 2,9 C 7,9 C 24,1 km/h (4 Bft) 100,00 %
06.04.2018 16:05 13,1 C 8,3 C 50 % 1020,1 hPa 0,0 l/m 16,5 km/h (3 Bft) O-NO 73 1 min 0,000 mm 1,6 UV-I 550 W/m 2,9 C 8,4 C 19,3 km/h (3 Bft) 100,00 %
06.04.2018 16:06 13,1 C 8,3 C 51 % 1020,1 hPa 0,0 l/m 19,6 km/h (3 Bft) O-NO 60 1 min 0,000 mm 1,5 UV-I 545 W/m 3,2 C 7,4 C 30,6 km/h (5 Bft) 100,00 %
06.04.2018 16:07 13,1 C 8,3 C 52 % 1020,1 hPa 0,0 l/m 18,8 km/h (3 Bft) NO 51 1 min 0,000 mm 1,5 UV-I 545 W/m 3,5 C 7,6 C 25,7 km/h (4 Bft) 100,00 %
06.04.2018 16:08 13,2 C 8,3 C 53 % 1020,0 hPa 0,0 l/m 16,3 km/h (3 Bft) O 80 1 min 0,000 mm 1,5 UV-I 513 W/m 3,8 C 8,6 C 24,1 km/h (4 Bft) 98,12 %
06.04.2018 16:09 13,1 C 8,3 C 50 % 1020,1 hPa 0,0 l/m 16,7 km/h (3 Bft) O-NO 61 1 min 0,000 mm 1,5 UV-I 503 W/m 2,9 C 8,3 C 24,1 km/h (4 Bft) 100,00 %
06.04.2018 16:10 13,1 C 8,3 C 49 % 1020,0 hPa 0,0 l/m 14,2 km/h (3 Bft) N-NO 28 1 min 0,000 mm 1,5 UV-I 540 W/m 2,6 C 9,2 C 17,7 km/h (3 Bft) 100,00 %
06.04.2018 16:11 13,0 C 8,3 C 53 % 1020,0 hPa 0,0 l/m 14,6 km/h (3 Bft) NO 40 1 min 0,000 mm 1,5 UV-I 533 W/m 3,6 C 8,9 C 24,1 km/h (4 Bft) 100,00 %
06.04.2018 16:12 13,1 C 8,3 C 53 % 1020,0 hPa 0,0 l/m 23,0 km/h (4 Bft) NO 48 1 min 0,000 mm 1,5 UV-I 527 W/m 3,7 C 6,5 C 29,0 km/h (5 Bft) 100,00 %
06.04.2018 16:13 13,0 C 8,3 C 53 % 1019,9 hPa 0,0 l/m 20,4 km/h (4 Bft) NO 51 1 min 0,000 mm 1,5 UV-I 535 W/m 3,6 C 7,1 C 29,0 km/h (5 Bft) 96,30 %
06.04.2018 16:14 13,0 C 8,3 C 52 % 1019,9 hPa 0,0 l/m 18,3 km/h (3 Bft) NO 46 1 min 0,000 mm 1,5 UV-I 532 W/m 3,4 C 7,7 C 22,5 km/h (4 Bft) 100,00 %
06.04.2018 16:15 13,0 C 8,3 C 51 % 1019,9 hPa 0,0 l/m 17,4 km/h (3 Bft) O-NO 76 1 min 0,000 mm 1,4 UV-I 521 W/m 3,1 C 7,9 C 22,5 km/h (4 Bft) 100,00 %
06.04.2018 16:16 13,0 C 8,3 C 51 % 1020,0 hPa 0,0 l/m 20,2 km/h (4 Bft) O-NO 60 1 min 0,000 mm 1,4 UV-I 509 W/m 3,1 C 7,1 C 24,1 km/h (4 Bft) 93,10 %
06.04.2018 16:17 13,0 C 8,3 C 53 % 1019,9 hPa 0,0 l/m 17,0 km/h (3 Bft) O-NO 75 1 min 0,000 mm 1,4 UV-I 507 W/m 3,6 C 8,1 C 24,1 km/h (4 Bft) 100,00 %
06.04.2018 16:18 13,1 C 8,3 C 51 % 1019,9 hPa 0,0 l/m 18,8 km/h (3 Bft) O 83 1 min 0,000 mm 1,4 UV-I 499 W/m 3,2 C 7,6 C 25,7 km/h (4 Bft) 100,00 %
06.04.2018 16:19 13,1 C 8,3 C 50 % 1019,9 hPa 0,0 l/m 21,2 km/h (4 Bft) O-NO 78 1 min 0,000 mm 1,4 UV-I 500 W/m 2,9 C 7,0 C 24,1 km/h (4 Bft) 96,15 %
06.04.2018 16:20 13,1 C 8,3 C 49 % 1019,9 hPa 0,0 l/m 15,7 km/h (3 Bft) O 79 1 min 0,000 mm 1,4 UV-I 496 W/m 2,6 C 8,6 C 20,9 km/h (4 Bft) 100,00 %
06.04.2018 16:21 12,9 C 8,3 C 48 % 1020,0 hPa 0,0 l/m 15,9 km/h (3 Bft) O-NO 69 1 min 0,000 mm 1,3 UV-I 497 W/m 2,2 C 8,3 C 19,3 km/h (3 Bft) 100,00 %
06.04.2018 16:23 12,9 C 8,3 C 47 % 1019,9 hPa 0,0 l/m 18,0 km/h (3 Bft) O-NO 71 2 min 0,000 mm 1,3 UV-I 493 W/m 1,9 C 7,6 C 24,1 km/h (4 Bft) 100,00 %
06.04.2018 16:24 12,9 C 8,3 C 47 % 1019,9 hPa 0,0 l/m 16,9 km/h (3 Bft) O-NO 66 1 min 0,000 mm 1,3 UV-I 499 W/m 1,9 C 8,0 C 20,9 km/h (4 Bft) 100,00 %
06.04.2018 16:25 12,9 C 8,3 C 48 % 1019,9 hPa 0,0 l/m 13,8 km/h (3 Bft) O-NO 67 1 min 0,000 mm 1,3 UV-I 495 W/m 2,2 C 9,1 C 16,1 km/h (3 Bft) 100,00 %
06.04.2018 16:26 13,1 C 8,3 C 48 % 1019,9 hPa 0,0 l/m 15,7 km/h (3 Bft) O-NO 59 1 min 0,000 mm 1,3 UV-I 494 W/m 2,3 C 8,6 C 20,9 km/h (4 Bft) 100,00 %
06.04.2018 16:27 13,1 C 8,3 C 50 % 1019,9 hPa 0,0 l/m 17,1 km/h (3 Bft) NO 54 1 min 0,000 mm 1,3 UV-I 492 W/m 2,9 C 8,2 C 22,5 km/h (4 Bft) 93,10 %
06.04.2018 16:28 13,2 C 8,3 C 50 % 1019,8 hPa 0,0 l/m 19,2 km/h (3 Bft) O-NO 66 1 min 0,000 mm 1,3 UV-I 466 W/m 3,0 C 7,6 C 24,1 km/h (4 Bft) 100,00 %
06.04.2018 16:29 13,1 C 8,3 C 47 % 1019,9 hPa 0,0 l/m 18,6 km/h (3 Bft) O 89 1 min 0,000 mm 1,2 UV-I 458 W/m 2,0 C 7,7 C 20,9 km/h (4 Bft) 98,14 %
06.04.2018 16:30 13,1 C 8,3 C 47 % 1019,8 hPa 0,0 l/m 14,8 km/h (3 Bft) O-SO 102 1 min 0,000 mm 1,2 UV-I 451 W/m 2,0 C 9,0 C 19,3 km/h (3 Bft) 100,00 %
06.04.2018 16:31 13,0 C 8,3 C 47 % 1019,8 hPa 0,0 l/m 8,9 km/h (2 Bft) O-NO 70 1 min 0,000 mm 1,2 UV-I 466 W/m 2,0 C 11,5 C 12,9 km/h (3 Bft) 100,00 %
06.04.2018 16:32 13,1 C 8,3 C 48 % 1019,8 hPa 0,0 l/m 15,2 km/h (3 Bft) O-NO 71 1 min 0,000 mm 1,2 UV-I 445 W/m 2,3 C 8,8 C 20,9 km/h (4 Bft) 100,00 %
06.04.2018 16:33 13,1 C 8,3 C 48 % 1019,8 hPa 0,0 l/m 16,1 km/h (3 Bft) O-NO 71 1 min 0,000 mm 1,2 UV-I 441 W/m 2,3 C 8,5 C 24,1 km/h (4 Bft) 100,00 %
06.04.2018 16:34 13,2 C 8,3 C 48 % 1019,8 hPa 0,0 l/m 17,3 km/h (3 Bft) O-NO 71 1 min 0,000 mm 1,2 UV-I 458 W/m 2,4 C 8,2 C 20,9 km/h (4 Bft) 100,00 %
06.04.2018 16:35 13,2 C 8,3 C 47 % 1019,8 hPa 0,0 l/m 15,2 km/h (3 Bft) O-NO 70 1 min 0,000 mm 1,2 UV-I 450 W/m 2,1 C 8,9 C 19,3 km/h (3 Bft) 97,37 %
06.04.2018 16:36 13,2 C 8,3 C 48 % 1019,8 hPa 0,0 l/m 16,1 km/h (3 Bft) O-NO 67 1 min 0,000 mm 1,2 UV-I 445 W/m 2,4 C 8,6 C 20,9 km/h (4 Bft) 100,00 %
06.04.2018 16:37 13,2 C 8,3 C 48 % 1019,8 hPa 0,0 l/m 15,3 km/h (3 Bft) O-NO 76 1 min 0,000 mm 1,1 UV-I 451 W/m 2,4 C 8,9 C 20,9 km/h (4 Bft) 100,00 %
06.04.2018 16:38 13,2 C 8,3 C 47 % 1019,8 hPa 0,0 l/m 22,5 km/h (4 Bft) O 86 1 min 0,000 mm 1,1 UV-I 426 W/m 2,1 C 6,8 C 29,0 km/h (5 Bft) 100,00 %
06.04.2018 16:39 13,1 C 8,3 C 44 % 1019,7 hPa 0,0 l/m 20,6 km/h (4 Bft) O-NO 76 1 min 0,000 mm 1,1 UV-I 407 W/m 1,1 C 7,1 C 25,7 km/h (4 Bft) 100,00 %
06.04.2018 16:40 13,0 C 8,3 C 45 % 1019,7 hPa 0,0 l/m 21,5 km/h (4 Bft) O 95 1 min 0,000 mm 1,1 UV-I 407 W/m 1,4 C 6,8 C 25,7 km/h (4 Bft) 100,00 %
06.04.2018 16:41 13,0 C 8,3 C 46 % 1019,7 hPa 0,0 l/m 21,5 km/h (4 Bft) O-NO 78 1 min 0,000 mm 1,1 UV-I 408 W/m 1,7 C 6,8 C 29,0 km/h (5 Bft) 100,00 %
06.04.2018 16:43 12,8 C 8,3 C 43 % 1019,7 hPa 0,0 l/m 20,4 km/h (4 Bft) O-NO 75 2 min 0,000 mm 1,0 UV-I 394 W/m 0,5 C 6,8 C 24,1 km/h (4 Bft) 98,00 %
06.04.2018 16:44 12,8 C 8,3 C 44 % 1019,7 hPa 0,0 l/m 19,1 km/h (3 Bft) O-NO 70 1 min 0,000 mm 1,0 UV-I 375 W/m 0,9 C 7,2 C 22,5 km/h (4 Bft) 100,00 %
06.04.2018 16:45 12,8 C 8,3 C 44 % 1019,7 hPa 0,0 l/m 15,2 km/h (3 Bft) O 93 1 min 0,000 mm 1,0 UV-I 364 W/m 0,9 C 8,5 C 20,9 km/h (4 Bft) 100,00 %
06.04.2018 16:46 12,8 C 8,3 C 44 % 1019,7 hPa 0,0 l/m 21,3 km/h (4 Bft) O-NO 60 1 min 0,000 mm 1,0 UV-I 351 W/m 0,9 C 6,5 C 25,7 km/h (4 Bft) 100,00 %
06.04.2018 16:47 12,7 C 8,3 C 43 % 1019,7 hPa 0,0 l/m 20,8 km/h (4 Bft) O-NO 76 1 min 0,000 mm 1,0 UV-I 353 W/m 0,5 C 6,5 C 27,4 km/h (4 Bft) 100,00 %
06.04.2018 16:48 12,7 C 8,3 C 43 % 1019,7 hPa 0,0 l/m 19,8 km/h (3 Bft) NO 44 1 min 0,000 mm 1,0 UV-I 359 W/m 0,5 C 6,8 C 24,1 km/h (4 Bft) 96,15 %
06.04.2018 16:49 12,7 C 8,3 C 45 % 1019,7 hPa 0,0 l/m 15,0 km/h (3 Bft) O 94 1 min 0,000 mm 1,0 UV-I 350 W/m 1,1 C 8,4 C 17,7 km/h (3 Bft) 95,83 %
06.04.2018 16:50 12,8 C 8,3 C 45 % 1019,7 hPa 0,0 l/m 17,8 km/h (3 Bft) O 101 1 min 0,000 mm 0,9 UV-I 338 W/m 1,2 C 7,6 C 22,5 km/h (4 Bft) 100,00 %
06.04.2018 16:51 12,8 C 8,3 C 44 % 1019,7 hPa 0,0 l/m 17,5 km/h (3 Bft) O-SO 107 1 min 0,000 mm 0,9 UV-I 332 W/m 0,9 C 7,7 C 20,9 km/h (4 Bft) 100,00 %
06.04.2018 16:53 12,8 C 8,3 C 45 % 1019,7 hPa 0,0 l/m 14,9 km/h (3 Bft) O-NO 61 2 min 0,000 mm 0,9 UV-I 310 W/m 1,2 C 8,6 C 20,9 km/h (4 Bft) 100,00 %
06.04.2018 16:54 12,8 C 8,3 C 48 % 1019,7 hPa 0,0 l/m 15,9 km/h (3 Bft) O 94 1 min 0,000 mm 0,9 UV-I 321 W/m 2,1 C 8,2 C 19,3 km/h (3 Bft) 100,00 %
06.04.2018 16:55 12,9 C 8,3 C 47 % 1019,7 hPa 0,0 l/m 15,0 km/h (3 Bft) O-NO 70 1 min 0,000 mm 0,9 UV-I 321 W/m 1,9 C 8,6 C 19,3 km/h (3 Bft) 100,00 %
06.04.2018 16:56 12,9 C 8,3 C 46 % 1019,7 hPa 0,0 l/m 16,0 km/h (3 Bft) NO 56 1 min 0,000 mm 0,8 UV-I 306 W/m 1,6 C 8,3 C 19,3 km/h (3 Bft) 95,65 %
06.04.2018 16:57 12,9 C 8,3 C 45 % 1019,7 hPa 0,0 l/m 21,6 km/h (4 Bft) O-NO 63 1 min 0,000 mm 0,8 UV-I 305 W/m 1,3 C 6,6 C 25,7 km/h (4 Bft) 100,00 %
06.04.2018 16:58 12,8 C 8,3 C 44 % 1019,7 hPa 0,0 l/m 19,7 km/h (3 Bft) O-NO 78 1 min 0,000 mm 0,8 UV-I 320 W/m 0,9 C 7,0 C 24,1 km/h (4 Bft) 95,83 %
06.04.2018 16:59 12,8 C 8,3 C 42 % 1019,7 hPa 0,0 l/m 20,8 km/h (4 Bft) O 94 1 min 0,000 mm 0,8 UV-I 328 W/m 0,2 C 6,7 C 24,1 km/h (4 Bft) 95,65 %
06.04.2018 17:00 12,8 C 8,3 C 43 % 1019,7 hPa 0,0 l/m 18,5 km/h (3 Bft) O-NO 68 1 min 0,000 mm 0,8 UV-I 323 W/m 0,5 C 7,3 C 20,9 km/h (4 Bft) 100,00 %
06.04.2018 17:01 12,7 C 8,3 C 43 % 1019,7 hPa 0,0 l/m 19,3 km/h (3 Bft) O-NO 76 1 min 0,330 mm 0,8 UV-I 308 W/m 0,5 C 7,0 C 24,1 km/h (4 Bft) 96,15 %
06.04.2018 17:02 12,7 C 8,3 C 45 % 1019,7 hPa 0,0 l/m 17,4 km/h (3 Bft) O-NO 65 1 min 0,000 mm 0,8 UV-I 306 W/m 1,1 C 7,6 C 22,5 km/h (4 Bft) 96,67 %
06.04.2018 17:03 12,7 C 8,3 C 46 % 1019,7 hPa 0,0 l/m 19,6 km/h (3 Bft) NO 52 1 min 0,000 mm 0,8 UV-I 301 W/m 1,4 C 6,9 C 24,1 km/h (4 Bft) 100,00 %
06.04.2018 17:04 12,8 C 8,3 C 46 % 1019,7 hPa 0,0 l/m 20,4 km/h (4 Bft) O-NO 65 1 min 0,000 mm 0,8 UV-I 307 W/m 1,5 C 6,8 C 24,1 km/h (4 Bft) 94,44 %
06.04.2018 17:05 12,8 C 8,3 C 44 % 1019,7 hPa 0,0 l/m 18,8 km/h (3 Bft) O-NO 71 1 min 0,000 mm 0,8 UV-I 304 W/m 0,9 C 7,3 C 24,1 km/h (4 Bft) 100,00 %
06.04.2018 17:06 12,8 C 8,3 C 44 % 1019,7 hPa 0,0 l/m 16,0 km/h (3 Bft) NO 43 1 min 0,000 mm 0,8 UV-I 321 W/m 0,9 C 8,2 C 22,5 km/h (4 Bft) 93,33 %
06.04.2018 17:07 12,8 C 8,3 C 46 % 1019,7 hPa 0,0 l/m 17,1 km/h (3 Bft) NO 36 1 min 0,000 mm 0,8 UV-I 333 W/m 1,5 C 7,8 C 22,5 km/h (4 Bft) 100,00 %
06.04.2018 17:08 12,9 C 8,3 C 49 % 1019,6 hPa 0,0 l/m 20,8 km/h (4 Bft) NO 51 1 min 0,000 mm 0,8 UV-I 336 W/m 2,5 C 6,8 C 25,7 km/h (4 Bft) 97,56 %
06.04.2018 17:09 12,9 C 8,3 C 47 % 1019,7 hPa 0,0 l/m 19,1 km/h (3 Bft) NO 43 1 min 0,000 mm 0,8 UV-I 341 W/m 1,9 C 7,3 C 22,5 km/h (4 Bft) 100,00 %
06.04.2018 17:10 13,0 C 8,3 C 50 % 1019,7 hPa 0,0 l/m 16,7 km/h (3 Bft) NO 48 1 min 0,000 mm 0,8 UV-I 347 W/m 2,8 C 8,2 C 20,9 km/h (4 Bft) 95,83 %
06.04.2018 17:11 13,0 C 8,3 C 49 % 1019,7 hPa 0,0 l/m 20,4 km/h (4 Bft) NO 49 1 min 0,000 mm 0,8 UV-I 366 W/m 2,5 C 7,1 C 24,1 km/h (4 Bft) 95,83 %
06.04.2018 17:12 13,0 C 8,3 C 49 % 1019,6 hPa 0,0 l/m 20,7 km/h (4 Bft) NO 55 1 min 0,000 mm 0,7 UV-I 347 W/m 2,5 C 7,0 C 25,7 km/h (4 Bft) 100,00 %
06.04.2018 17:13 13,0 C 8,3 C 46 % 1019,6 hPa 0,0 l/m 14,8 km/h (3 Bft) O-NO 73 1 min 0,000 mm 0,7 UV-I 336 W/m 1,7 C 8,8 C 17,7 km/h (3 Bft) 95,65 %
06.04.2018 17:14 12,9 C 8,3 C 47 % 1019,6 hPa 0,0 l/m 14,6 km/h (3 Bft) NO 34 1 min 0,000 mm 0,7 UV-I 343 W/m 1,9 C 8,8 C 20,9 km/h (4 Bft) 100,00 %
06.04.2018 17:15 13,0 C 8,3 C 49 % 1019,6 hPa 0,0 l/m 16,3 km/h (3 Bft) NO 50 1 min 0,000 mm 0,7 UV-I 347 W/m 2,5 C 8,3 C 20,9 km/h (4 Bft) 98,16 %
06.04.2018 17:16 13,1 C 8,3 C 48 % 1019,6 hPa 0,0 l/m 19,1 km/h (3 Bft) O 86 1 min 0,000 mm 0,7 UV-I 351 W/m 2,3 C 7,6 C 22,5 km/h (4 Bft) 97,73 %
06.04.2018 17:17 13,0 C 8,3 C 45 % 1019,6 hPa 0,0 l/m 16,5 km/h (3 Bft) O 82 1 min 0,000 mm 0,7 UV-I 352 W/m 1,4 C 8,2 C 19,3 km/h (3 Bft) 96,30 %
06.04.2018 17:18 12,9 C 8,3 C 46 % 1019,6 hPa 0,0 l/m 15,9 km/h (3 Bft) NO 46 1 min 0,000 mm 0,7 UV-I 353 W/m 1,6 C 8,3 C 20,9 km/h (4 Bft) 100,00 %
06.04.2018 17:19 13,0 C 8,3 C 47 % 1019,6 hPa 0,0 l/m 19,1 km/h (3 Bft) O-NO 72 1 min 0,000 mm 0,7 UV-I 352 W/m 2,0 C 7,4 C 24,1 km/h (4 Bft) 95,83 %
06.04.2018 17:20 13,0 C 8,3 C 45 % 1019,6 hPa 0,0 l/m 14,9 km/h (3 Bft) NO 44 1 min 0,000 mm 0,7 UV-I 352 W/m 1,4 C 8,8 C 24,1 km/h (4 Bft) 96,15 %
06.04.2018 17:21 13,0 C 8,3 C 44 % 1019,5 hPa 0,0 l/m 18,0 km/h (3 Bft) O-NO 63 1 min 0,000 mm 0,7 UV-I 352 W/m 1,0 C 7,8 C 22,5 km/h (4 Bft) 96,30 %
06.04.2018 17:22 13,0 C 8,3 C 47 % 1019,6 hPa 0,0 l/m 18,7 km/h (3 Bft) NO 50 1 min 0,000 mm 0,7 UV-I 350 W/m 2,0 C 7,5 C 22,5 km/h (4 Bft) 95,65 %
06.04.2018 17:23 13,0 C 8,3 C 47 % 1019,5 hPa 0,0 l/m 13,6 km/h (3 Bft) O 86 1 min 0,000 mm 0,7 UV-I 349 W/m 2,0 C 9,3 C 20,9 km/h (4 Bft) 100,00 %
06.04.2018 17:24 13,1 C 8,3 C 46 % 1019,5 hPa 0,0 l/m 16,5 km/h (3 Bft) N-NO 20 1 min 0,000 mm 0,7 UV-I 344 W/m 1,7 C 8,4 C 20,9 km/h (4 Bft) 92,86 %
06.04.2018 17:25 13,1 C 8,3 C 45 % 1019,5 hPa 0,0 l/m 12,9 km/h (3 Bft) O 82 1 min 0,000 mm 0,6 UV-I 340 W/m 1,4 C 9,7 C 17,7 km/h (3 Bft) 100,00 %
06.04.2018 17:26 13,2 C 8,3 C 48 % 1019,5 hPa 0,0 l/m 20,8 km/h (4 Bft) O-NO 57 1 min 0,000 mm 0,6 UV-I 338 W/m 2,4 C 7,2 C 27,4 km/h (4 Bft) 91,30 %
06.04.2018 17:27 13,2 C 8,3 C 47 % 1019,5 hPa 0,0 l/m 16,2 km/h (3 Bft) O-NO 70 1 min 0,000 mm 0,6 UV-I 335 W/m 2,1 C 8,6 C 20,9 km/h (4 Bft) 100,00 %
06.04.2018 17:28 13,2 C 8,3 C 48 % 1019,5 hPa 0,0 l/m 14,4 km/h (3 Bft) O-NO 76 1 min 0,000 mm 0,6 UV-I 330 W/m 2,4 C 9,2 C 20,9 km/h (4 Bft) 95,65 %
06.04.2018 17:29 13,2 C 8,3 C 47 % 1019,5 hPa 0,0 l/m 17,1 km/h (3 Bft) O-NO 78 1 min 0,000 mm 0,6 UV-I 328 W/m 2,1 C 8,3 C 20,9 km/h (4 Bft) 100,00 %
06.04.2018 17:30 13,1 C 8,3 C 45 % 1019,4 hPa 0,0 l/m 18,7 km/h (3 Bft) O-NO 67 1 min 0,000 mm 0,6 UV-I 325 W/m 1,4 C 7,7 C 22,5 km/h (4 Bft) 95,65 %
06.04.2018 17:31 13,1 C 8,3 C 45 % 1019,4 hPa 0,0 l/m 20,5 km/h (4 Bft) O-NO 67 1 min 0,000 mm 0,6 UV-I 322 W/m 1,4 C 7,2 C 27,4 km/h (4 Bft) 96,30 %
06.04.2018 17:32 13,1 C 8,3 C 45 % 1019,4 hPa 0,0 l/m 16,8 km/h (3 Bft) O-NO 67 1 min 0,000 mm 0,6 UV-I 321 W/m 1,4 C 8,3 C 20,9 km/h (4 Bft) 100,00 %
06.04.2018 17:33 13,1 C 8,3 C 47 % 1019,4 hPa 0,0 l/m 22,7 km/h (4 Bft) NO 43 1 min 0,000 mm 0,6 UV-I 317 W/m 2,0 C 6,6 C 27,4 km/h (4 Bft) 100,00 %
06.04.2018 17:34 13,1 C 8,3 C 46 % 1019,4 hPa 0,0 l/m 21,2 km/h (4 Bft) O 80 1 min 0,000 mm 0,6 UV-I 316 W/m 1,7 C 7,0 C 25,7 km/h (4 Bft) 100,00 %
06.04.2018 17:35 13,0 C 8,3 C 45 % 1019,4 hPa 0,0 l/m 19,4 km/h (3 Bft) NO 49 1 min 0,000 mm 0,6 UV-I 315 W/m 1,4 C 7,3 C 25,7 km/h (4 Bft) 100,00 %
06.04.2018 17:36 13,0 C 8,3 C 47 % 1019,4 hPa 0,0 l/m 21,9 km/h (4 Bft) O-NO 63 1 min 0,000 mm 0,5 UV-I 310 W/m 2,0 C 6,6 C 27,4 km/h (4 Bft) 100,00 %
06.04.2018 17:37 13,0 C 8,3 C 47 % 1019,4 hPa 0,0 l/m 17,9 km/h (3 Bft) O 79 1 min 0,000 mm 0,5 UV-I 304 W/m 2,0 C 7,8 C 20,9 km/h (4 Bft) 100,00 %
06.04.2018 17:38 13,0 C 8,3 C 44 % 1019,4 hPa 0,0 l/m 20,3 km/h (4 Bft) O 80 1 min 0,000 mm 0,5 UV-I 300 W/m 1,0 C 7,1 C 22,5 km/h (4 Bft) 97,56 %
06.04.2018 17:39 12,9 C 8,3 C 44 % 1019,4 hPa 0,0 l/m 19,8 km/h (3 Bft) O-NO 65 1 min 0,000 mm 0,5 UV-I 295 W/m 1,0 C 7,1 C 24,1 km/h (4 Bft) 100,00 %
06.04.2018 17:40 12,9 C 8,3 C 45 % 1019,4 hPa 0,0 l/m 17,1 km/h (3 Bft) O 85 1 min 0,000 mm 0,5 UV-I 303 W/m 1,3 C 7,9 C 24,1 km/h (4 Bft) 93,33 %
06.04.2018 17:41 12,9 C 8,3 C 46 % 1019,4 hPa 0,0 l/m 14,5 km/h (3 Bft) O 89 1 min 0,000 mm 0,5 UV-I 284 W/m 1,6 C 8,8 C 17,7 km/h (3 Bft) 100,00 %
06.04.2018 17:42 12,9 C 8,3 C 47 % 1019,4 hPa 0,0 l/m 15,3 km/h (3 Bft) O-NO 67 1 min 0,000 mm 0,5 UV-I 248 W/m 1,9 C 8,5 C 20,9 km/h (4 Bft) 100,00 %
06.04.2018 17:43 12,9 C 8,3 C 47 % 1019,4 hPa 0,0 l/m 20,3 km/h (4 Bft) O-NO 65 1 min 0,000 mm 0,5 UV-I 251 W/m 1,9 C 6,9 C 22,5 km/h (4 Bft) 100,00 %
06.04.2018 17:44 12,9 C 8,3 C 46 % 1019,3 hPa 0,0 l/m 17,5 km/h (3 Bft) O-NO 76 1 min 0,000 mm 0,5 UV-I 278 W/m 1,6 C 7,8 C 27,4 km/h (4 Bft) 100,00 %
06.04.2018 17:45 12,9 C 8,3 C 46 % 1019,4 hPa 0,0 l/m 14,8 km/h (3 Bft) O-NO 71 1 min 0,000 mm 0,5 UV-I 234 W/m 1,6 C 8,7 C 17,7 km/h (3 Bft) 95,65 %
06.04.2018 17:46 12,9 C 8,3 C 46 % 1019,4 hPa 0,0 l/m 14,8 km/h (3 Bft) O-SO 111 1 min 0,000 mm 0,5 UV-I 200 W/m 1,6 C 8,7 C 17,7 km/h (3 Bft) 100,00 %
06.04.2018 17:47 12,9 C 8,3 C 46 % 1019,4 hPa 0,0 l/m 14,7 km/h (3 Bft) O-NO 77 1 min 0,000 mm 0,4 UV-I 217 W/m 1,6 C 8,8 C 22,5 km/h (4 Bft) 91,67 %
06.04.2018 17:48 12,9 C 8,3 C 46 % 1019,4 hPa 0,0 l/m 15,8 km/h (3 Bft) O 89 1 min 0,000 mm 0,0 UV-I 262 W/m 1,6 C 8,4 C 22,5 km/h (4 Bft) 100,00 %
06.04.2018 17:49 12,9 C 8,3 C 46 % 1019,4 hPa 0,0 l/m 14,5 km/h (3 Bft) O-NO 69 1 min 0,000 mm 0,0 UV-I 271 W/m 1,6 C 8,8 C 20,9 km/h (4 Bft) 95,83 %
06.04.2018 17:50 12,9 C 8,3 C 48 % 1019,4 hPa 0,0 l/m 19,0 km/h (3 Bft) O 85 1 min 0,000 mm 0,0 UV-I 257 W/m 2,2 C 7,3 C 24,1 km/h (4 Bft) 96,55 %
06.04.2018 17:51 12,9 C 8,3 C 47 % 1019,5 hPa 0,0 l/m 17,0 km/h (3 Bft) O-SO 115 1 min 0,000 mm 0,0 UV-I 217 W/m 1,9 C 8,0 C 25,7 km/h (4 Bft) 96,15 %
06.04.2018 17:52 12,9 C 8,3 C 46 % 1019,4 hPa 0,0 l/m 23,7 km/h (4 Bft) O-NO 74 1 min 0,000 mm 0,0 UV-I 233 W/m 1,6 C 6,1 C 27,4 km/h (4 Bft) 100,00 %
06.04.2018 17:53 12,8 C 8,3 C 45 % 1019,4 hPa 0,0 l/m 20,3 km/h (4 Bft) O-NO 78 1 min 0,000 mm 0,0 UV-I 261 W/m 1,2 C 6,8 C 25,7 km/h (4 Bft) 96,67 %
06.04.2018 17:54 12,8 C 8,3 C 44 % 1019,5 hPa 0,0 l/m 17,4 km/h (3 Bft) O 96 1 min 0,000 mm 0,0 UV-I 264 W/m 0,9 C 7,7 C 22,5 km/h (4 Bft) 92,31 %
06.04.2018 17:55 12,8 C 8,3 C 45 % 1019,5 hPa 0,0 l/m 17,9 km/h (3 Bft) O-SO 109 1 min 0,000 mm 0,0 UV-I 265 W/m 1,2 C 7,5 C 22,5 km/h (4 Bft) 100,00 %
06.04.2018 17:56 12,8 C 8,3 C 46 % 1019,5 hPa 0,0 l/m 16,6 km/h (3 Bft) O 84 1 min 0,000 mm 0,0 UV-I 250 W/m 1,5 C 8,0 C 20,9 km/h (4 Bft) 95,65 %
06.04.2018 17:57 12,8 C 8,3 C 46 % 1019,5 hPa 0,0 l/m 17,7 km/h (3 Bft) O 88 1 min 0,000 mm 0,0 UV-I 220 W/m 1,5 C 7,6 C 24,1 km/h (4 Bft) 100,00 %
06.04.2018 17:58 12,8 C 8,3 C 46 % 1019,4 hPa 0,0 l/m 19,6 km/h (3 Bft) O-SO 110 1 min 0,000 mm 0,0 UV-I 189 W/m 1,5 C 7,0 C 24,1 km/h (4 Bft) 96,15 %
06.04.2018 17:59 12,8 C 8,3 C 45 % 1019,5 hPa 0,0 l/m 18,8 km/h (3 Bft) O-NO 71 0 min 0,000 mm 0,0 UV-I 152 W/m 1,2 C 7,3 C 27,4 km/h (4 Bft) 100,00 %
06.04.2018 18:00 12,7 C 8,3 C 46 % 1019,4 hPa 0,0 l/m 16,1 km/h (3 Bft) O-NO 65 1 min 0,000 mm 0,0 UV-I 165 W/m 1,4 C 8,0 C 22,5 km/h (4 Bft) 96,15 %
06.04.2018 18:01 12,7 C 8,3 C 46 % 1019,5 hPa 0,0 l/m 23,0 km/h (4 Bft) O 92 1 min 0,254 mm 0,0 UV-I 180 W/m 1,4 C 6,0 C 30,6 km/h (5 Bft) 95,83 %
06.04.2018 18:02 12,7 C 8,3 C 45 % 1019,4 hPa 0,0 l/m 20,7 km/h (4 Bft) O-NO 71 1 min 0,000 mm 0,0 UV-I 216 W/m 1,1 C 6,6 C 24,1 km/h (4 Bft) 100,00 %
06.04.2018 18:03 12,7 C 8,3 C 46 % 1019,4 hPa 0,0 l/m 20,1 km/h (4 Bft) O-NO 70 1 min 0,000 mm 0,0 UV-I 234 W/m 1,4 C 6,7 C 25,7 km/h (4 Bft) 96,30 %
06.04.2018 18:04 12,7 C 8,3 C 46 % 1019,4 hPa 0,0 l/m 18,3 km/h (3 Bft) O 87 1 min 0,000 mm 0,0 UV-I 229 W/m 1,4 C 7,3 C 20,9 km/h (4 Bft) 100,00 %
06.04.2018 18:05 12,7 C 8,3 C 47 % 1019,4 hPa 0,0 l/m 16,7 km/h (3 Bft) O 81 1 min 0,000 mm 0,0 UV-I 229 W/m 1,7 C 7,8 C 22,5 km/h (4 Bft) 100,00 %
06.04.2018 18:06 12,7 C 8,3 C 49 % 1019,4 hPa 0,0 l/m 19,6 km/h (3 Bft) O 101 1 min 0,000 mm 0,0 UV-I 226 W/m 2,3 C 6,9 C 29,0 km/h (5 Bft) 96,30 %
06.04.2018 18:07 12,7 C 8,3 C 47 % 1019,4 hPa 0,0 l/m 20,8 km/h (4 Bft) O 80 1 min 0,000 mm 0,0 UV-I 221 W/m 1,7 C 6,5 C 29,0 km/h (5 Bft) 100,00 %
06.04.2018 18:08 12,7 C 8,3 C 47 % 1019,4 hPa 0,0 l/m 14,9 km/h (3 Bft) O-NO 78 1 min 0,000 mm 0,0 UV-I 218 W/m 1,7 C 8,4 C 22,5 km/h (4 Bft) 96,67 %
06.04.2018 18:09 12,7 C 8,3 C 49 % 1019,4 hPa 0,0 l/m 18,3 km/h (3 Bft) O-SO 103 1 min 0,000 mm 0,0 UV-I 218 W/m 2,3 C 7,3 C 24,1 km/h (4 Bft) 96,15 %
06.04.2018 18:10 12,7 C 8,3 C 50 % 1019,4 hPa 0,0 l/m 14,2 km/h (3 Bft) O 92 1 min 0,000 mm 0,0 UV-I 210 W/m 2,6 C 8,7 C 25,7 km/h (4 Bft) 100,00 %
06.04.2018 18:11 12,7 C 8,3 C 48 % 1019,4 hPa 0,0 l/m 18,4 km/h (3 Bft) O 92 1 min 0,000 mm 0,0 UV-I 207 W/m 2,0 C 7,3 C 22,5 km/h (4 Bft) 95,83 %
06.04.2018 18:12 12,7 C 8,3 C 47 % 1019,4 hPa 0,0 l/m 17,3 km/h (3 Bft) O-SO 109 1 min 0,000 mm 0,0 UV-I 205 W/m 1,7 C 7,6 C 20,9 km/h (4 Bft) 100,00 %
06.04.2018 18:13 12,7 C 8,3 C 49 % 1019,4 hPa 0,0 l/m 13,2 km/h (3 Bft) O-SO 114 1 min 0,000 mm 0,0 UV-I 202 W/m 2,3 C 9,1 C 19,3 km/h (3 Bft) 95,65 %
06.04.2018 18:14 12,7 C 8,3 C 48 % 1019,3 hPa 0,0 l/m 16,0 km/h (3 Bft) O 92 1 min 0,000 mm 0,0 UV-I 198 W/m 2,0 C 8,0 C 25,7 km/h (4 Bft) 100,00 %
06.04.2018 18:15 12,7 C 8,3 C 48 % 1019,3 hPa 0,0 l/m 20,0 km/h (4 Bft) O-NO 76 1 min 0,000 mm 0,0 UV-I 192 W/m 2,0 C 6,8 C 24,1 km/h (4 Bft) 96,55 %
06.04.2018 18:16 12,7 C 8,3 C 48 % 1019,3 hPa 0,0 l/m 20,0 km/h (4 Bft) O-NO 74 1 min 0,000 mm 0,0 UV-I 191 W/m 2,0 C 6,8 C 27,4 km/h (4 Bft) 100,00 %
06.04.2018 18:17 12,7 C 8,3 C 49 % 1019,3 hPa 0,0 l/m 18,3 km/h (3 Bft) O-NO 77 1 min 0,000 mm 0,0 UV-I 191 W/m 2,3 C 7,3 C 22,5 km/h (4 Bft) 96,55 %
06.04.2018 18:18 12,7 C 8,3 C 49 % 1019,3 hPa 0,0 l/m 18,7 km/h (3 Bft) O 84 1 min 0,000 mm 0,0 UV-I 189 W/m 2,3 C 7,2 C 22,5 km/h (4 Bft) 96,67 %
06.04.2018 18:19 12,7 C 8,3 C 49 % 1019,3 hPa 0,0 l/m 19,2 km/h (3 Bft) O 80 1 min 0,000 mm 0,0 UV-I 186 W/m 2,3 C 7,0 C 22,5 km/h (4 Bft) 100,00 %
06.04.2018 18:20 12,7 C 8,3 C 49 % 1019,2 hPa 0,0 l/m 18,0 km/h (3 Bft) O 80 1 min 0,000 mm 0,0 UV-I 184 W/m 2,3 C 7,4 C 20,9 km/h (4 Bft) 96,30 %
06.04.2018 18:21 12,7 C 8,3 C 50 % 1019,3 hPa 0,0 l/m 18,9 km/h (3 Bft) O-NO 71 1 min 0,000 mm 0,0 UV-I 176 W/m 2,6 C 7,1 C 24,1 km/h (4 Bft) 100,00 %
06.04.2018 18:22 12,6 C 8,3 C 49 % 1019,2 hPa 0,0 l/m 18,5 km/h (3 Bft) O-NO 64 1 min 0,000 mm 0,0 UV-I 168 W/m 2,2 C 7,1 C 22,5 km/h (4 Bft) 96,30 %
06.04.2018 18:23 12,6 C 8,3 C 50 % 1019,2 hPa 0,0 l/m 18,2 km/h (3 Bft) O 94 1 min 0,000 mm 0,0 UV-I 165 W/m 2,5 C 7,2 C 22,5 km/h (4 Bft) 100,00 %
06.04.2018 18:24 12,6 C 8,3 C 50 % 1019,3 hPa 0,0 l/m 16,7 km/h (3 Bft) O-NO 73 1 min 0,000 mm 0,0 UV-I 165 W/m 2,5 C 7,7 C 20,9 km/h (4 Bft) 96,30 %
06.04.2018 18:25 12,6 C 8,3 C 49 % 1019,2 hPa 0,0 l/m 21,2 km/h (4 Bft) O 89 1 min 0,000 mm 0,0 UV-I 161 W/m 2,2 C 6,3 C 27,4 km/h (4 Bft) 96,55 %
06.04.2018 18:26 12,6 C 8,3 C 50 % 1019,3 hPa 0,0 l/m 16,2 km/h (3 Bft) O 89 1 min 0,000 mm 0,0 UV-I 156 W/m 2,5 C 7,9 C 20,9 km/h (4 Bft) 100,00 %
06.04.2018 18:27 12,6 C 8,3 C 51 % 1019,2 hPa 0,0 l/m 15,6 km/h (3 Bft) O-NO 68 1 min 0,000 mm 0,0 UV-I 148 W/m 2,7 C 8,1 C 20,9 km/h (4 Bft) 91,67 %
06.04.2018 18:28 12,5 C 8,3 C 50 % 1019,2 hPa 0,0 l/m 17,8 km/h (3 Bft) O-SO 105 1 min 0,000 mm 0,0 UV-I 143 W/m 2,4 C 7,2 C 25,7 km/h (4 Bft) 96,15 %
06.04.2018 18:29 12,5 C 8,3 C 50 % 1019,2 hPa 0,0 l/m 17,6 km/h (3 Bft) O 97 1 min 0,000 mm 0,0 UV-I 140 W/m 2,4 C 7,3 C 20,9 km/h (4 Bft) 96,55 %
06.04.2018 18:30 12,5 C 8,3 C 50 % 1019,2 hPa 0,0 l/m 16,3 km/h (3 Bft) O 94 1 min 0,000 mm 0,0 UV-I 141 W/m 2,4 C 7,7 C 20,9 km/h (4 Bft) 100,00 %
06.04.2018 18:31 12,5 C 8,3 C 49 % 1019,3 hPa 0,0 l/m 15,1 km/h (3 Bft) O-NO 74 1 min 0,000 mm 0,0 UV-I 142 W/m 2,1 C 8,1 C 20,9 km/h (4 Bft) 93,33 %
06.04.2018 18:32 12,5 C 8,3 C 50 % 1019,2 hPa 0,0 l/m 14,1 km/h (3 Bft) O 85 1 min 0,000 mm 0,0 UV-I 142 W/m 2,4 C 8,5 C 17,7 km/h (3 Bft) 100,00 %
06.04.2018 18:33 12,5 C 8,3 C 51 % 1019,2 hPa 0,0 l/m 13,8 km/h (3 Bft) O-NO 64 1 min 0,000 mm 0,0 UV-I 140 W/m 2,6 C 8,6 C 17,7 km/h (3 Bft) 96,30 %
06.04.2018 18:34 12,5 C 8,3 C 51 % 1019,2 hPa 0,0 l/m 17,9 km/h (3 Bft) O-NO 78 1 min 0,000 mm 0,0 UV-I 137 W/m 2,6 C 7,2 C 22,5 km/h (4 Bft) 100,00 %
06.04.2018 18:35 12,5 C 8,3 C 51 % 1019,2 hPa 0,0 l/m 14,9 km/h (3 Bft) O 100 1 min 0,000 mm 0,0 UV-I 135 W/m 2,6 C 8,2 C 19,3 km/h (3 Bft) 96,88 %
06.04.2018 18:36 12,4 C 8,3 C 49 % 1019,3 hPa 0,0 l/m 19,6 km/h (3 Bft) O 86 1 min 0,000 mm 0,0 UV-I 134 W/m 2,0 C 6,5 C 24,1 km/h (4 Bft) 100,00 %
06.04.2018 18:37 12,4 C 8,3 C 49 % 1019,3 hPa 0,0 l/m 18,7 km/h (3 Bft) O-NO 67 1 min 0,000 mm 0,0 UV-I 133 W/m 2,0 C 6,8 C 25,7 km/h (4 Bft) 96,30 %
06.04.2018 18:38 12,4 C 8,3 C 50 % 1019,3 hPa 0,0 l/m 17,5 km/h (3 Bft) O-NO 69 1 min 0,000 mm 0,0 UV-I 128 W/m 2,3 C 7,2 C 22,5 km/h (4 Bft) 92,31 %
06.04.2018 18:39 12,4 C 8,3 C 50 % 1019,3 hPa 0,0 l/m 15,2 km/h (3 Bft) O-SO 103 1 min 0,000 mm 0,0 UV-I 119 W/m 2,3 C 8,0 C 22,5 km/h (4 Bft) 100,00 %
06.04.2018 18:40 12,4 C 8,3 C 50 % 1019,2 hPa 0,0 l/m 17,5 km/h (3 Bft) O-NO 74 1 min 0,000 mm 0,0 UV-I 116 W/m 2,3 C 7,2 C 20,9 km/h (4 Bft) 97,56 %
06.04.2018 18:41 12,4 C 8,3 C 50 % 1019,2 hPa 0,0 l/m 14,0 km/h (3 Bft) O-NO 59 1 min 0,000 mm 0,0 UV-I 121 W/m 2,3 C 8,4 C 17,7 km/h (3 Bft) 100,00 %
06.04.2018 18:42 12,4 C 8,3 C 51 % 1019,2 hPa 0,0 l/m 15,2 km/h (3 Bft) O-SO 115 1 min 0,000 mm 0,0 UV-I 117 W/m 2,6 C 8,0 C 20,9 km/h (4 Bft) 90,91 %
06.04.2018 18:43 12,3 C 8,3 C 51 % 1019,2 hPa 0,0 l/m 16,5 km/h (3 Bft) O 86 1 min 0,000 mm 0,0 UV-I 113 W/m 2,5 C 7,4 C 20,9 km/h (4 Bft) 100,00 %
06.04.2018 18:44 12,3 C 8,3 C 50 % 1019,2 hPa 0,0 l/m 14,6 km/h (3 Bft) O-SO 107 1 min 0,000 mm 0,0 UV-I 109 W/m 2,2 C 8,1 C 19,3 km/h (3 Bft) 97,37 %
06.04.2018 18:45 12,3 C 8,3 C 51 % 1019,2 hPa 0,0 l/m 19,7 km/h (3 Bft) O-NO 75 1 min 0,000 mm 0,0 UV-I 104 W/m 2,5 C 6,3 C 24,1 km/h (4 Bft) 96,30 %
06.04.2018 18:46 12,3 C 8,3 C 51 % 1019,2 hPa 0,0 l/m 16,9 km/h (3 Bft) O 81 1 min 0,000 mm 0,0 UV-I 102 W/m 2,5 C 7,2 C 22,5 km/h (4 Bft) 98,10 %
06.04.2018 18:47 12,3 C 8,3 C 51 % 1019,2 hPa 0,0 l/m 16,7 km/h (3 Bft) O 101 1 min 0,000 mm 0,0 UV-I 98 W/m 2,5 C 7,3 C 25,7 km/h (4 Bft) 95,45 %
06.04.2018 18:48 12,3 C 8,3 C 52 % 1019,2 hPa 0,0 l/m 19,2 km/h (3 Bft) O 88 1 min 0,000 mm 0,0 UV-I 91 W/m 2,7 C 6,5 C 24,1 km/h (4 Bft) 96,15 %
06.04.2018 18:49 12,2 C 8,3 C 51 % 1019,2 hPa 0,0 l/m 19,8 km/h (3 Bft) O-NO 78 1 min 0,000 mm 0,0 UV-I 88 W/m 2,4 C 6,2 C 24,1 km/h (4 Bft) 98,09 %
06.04.2018 18:50 12,2 C 8,3 C 51 % 1019,1 hPa 0,0 l/m 19,2 km/h (3 Bft) O-NO 77 1 min 0,000 mm 0,0 UV-I 91 W/m 2,4 C 6,4 C 24,1 km/h (4 Bft) 95,24 %
06.04.2018 18:51 12,2 C 8,3 C 50 % 1019,2 hPa 0,0 l/m 18,8 km/h (3 Bft) O-NO 66 1 min 0,000 mm 0,0 UV-I 87 W/m 2,1 C 6,5 C 25,7 km/h (4 Bft) 92,31 %
06.04.2018 18:52 12,2 C 8,3 C 50 % 1019,2 hPa 0,0 l/m 17,9 km/h (3 Bft) O 84 1 min 0,000 mm 0,0 UV-I 83 W/m 2,1 C 6,8 C 24,1 km/h (4 Bft) 96,30 %
06.04.2018 18:53 12,2 C 8,3 C 51 % 1019,1 hPa 0,0 l/m 17,1 km/h (3 Bft) O 98 1 min 0,000 mm 0,0 UV-I 80 W/m 2,4 C 7,0 C 22,5 km/h (4 Bft) 88,24 %
06.04.2018 18:54 12,2 C 8,3 C 50 % 1019,1 hPa 0,0 l/m 18,0 km/h (3 Bft) O-NO 65 1 min 0,000 mm 0,0 UV-I 79 W/m 2,1 C 6,7 C 22,5 km/h (4 Bft) 100,00 %
06.04.2018 18:55 12,2 C 8,3 C 51 % 1019,1 hPa 0,0 l/m 18,9 km/h (3 Bft) O 84 1 min 0,000 mm 0,0 UV-I 77 W/m 2,4 C 6,5 C 24,1 km/h (4 Bft) 92,31 %
06.04.2018 18:56 12,1 C 8,3 C 50 % 1019,1 hPa 0,0 l/m 18,6 km/h (3 Bft) O-NO 66 1 min 0,000 mm 0,0 UV-I 76 W/m 2,0 C 6,4 C 24,1 km/h (4 Bft) 96,30 %
06.04.2018 18:57 12,1 C 8,3 C 51 % 1019,1 hPa 0,0 l/m 15,7 km/h (3 Bft) O-NO 78 1 min 0,000 mm 0,0 UV-I 76 W/m 2,3 C 7,4 C 20,9 km/h (4 Bft) 95,65 %
06.04.2018 18:58 12,1 C 8,3 C 52 % 1019,1 hPa 0,0 l/m 14,5 km/h (3 Bft) O 92 1 min 0,000 mm 0,0 UV-I 74 W/m 2,5 C 7,9 C 17,7 km/h (3 Bft) 100,00 %
06.04.2018 18:59 12,1 C 8,3 C 52 % 1019,1 hPa 0,0 l/m 18,3 km/h (3 Bft) O 86 1 min 0,000 mm 0,0 UV-I 71 W/m 2,5 C 6,5 C 22,5 km/h (4 Bft) 88,46 %
06.04.2018 19:00 12,0 C 8,3 C 52 % 1019,1 hPa 0,0 l/m 16,9 km/h (3 Bft) O-SO 104 1 min 0,000 mm 0,0 UV-I 69 W/m 2,5 C 6,9 C 22,5 km/h (4 Bft) 88,89 %
06.04.2018 19:01 12,0 C 8,3 C 52 % 1019,1 hPa 0,0 l/m 15,4 km/h (3 Bft) O-NO 69 1 min 0,178 mm 0,0 UV-I 67 W/m 2,5 C 7,4 C 17,7 km/h (3 Bft) 100,00 %
06.04.2018 19:02 12,0 C 8,3 C 52 % 1019,1 hPa 0,0 l/m 16,8 km/h (3 Bft) O 85 1 min 0,000 mm 0,0 UV-I 65 W/m 2,5 C 6,9 C 24,1 km/h (4 Bft) 96,15 %
06.04.2018 19:03 12,0 C 8,3 C 51 % 1019,2 hPa 0,0 l/m 16,5 km/h (3 Bft) NO 53 1 min 0,000 mm 0,0 UV-I 65 W/m 2,2 C 7,0 C 22,5 km/h (4 Bft) 96,15 %
06.04.2018 19:04 11,9 C 8,3 C 52 % 1019,2 hPa 0,0 l/m 16,9 km/h (3 Bft) O-NO 77 1 min 0,000 mm 0,0 UV-I 64 W/m 2,4 C 6,7 C 22,5 km/h (4 Bft) 91,67 %
06.04.2018 19:05 11,9 C 8,3 C 52 % 1019,2 hPa 0,0 l/m 15,4 km/h (3 Bft) O 94 1 min 0,000 mm 0,0 UV-I 63 W/m 2,4 C 7,3 C 20,9 km/h (4 Bft) 100,00 %
06.04.2018 19:06 11,9 C 8,3 C 53 % 1019,2 hPa 0,0 l/m 13,8 km/h (3 Bft) O 96 1 min 0,000 mm 0,0 UV-I 59 W/m 2,6 C 7,9 C 17,7 km/h (3 Bft) 92,31 %
06.04.2018 19:07 11,8 C 8,3 C 53 % 1019,2 hPa 0,0 l/m 16,0 km/h (3 Bft) O 90 1 min 0,000 mm 0,0 UV-I 54 W/m 2,5 C 6,9 C 20,9 km/h (4 Bft) 96,15 %
06.04.2018 19:08 11,8 C 8,3 C 53 % 1019,2 hPa 0,0 l/m 14,9 km/h (3 Bft) O-SO 105 1 min 0,000 mm 0,0 UV-I 53 W/m 2,5 C 7,4 C 20,9 km/h (4 Bft) 95,83 %
06.04.2018 19:09 11,8 C 8,3 C 53 % 1019,2 hPa 0,0 l/m 18,4 km/h (3 Bft) O-NO 70 1 min 0,000 mm 0,0 UV-I 48 W/m 2,5 C 6,1 C 25,7 km/h (4 Bft) 91,30 %
06.04.2018 19:10 11,8 C 8,3 C 53 % 1019,1 hPa 0,0 l/m 13,1 km/h (3 Bft) O 80 1 min 0,000 mm 0,0 UV-I 46 W/m 2,5 C 8,1 C 19,3 km/h (3 Bft) 93,33 %
06.04.2018 19:11 11,8 C 8,3 C 54 % 1019,2 hPa 0,0 l/m 15,5 km/h (3 Bft) O 100 1 min 0,000 mm 0,0 UV-I 42 W/m 2,8 C 7,1 C 20,9 km/h (4 Bft) 91,67 %
06.04.2018 19:12 11,7 C 8,3 C 54 % 1019,2 hPa 0,0 l/m 16,1 km/h (3 Bft) O 98 1 min 0,000 mm 0,0 UV-I 38 W/m 2,7 C 6,8 C 19,3 km/h (3 Bft) 100,00 %
06.04.2018 19:13 11,7 C 8,3 C 55 % 1019,2 hPa 0,0 l/m 15,6 km/h (3 Bft) O 80 0 min 0,000 mm 0,0 UV-I 35 W/m 3,0 C 7,0 C 20,9 km/h (4 Bft) 95,83 %
06.04.2018 19:14 11,6 C 8,3 C 55 % 1019,2 hPa 0,0 l/m 14,3 km/h (3 Bft) O 83 1 min 0,000 mm 0,0 UV-I 35 W/m 2,9 C 7,4 C 22,5 km/h (4 Bft) 100,00 %
06.04.2018 19:15 11,6 C 8,3 C 54 % 1019,2 hPa 0,0 l/m 15,1 km/h (3 Bft) O 92 1 min 0,000 mm 0,0 UV-I 35 W/m 2,6 C 7,0 C 19,3 km/h (3 Bft) 92,59 %
06.04.2018 19:16 11,6 C 8,3 C 54 % 1019,3 hPa 0,0 l/m 15,6 km/h (3 Bft) O 101 1 min 0,000 mm 0,0 UV-I 34 W/m 2,6 C 6,8 C 20,9 km/h (4 Bft) 92,86 %
06.04.2018 19:17 11,5 C 8,3 C 56 % 1019,3 hPa 0,0 l/m 14,1 km/h (3 Bft) O 97 1 min 0,000 mm 0,0 UV-I 33 W/m 3,0 C 7,3 C 19,3 km/h (3 Bft) 96,67 %
06.04.2018 19:18 11,4 C 8,3 C 56 % 1019,3 hPa 0,0 l/m 15,6 km/h (3 Bft) O 89 1 min 0,000 mm 0,0 UV-I 33 W/m 2,9 C 6,6 C 20,9 km/h (4 Bft) 96,15 %
06.04.2018 19:19 11,4 C 8,3 C 56 % 1019,3 hPa 0,0 l/m 15,0 km/h (3 Bft) O 90 1 min 0,000 mm 0,0 UV-I 35 W/m 2,9 C 6,8 C 19,3 km/h (3 Bft) 100,00 %
06.04.2018 19:20 11,3 C 8,3 C 56 % 1019,3 hPa 0,0 l/m 14,9 km/h (3 Bft) O 99 1 min 0,000 mm 0,0 UV-I 35 W/m 2,8 C 6,7 C 17,7 km/h (3 Bft) 100,00 %
06.04.2018 19:21 11,3 C 8,3 C 57 % 1019,3 hPa 0,0 l/m 13,1 km/h (3 Bft) O-NO 65 1 min 0,000 mm 0,0 UV-I 33 W/m 3,1 C 7,5 C 14,5 km/h (3 Bft) 100,00 %
06.04.2018 19:22 11,3 C 8,3 C 57 % 1019,3 hPa 0,0 l/m 17,1 km/h (3 Bft) O-SO 108 1 min 0,000 mm 0,0 UV-I 32 W/m 3,1 C 5,9 C 25,7 km/h (4 Bft) 92,31 %
06.04.2018 19:23 11,3 C 8,3 C 56 % 1019,3 hPa 0,0 l/m 15,5 km/h (3 Bft) O 93 1 min 0,000 mm 0,0 UV-I 31 W/m 2,8 C 6,5 C 20,9 km/h (4 Bft) 100,00 %
06.04.2018 19:24 11,3 C 8,3 C 56 % 1019,3 hPa 0,0 l/m 14,1 km/h (3 Bft) O 83 1 min 0,000 mm 0,0 UV-I 30 W/m 2,8 C 7,1 C 19,3 km/h (3 Bft) 100,00 %
06.04.2018 19:25 11,3 C 8,3 C 56 % 1019,3 hPa 0,0 l/m 13,7 km/h (3 Bft) O-SO 110 1 min 0,000 mm 0,0 UV-I 28 W/m 2,8 C 7,2 C 19,3 km/h (3 Bft) 95,65 %
06.04.2018 19:26 11,3 C 8,3 C 57 % 1019,3 hPa 0,0 l/m 11,7 km/h (2 Bft) O-NO 76 1 min 0,000 mm 0,0 UV-I 26 W/m 3,1 C 8,2 C 14,5 km/h (3 Bft) 96,30 %
06.04.2018 19:27 11,2 C 8,3 C 57 % 1019,3 hPa 0,0 l/m 16,9 km/h (3 Bft) O 80 1 min 0,000 mm 0,0 UV-I 26 W/m 3,0 C 5,9 C 20,9 km/h (4 Bft) 96,15 %
06.04.2018 19:28 11,2 C 8,3 C 57 % 1019,3 hPa 0,0 l/m 14,4 km/h (3 Bft) O-NO 59 1 min 0,000 mm 0,0 UV-I 25 W/m 3,0 C 6,8 C 19,3 km/h (3 Bft) 100,00 %
06.04.2018 19:29 11,2 C 8,3 C 57 % 1019,3 hPa 0,0 l/m 15,8 km/h (3 Bft) O 98 1 min 0,000 mm 0,0 UV-I 24 W/m 3,0 C 6,3 C 19,3 km/h (3 Bft) 96,15 %
06.04.2018 19:30 11,2 C 8,3 C 57 % 1019,3 hPa 0,0 l/m 15,2 km/h (3 Bft) O 89 1 min 0,000 mm 0,0 UV-I 22 W/m 3,0 C 6,5 C 22,5 km/h (4 Bft) 100,00 %
06.04.2018 19:31 11,1 C 8,3 C 57 % 1019,3 hPa 0,0 l/m 17,6 km/h (3 Bft) O-NO 78 0 min 0,000 mm 0,0 UV-I 19 W/m 2,9 C 5,5 C 22,5 km/h (4 Bft) 100,00 %
06.04.2018 19:32 11,1 C 8,3 C 57 % 1019,3 hPa 0,0 l/m 16,8 km/h (3 Bft) O 80 0 min 0,000 mm 0,0 UV-I 18 W/m 2,9 C 5,8 C 20,9 km/h (4 Bft) 96,30 %
06.04.2018 19:33 11,1 C 8,3 C 57 % 1019,3 hPa 0,0 l/m 16,9 km/h (3 Bft) O-NO 64 0 min 0,000 mm 0,0 UV-I 15 W/m 2,9 C 5,7 C 24,1 km/h (4 Bft) 100,00 %
06.04.2018 19:34 11,1 C 8,3 C 57 % 1019,3 hPa 0,0 l/m 14,6 km/h (3 Bft) O 89 0 min 0,000 mm 0,0 UV-I 14 W/m 2,9 C 6,6 C 20,9 km/h (4 Bft) 100,00 %
06.04.2018 19:35 11,1 C 8,3 C 57 % 1019,3 hPa 0,0 l/m 14,9 km/h (3 Bft) O-NO 73 0 min 0,000 mm 0,0 UV-I 13 W/m 2,9 C 6,5 C 19,3 km/h (3 Bft) 94,12 %
06.04.2018 19:36 11,1 C 8,3 C 58 % 1019,3 hPa 0,0 l/m 16,5 km/h (3 Bft) O 101 0 min 0,000 mm 0,0 UV-I 12 W/m 3,2 C 5,9 C 22,5 km/h (4 Bft) 100,00 %
06.04.2018 19:37 11,1 C 8,3 C 57 % 1019,3 hPa 0,0 l/m 19,2 km/h (3 Bft) O 86 0 min 0,000 mm 0,0 UV-I 12 W/m 2,9 C 5,0 C 25,7 km/h (4 Bft) 100,00 %
06.04.2018 19:38 11,0 C 8,3 C 58 % 1019,3 hPa 0,0 l/m 13,6 km/h (3 Bft) O-NO 67 0 min 0,000 mm 0,0 UV-I 11 W/m 3,1 C 6,9 C 17,7 km/h (3 Bft) 100,00 %
06.04.2018 19:39 10,9 C 8,3 C 58 % 1019,3 hPa 0,0 l/m 13,4 km/h (3 Bft) O 84 0 min 0,000 mm 0,0 UV-I 11 W/m 3,0 C 6,9 C 16,1 km/h (3 Bft) 100,00 %
06.04.2018 19:40 10,9 C 8,3 C 59 % 1019,3 hPa 0,0 l/m 13,4 km/h (3 Bft) O-NO 76 0 min 0,000 mm 0,0 UV-I 11 W/m 3,2 C 6,9 C 17,7 km/h (3 Bft) 100,00 %
06.04.2018 19:41 10,8 C 8,3 C 58 % 1019,3 hPa 0,0 l/m 12,6 km/h (3 Bft) O-SO 102 0 min 0,000 mm 0,0 UV-I 10 W/m 2,9 C 7,1 C 16,1 km/h (3 Bft) 95,65 %
06.04.2018 19:42 10,8 C 8,3 C 58 % 1019,3 hPa 0,0 l/m 14,4 km/h (3 Bft) O 87 0 min 0,000 mm 0,0 UV-I 9 W/m 2,9 C 6,4 C 17,7 km/h (3 Bft) 100,00 %
06.04.2018 19:43 10,8 C 8,3 C 58 % 1019,3 hPa 0,0 l/m 15,0 km/h (3 Bft) O-NO 77 0 min 0,000 mm 0,0 UV-I 9 W/m 2,9 C 6,1 C 19,3 km/h (3 Bft) 100,00 %
06.04.2018 19:44 10,8 C 8,3 C 58 % 1019,3 hPa 0,0 l/m 13,9 km/h (3 Bft) O 88 0 min 0,000 mm 0,0 UV-I 9 W/m 2,9 C 6,6 C 17,7 km/h (3 Bft) 100,00 %
06.04.2018 19:45 10,8 C 8,3 C 58 % 1019,3 hPa 0,0 l/m 15,8 km/h (3 Bft) O-SO 109 0 min 0,000 mm 0,0 UV-I 7 W/m 2,9 C 5,8 C 19,3 km/h (3 Bft) 100,00 %
06.04.2018 19:46 10,8 C 8,3 C 58 % 1019,3 hPa 0,0 l/m 12,6 km/h (3 Bft) O 86 0 min 0,000 mm 0,0 UV-I 7 W/m 2,9 C 7,1 C 17,7 km/h (3 Bft) 100,00 %
06.04.2018 19:47 10,8 C 8,3 C 58 % 1019,3 hPa 0,0 l/m 13,6 km/h (3 Bft) O 81 0 min 0,000 mm 0,0 UV-I 7 W/m 2,9 C 6,7 C 17,7 km/h (3 Bft) 100,00 %
06.04.2018 19:48 10,7 C 8,3 C 58 % 1019,3 hPa 0,0 l/m 16,6 km/h (3 Bft) O-NO 68 0 min 0,000 mm 0,0 UV-I 7 W/m 2,8 C 5,4 C 22,5 km/h (4 Bft) 100,00 %
06.04.2018 19:49 10,7 C 8,3 C 59 % 1019,3 hPa 0,0 l/m 15,8 km/h (3 Bft) O-NO 72 0 min 0,000 mm 0,0 UV-I 7 W/m 3,0 C 5,7 C 20,9 km/h (4 Bft) 100,00 %
06.04.2018 19:50 10,7 C 8,3 C 59 % 1019,3 hPa 0,0 l/m 16,0 km/h (3 Bft) O-NO 66 0 min 0,000 mm 0,0 UV-I 6 W/m 3,0 C 5,6 C 22,5 km/h (4 Bft) 100,00 %
06.04.2018 19:51 10,7 C 8,3 C 59 % 1019,3 hPa 0,0 l/m 18,6 km/h (3 Bft) O-NO 69 0 min 0,000 mm 0,0 UV-I 5 W/m 3,0 C 4,6 C 20,9 km/h (4 Bft) 93,33 %
06.04.2018 19:52 10,7 C 8,3 C 58 % 1019,3 hPa 0,0 l/m 16,1 km/h (3 Bft) O-NO 76 0 min 0,000 mm 0,0 UV-I 5 W/m 2,8 C 5,5 C 19,3 km/h (3 Bft) 96,88 %
06.04.2018 19:53 10,7 C 8,3 C 59 % 1019,3 hPa 0,0 l/m 18,4 km/h (3 Bft) O 86 0 min 0,000 mm 0,0 UV-I 5 W/m 3,0 C 4,7 C 24,1 km/h (4 Bft) 100,00 %
06.04.2018 19:54 10,7 C 8,3 C 58 % 1019,4 hPa 0,0 l/m 15,8 km/h (3 Bft) O 97 0 min 0,000 mm 0,0 UV-I 5 W/m 2,8 C 5,7 C 20,9 km/h (4 Bft) 100,00 %
06.04.2018 19:55 10,7 C 8,3 C 59 % 1019,4 hPa 0,0 l/m 16,9 km/h (3 Bft) O 89 0 min 0,000 mm 0,0 UV-I 5 W/m 3,0 C 5,2 C 22,5 km/h (4 Bft) 100,00 %
06.04.2018 19:56 10,7 C 8,3 C 59 % 1019,4 hPa 0,0 l/m 16,2 km/h (3 Bft) O-NO 78 0 min 0,000 mm 0,0 UV-I 4 W/m 3,0 C 5,5 C 24,1 km/h (4 Bft) 100,00 %
06.04.2018 19:57 10,6 C 8,3 C 59 % 1019,4 hPa 0,0 l/m 15,7 km/h (3 Bft) O-NO 67 0 min 0,000 mm 0,0 UV-I 0 W/m 2,9 C 5,6 C 20,9 km/h (4 Bft) 100,00 %
06.04.2018 19:59 10,6 C 8,3 C 60 % 1019,4 hPa 0,0 l/m 16,6 km/h (3 Bft) O-NO 68 0 min 0,000 mm 0,0 UV-I 0 W/m 3,2 C 5,2 C 20,9 km/h (4 Bft) 100,00 %
06.04.2018 20:00 10,5 C 8,3 C 60 % 1019,4 hPa 0,0 l/m 17,6 km/h (3 Bft) O 84 0 min 0,000 mm 0,0 UV-I 0 W/m 3,1 C 4,7 C 20,9 km/h (4 Bft) 100,00 %
06.04.2018 20:01 10,5 C 8,3 C 60 % 1019,4 hPa 0,0 l/m 16,1 km/h (3 Bft) O 101 0 min 0,076 mm 0,0 UV-I 0 W/m 3,1 C 5,3 C 20,9 km/h (4 Bft) 100,00 %
06.04.2018 20:02 10,4 C 8,3 C 60 % 1019,4 hPa 0,0 l/m 16,2 km/h (3 Bft) NO 40 0 min 0,000 mm 0,0 UV-I 0 W/m 3,0 C 5,1 C 20,9 km/h (4 Bft) 100,00 %
06.04.2018 20:04 10,4 C 8,3 C 61 % 1019,5 hPa 0,0 l/m 17,2 km/h (3 Bft) O-NO 76 0 min 0,000 mm 0,0 UV-I 0 W/m 3,2 C 4,8 C 24,1 km/h (4 Bft) 100,00 %
06.04.2018 20:05 10,3 C 8,3 C 61 % 1019,5 hPa 0,0 l/m 16,5 km/h (3 Bft) O-NO 67 0 min 0,000 mm 0,0 UV-I 0 W/m 3,1 C 4,9 C 22,5 km/h (4 Bft) 100,00 %
06.04.2018 20:06 10,3 C 8,3 C 61 % 1019,5 hPa 0,0 l/m 17,5 km/h (3 Bft) O 90 0 min 0,000 mm 0,0 UV-I 0 W/m 3,1 C 4,5 C 22,5 km/h (4 Bft) 100,00 %
06.04.2018 20:07 10,3 C 8,3 C 61 % 1019,4 hPa 0,0 l/m 15,9 km/h (3 Bft) O 87 0 min 0,000 mm 0,0 UV-I 0 W/m 3,1 C 5,1 C 19,3 km/h (3 Bft) 100,00 %
06.04.2018 20:08 10,2 C 8,3 C 61 % 1019,5 hPa 0,0 l/m 16,3 km/h (3 Bft) O-NO 69 0 min 0,000 mm 0,0 UV-I 0 W/m 3,0 C 4,9 C 19,3 km/h (3 Bft) 95,83 %
06.04.2018 20:09 10,2 C 8,3 C 62 % 1019,5 hPa 0,0 l/m 15,1 km/h (3 Bft) O-NO 57 0 min 0,000 mm 0,0 UV-I 0 W/m 3,3 C 5,3 C 19,3 km/h (3 Bft) 100,00 %
06.04.2018 20:10 10,1 C 8,3 C 62 % 1019,5 hPa 0,0 l/m 14,8 km/h (3 Bft) O-NO 64 0 min 0,000 mm 0,0 UV-I 0 W/m 3,2 C 5,3 C 17,7 km/h (3 Bft) 100,00 %
06.04.2018 20:11 10,1 C 8,3 C 63 % 1019,6 hPa 0,0 l/m 13,4 km/h (3 Bft) O-NO 76 0 min 0,000 mm 0,0 UV-I 0 W/m 3,4 C 6,0 C 20,9 km/h (4 Bft) 100,00 %
06.04.2018 20:12 10,0 C 8,3 C 63 % 1019,6 hPa 0,0 l/m 16,4 km/h (3 Bft) O-NO 66 0 min 0,000 mm 0,0 UV-I 0 W/m 3,3 C 4,6 C 19,3 km/h (3 Bft) 95,83 %
06.04.2018 20:14 9,9 C 8,3 C 62 % 1019,6 hPa 0,0 l/m 14,8 km/h (3 Bft) O-NO 65 0 min 0,000 mm 0,0 UV-I 0 W/m 3,0 C 5,1 C 19,3 km/h (3 Bft) 100,00 %
06.04.2018 20:15 9,9 C 8,3 C 63 % 1019,6 hPa 0,0 l/m 12,2 km/h (2 Bft) O-NO 63 0 min 0,000 mm 0,0 UV-I 0 W/m 3,2 C 6,3 C 16,1 km/h (3 Bft) 100,00 %
06.04.2018 20:16 9,9 C 8,3 C 63 % 1019,6 hPa 0,0 l/m 12,2 km/h (2 Bft) O-NO 70 0 min 0,000 mm 0,0 UV-I 0 W/m 3,2 C 6,3 C 16,1 km/h (3 Bft) 100,00 %
06.04.2018 20:17 9,8 C 8,3 C 64 % 1019,7 hPa 0,0 l/m 11,5 km/h (2 Bft) O-NO 69 0 min 0,000 mm 0,0 UV-I 0 W/m 3,3 C 6,5 C 17,7 km/h (3 Bft) 100,00 %
06.04.2018 20:18 9,8 C 8,3 C 64 % 1019,7 hPa 0,0 l/m 11,2 km/h (2 Bft) O 80 0 min 0,000 mm 0,0 UV-I 0 W/m 3,3 C 6,7 C 16,1 km/h (3 Bft) 92,31 %
06.04.2018 20:19 9,8 C 8,3 C 64 % 1019,7 hPa 0,0 l/m 12,2 km/h (2 Bft) O 90 0 min 0,000 mm 0,0 UV-I 0 W/m 3,3 C 6,2 C 19,3 km/h (3 Bft) 100,00 %
06.04.2018 20:20 9,8 C 8,3 C 64 % 1019,7 hPa 0,0 l/m 13,4 km/h (3 Bft) O 87 0 min 0,000 mm 0,0 UV-I 0 W/m 3,3 C 5,6 C 16,1 km/h (3 Bft) 100,00 %
06.04.2018 20:21 9,7 C 8,3 C 64 % 1019,7 hPa 0,0 l/m 13,6 km/h (3 Bft) O 94 0 min 0,000 mm 0,0 UV-I 0 W/m 3,2 C 5,4 C 20,9 km/h (4 Bft) 100,00 %
06.04.2018 20:22 9,7 C 8,3 C 64 % 1019,7 hPa 0,0 l/m 13,6 km/h (3 Bft) O 85 0 min 0,000 mm 0,0 UV-I 0 W/m 3,2 C 5,4 C 17,7 km/h (3 Bft) 100,00 %
06.04.2018 20:24 9,8 C 8,3 C 63 % 1019,8 hPa 0,0 l/m 9,8 km/h (2 Bft) O 80 0 min 0,000 mm 0,0 UV-I 0 W/m 3,1 C 7,5 C 16,1 km/h (3 Bft) 97,06 %
06.04.2018 20:25 9,8 C 8,3 C 64 % 1019,8 hPa 0,0 l/m 11,9 km/h (2 Bft) O 93 0 min 0,000 mm 0,0 UV-I 0 W/m 3,3 C 6,3 C 14,5 km/h (3 Bft) 100,00 %
06.04.2018 20:26 9,8 C 8,3 C 64 % 1019,8 hPa 0,0 l/m 14,6 km/h (3 Bft) O 99 0 min 0,000 mm 0,0 UV-I 0 W/m 3,3 C 5,1 C 16,1 km/h (3 Bft) 100,00 %
06.04.2018 20:27 9,8 C 8,3 C 64 % 1019,8 hPa 0,0 l/m 13,3 km/h (3 Bft) O 97 0 min 0,000 mm 0,0 UV-I 0 W/m 3,3 C 5,6 C 19,3 km/h (3 Bft) 100,00 %
06.04.2018 20:28 9,8 C 8,3 C 64 % 1019,8 hPa 0,0 l/m 12,5 km/h (3 Bft) O 99 0 min 0,000 mm 0,0 UV-I 0 W/m 3,3 C 6,0 C 19,3 km/h (3 Bft) 100,00 %
06.04.2018 20:29 9,8 C 8,3 C 63 % 1019,8 hPa 0,0 l/m 13,3 km/h (3 Bft) O-NO 67 0 min 0,000 mm 0,0 UV-I 0 W/m 3,1 C 5,6 C 16,1 km/h (3 Bft) 100,00 %
06.04.2018 20:30 9,8 C 8,3 C 63 % 1019,8 hPa 0,0 l/m 13,6 km/h (3 Bft) O-SO 114 0 min 0,000 mm 0,0 UV-I 0 W/m 3,1 C 5,5 C 19,3 km/h (3 Bft) 100,00 %
06.04.2018 20:31 9,8 C 8,3 C 64 % 1019,8 hPa 0,0 l/m 14,7 km/h (3 Bft) O-NO 76 0 min 0,000 mm 0,0 UV-I 0 W/m 3,3 C 5,0 C 17,7 km/h (3 Bft) 100,00 %
06.04.2018 20:32 9,8 C 8,3 C 64 % 1019,8 hPa 0,0 l/m 14,1 km/h (3 Bft) O 94 0 min 0,000 mm 0,0 UV-I 0 W/m 3,3 C 5,3 C 17,7 km/h (3 Bft) 100,00 %
06.04.2018 20:34 9,7 C 8,3 C 64 % 1019,8 hPa 0,0 l/m 12,3 km/h (3 Bft) O 96 0 min 0,000 mm 0,0 UV-I 0 W/m 3,2 C 6,0 C 16,1 km/h (3 Bft) 97,87 %
06.04.2018 20:35 9,7 C 8,3 C 64 % 1019,8 hPa 0,0 l/m 11,3 km/h (2 Bft) O-NO 67 0 min 0,000 mm 0,0 UV-I 0 W/m 3,2 C 6,5 C 14,5 km/h (3 Bft) 100,00 %
06.04.2018 20:36 9,7 C 8,3 C 64 % 1019,9 hPa 0,0 l/m 8,4 km/h (2 Bft) O-NO 70 0 min 0,000 mm 0,0 UV-I 0 W/m 3,2 C 8,3 C 11,3 km/h (2 Bft) 100,00 %
06.04.2018 20:37 9,7 C 8,3 C 65 % 1019,9 hPa 0,0 l/m 11,0 km/h (2 Bft) O 84 0 min 0,000 mm 0,0 UV-I 0 W/m 3,4 C 6,7 C 14,5 km/h (3 Bft) 100,00 %
06.04.2018 20:39 9,6 C 8,3 C 65 % 1019,9 hPa 0,0 l/m 12,0 km/h (2 Bft) O 94 0 min 0,000 mm 0,0 UV-I 0 W/m 3,4 C 6,1 C 17,7 km/h (3 Bft) 100,00 %
06.04.2018 20:40 9,6 C 8,3 C 65 % 1019,9 hPa 0,0 l/m 10,2 km/h (2 Bft) O 90 0 min 0,000 mm 0,0 UV-I 0 W/m 3,4 C 7,0 C 14,5 km/h (3 Bft) 100,00 %
06.04.2018 20:41 9,5 C 8,3 C 65 % 1019,9 hPa 0,0 l/m 13,2 km/h (3 Bft) O 86 0 min 0,000 mm 0,0 UV-I 0 W/m 3,3 C 5,3 C 16,1 km/h (3 Bft) 100,00 %
06.04.2018 20:42 9,5 C 8,3 C 65 % 1019,9 hPa 0,0 l/m 11,7 km/h (2 Bft) O 96 0 min 0,000 mm 0,0 UV-I 0 W/m 3,3 C 6,1 C 17,7 km/h (3 Bft) 100,00 %
06.04.2018 20:44 9,6 C 8,3 C 65 % 1019,9 hPa 0,0 l/m 15,4 km/h (3 Bft) O-NO 78 0 min 0,000 mm 0,0 UV-I 0 W/m 3,4 C 4,5 C 20,9 km/h (4 Bft) 100,00 %
06.04.2018 20:45 9,6 C 8,3 C 65 % 1019,9 hPa 0,0 l/m 17,5 km/h (3 Bft) O 97 0 min 0,000 mm 0,0 UV-I 0 W/m 3,4 C 3,6 C 20,9 km/h (4 Bft) 95,65 %
06.04.2018 20:46 9,6 C 8,3 C 65 % 1019,9 hPa 0,0 l/m 15,2 km/h (3 Bft) O-NO 67 0 min 0,000 mm 0,0 UV-I 0 W/m 3,4 C 4,6 C 20,9 km/h (4 Bft) 98,08 %
06.04.2018 20:47 9,6 C 8,3 C 65 % 1019,9 hPa 0,0 l/m 17,9 km/h (3 Bft) O 88 0 min 0,000 mm 0,0 UV-I 0 W/m 3,4 C 3,5 C 22,5 km/h (4 Bft) 94,74 %
06.04.2018 20:49 9,6 C 8,3 C 65 % 1019,9 hPa 0,0 l/m 16,2 km/h (3 Bft) O 93 0 min 0,000 mm 0,0 UV-I 0 W/m 3,4 C 4,2 C 22,5 km/h (4 Bft) 98,21 %
06.04.2018 20:50 9,6 C 8,3 C 65 % 1019,9 hPa 0,0 l/m 16,0 km/h (3 Bft) O-NO 75 0 min 0,000 mm 0,0 UV-I 0 W/m 3,4 C 4,2 C 25,7 km/h (4 Bft) 91,67 %
06.04.2018 20:51 9,6 C 8,3 C 64 % 1019,9 hPa 0,0 l/m 22,0 km/h (4 Bft) O-SO 103 0 min 0,000 mm 0,0 UV-I 0 W/m 3,1 C 2,1 C 29,0 km/h (5 Bft) 96,15 %
06.04.2018 20:52 9,7 C 8,3 C 64 % 1019,9 hPa 0,0 l/m 18,7 km/h (3 Bft) O 89 0 min 0,000 mm 0,0 UV-I 0 W/m 3,2 C 3,3 C 22,5 km/h (4 Bft) 96,67 %
06.04.2018 20:53 9,7 C 8,3 C 64 % 1019,9 hPa 0,0 l/m 18,3 km/h (3 Bft) O 82 0 min 0,000 mm 0,0 UV-I 0 W/m 3,2 C 3,5 C 29,0 km/h (5 Bft) 96,15 %
06.04.2018 20:54 9,7 C 8,3 C 64 % 1020,0 hPa 0,0 l/m 21,7 km/h (4 Bft) O 89 0 min 0,000 mm 0,0 UV-I 0 W/m 3,2 C 2,4 C 29,0 km/h (5 Bft) 100,00 %
06.04.2018 20:55 9,7 C 8,3 C 64 % 1019,9 hPa 0,0 l/m 21,7 km/h (4 Bft) O 86 0 min 0,000 mm 0,0 UV-I 0 W/m 3,2 C 2,4 C 27,4 km/h (4 Bft) 95,65 %
06.04.2018 20:56 9,7 C 8,3 C 64 % 1019,9 hPa 0,0 l/m 14,9 km/h (3 Bft) O-NO 65 0 min 0,000 mm 0,0 UV-I 0 W/m 3,2 C 4,8 C 24,1 km/h (4 Bft) 100,00 %
06.04.2018 20:57 9,6 C 8,3 C 65 % 1019,9 hPa 0,0 l/m 15,6 km/h (3 Bft) O-NO 64 0 min 0,000 mm 0,0 UV-I 0 W/m 3,4 C 4,4 C 19,3 km/h (3 Bft) 96,67 %
06.04.2018 20:58 9,6 C 8,3 C 65 % 1019,9 hPa 0,0 l/m 21,4 km/h (4 Bft) O 82 0 min 0,000 mm 0,0 UV-I 0 W/m 3,4 C 2,3 C 29,0 km/h (5 Bft) 100,00 %
06.04.2018 20:59 9,6 C 8,3 C 64 % 1020,0 hPa 0,0 l/m 18,2 km/h (3 Bft) O 81 0 min 0,000 mm 0,0 UV-I 0 W/m 3,1 C 3,4 C 22,5 km/h (4 Bft) 96,30 %
06.04.2018 21:00 9,6 C 8,3 C 64 % 1019,9 hPa 0,0 l/m 19,4 km/h (3 Bft) O-NO 76 0 min 0,000 mm 0,0 UV-I 0 W/m 3,1 C 3,0 C 25,7 km/h (4 Bft) 100,00 %
06.04.2018 21:01 9,5 C 8,3 C 65 % 1019,9 hPa 0,0 l/m 19,0 km/h (3 Bft) O-SO 102 0 min 0,051 mm 0,0 UV-I 0 W/m 3,3 C 3,0 C 22,5 km/h (4 Bft) 91,67 %
06.04.2018 21:02 9,4 C 8,3 C 65 % 1019,9 hPa 0,0 l/m 16,0 km/h (3 Bft) O 94 0 min 0,000 mm 0,0 UV-I 0 W/m 3,2 C 4,0 C 19,3 km/h (3 Bft) 96,88 %
06.04.2018 21:04 9,4 C 8,3 C 65 % 1019,9 hPa 0,0 l/m 16,8 km/h (3 Bft) O 84 0 min 0,000 mm 0,0 UV-I 0 W/m 3,2 C 3,7 C 20,9 km/h (4 Bft) 98,11 %
06.04.2018 21:05 9,4 C 8,3 C 65 % 1019,9 hPa 0,0 l/m 20,4 km/h (4 Bft) O 79 0 min 0,000 mm 0,0 UV-I 0 W/m 3,2 C 2,4 C 29,0 km/h (5 Bft) 100,00 %
06.04.2018 21:06 9,4 C 8,3 C 64 % 1019,9 hPa 0,0 l/m 19,8 km/h (3 Bft) O-NO 78 0 min 0,000 mm 0,0 UV-I 0 W/m 2,9 C 2,6 C 27,4 km/h (4 Bft) 96,15 %
06.04.2018 21:07 9,4 C 8,3 C 65 % 1019,9 hPa 0,0 l/m 16,0 km/h (3 Bft) O 79 0 min 0,000 mm 0,0 UV-I 0 W/m 3,2 C 4,0 C 19,3 km/h (3 Bft) 100,00 %
06.04.2018 21:09 9,3 C 8,3 C 64 % 1019,9 hPa 0,0 l/m 18,1 km/h (3 Bft) O 96 0 min 0,000 mm 0,0 UV-I 0 W/m 2,8 C 3,0 C 24,1 km/h (4 Bft) 97,87 %
06.04.2018 21:10 9,4 C 8,3 C 64 % 1019,9 hPa 0,0 l/m 19,2 km/h (3 Bft) O 88 0 min 0,000 mm 0,0 UV-I 0 W/m 2,9 C 2,8 C 24,1 km/h (4 Bft) 95,65 %
06.04.2018 21:11 9,4 C 8,3 C 64 % 1019,9 hPa 0,0 l/m 21,0 km/h (4 Bft) O-NO 78 0 min 0,000 mm 0,0 UV-I 0 W/m 2,9 C 2,2 C 27,4 km/h (4 Bft) 95,83 %
06.04.2018 21:12 9,4 C 8,3 C 64 % 1019,9 hPa 0,0 l/m 19,7 km/h (3 Bft) O-NO 62 0 min 0,000 mm 0,0 UV-I 0 W/m 2,9 C 2,6 C 24,1 km/h (4 Bft) 96,15 %
06.04.2018 21:13 9,4 C 8,3 C 64 % 1019,9 hPa 0,0 l/m 20,0 km/h (4 Bft) O 84 0 min 0,000 mm 0,0 UV-I 0 W/m 2,9 C 2,5 C 27,4 km/h (4 Bft) 93,33 %
06.04.2018 21:14 9,4 C 8,3 C 64 % 1019,9 hPa 0,0 l/m 17,7 km/h (3 Bft) O 80 0 min 0,000 mm 0,0 UV-I 0 W/m 2,9 C 3,3 C 20,9 km/h (4 Bft) 100,00 %
06.04.2018 21:15 9,3 C 8,3 C 65 % 1019,9 hPa 0,0 l/m 15,5 km/h (3 Bft) O 92 0 min 0,000 mm 0,0 UV-I 0 W/m 3,1 C 4,1 C 20,9 km/h (4 Bft) 95,83 %
06.04.2018 21:16 9,3 C 8,3 C 65 % 1019,9 hPa 0,0 l/m 16,2 km/h (3 Bft) O 94 0 min 0,000 mm 0,0 UV-I 0 W/m 3,1 C 3,8 C 20,9 km/h (4 Bft) 100,00 %
06.04.2018 21:17 9,2 C 8,3 C 66 % 1019,9 hPa 0,0 l/m 16,8 km/h (3 Bft) O 89 0 min 0,000 mm 0,0 UV-I 0 W/m 3,2 C 3,4 C 24,1 km/h (4 Bft) 93,33 %
06.04.2018 21:19 9,2 C 8,3 C 65 % 1019,9 hPa 0,0 l/m 17,8 km/h (3 Bft) O-NO 60 0 min 0,000 mm 0,0 UV-I 0 W/m 3,0 C 3,0 C 25,7 km/h (4 Bft) 98,00 %
06.04.2018 21:20 9,2 C 8,3 C 65 % 1019,9 hPa 0,0 l/m 18,9 km/h (3 Bft) O 93 0 min 0,000 mm 0,0 UV-I 0 W/m 3,0 C 2,6 C 24,1 km/h (4 Bft) 100,00 %
06.04.2018 21:21 9,2 C 8,3 C 65 % 1019,9 hPa 0,0 l/m 17,1 km/h (3 Bft) O-NO 75 0 min 0,000 mm 0,0 UV-I 0 W/m 3,0 C 3,3 C 24,1 km/h (4 Bft) 100,00 %
06.04.2018 21:22 9,1 C 8,3 C 65 % 1020,0 hPa 0,0 l/m 17,0 km/h (3 Bft) O 92 0 min 0,000 mm 0,0 UV-I 0 W/m 2,9 C 3,2 C 22,5 km/h (4 Bft) 100,00 %
06.04.2018 21:24 9,1 C 8,3 C 65 % 1019,9 hPa 0,0 l/m 18,3 km/h (3 Bft) O-NO 71 0 min 0,000 mm 0,0 UV-I 0 W/m 2,9 C 2,7 C 24,1 km/h (4 Bft) 97,37 %
06.04.2018 21:25 9,1 C 8,9 C 65 % 1019,9 hPa 0,0 l/m 14,7 km/h (3 Bft) O-NO 74 0 min 0,000 mm 0,0 UV-I 0 W/m 2,9 C 4,2 C 17,7 km/h (3 Bft) 100,00 %
06.04.2018 21:26 9,1 C 8,3 C 65 % 1019,9 hPa 0,0 l/m 18,8 km/h (3 Bft) O-NO 76 0 min 0,000 mm 0,0 UV-I 0 W/m 2,9 C 2,5 C 22,5 km/h (4 Bft) 91,67 %
06.04.2018 21:27 9,1 C 8,3 C 65 % 1019,9 hPa 0,0 l/m 17,2 km/h (3 Bft) O-NO 73 0 min 0,000 mm 0,0 UV-I 0 W/m 2,9 C 3,1 C 20,9 km/h (4 Bft) 100,00 %
06.04.2018 21:28 9,0 C 8,3 C 65 % 1019,9 hPa 0,0 l/m 17,9 km/h (3 Bft) O-SO 107 0 min 0,000 mm 0,0 UV-I 0 W/m 2,8 C 2,7 C 24,1 km/h (4 Bft) 100,00 %
06.04.2018 21:29 9,0 C 8,3 C 65 % 1019,9 hPa 0,0 l/m 19,2 km/h (3 Bft) O 91 0 min 0,000 mm 0,0 UV-I 0 W/m 2,8 C 2,3 C 24,1 km/h (4 Bft) 100,00 %
06.04.2018 21:30 9,1 C 8,3 C 65 % 1019,9 hPa 0,0 l/m 21,4 km/h (4 Bft) O-NO 73 0 min 0,000 mm 0,0 UV-I 0 W/m 2,9 C 1,7 C 25,7 km/h (4 Bft) 96,30 %
06.04.2018 21:31 9,1 C 8,3 C 65 % 1019,9 hPa 0,0 l/m 19,6 km/h (3 Bft) O-NO 64 0 min 0,000 mm 0,0 UV-I 0 W/m 2,9 C 2,3 C 25,7 km/h (4 Bft) 100,00 %
06.04.2018 21:32 9,1 C 8,3 C 65 % 1019,9 hPa 0,0 l/m 20,2 km/h (4 Bft) O-NO 69 0 min 0,000 mm 0,0 UV-I 0 W/m 2,9 C 2,1 C 25,7 km/h (4 Bft) 98,07 %
06.04.2018 21:34 9,1 C 8,3 C 65 % 1019,9 hPa 0,0 l/m 21,3 km/h (4 Bft) O 101 0 min 0,000 mm 0,0 UV-I 0 W/m 2,9 C 1,7 C 32,2 km/h (5 Bft) 100,00 %
06.04.2018 21:35 9,1 C 8,3 C 65 % 1019,9 hPa 0,0 l/m 20,3 km/h (4 Bft) O 89 0 min 0,000 mm 0,0 UV-I 0 W/m 2,9 C 2,0 C 27,4 km/h (4 Bft) 100,00 %
06.04.2018 21:36 9,1 C 8,3 C 65 % 1019,9 hPa 0,0 l/m 17,4 km/h (3 Bft) O 79 0 min 0,000 mm 0,0 UV-I 0 W/m 2,9 C 3,1 C 20,9 km/h (4 Bft) 100,00 %
06.04.2018 21:37 9,1 C 8,3 C 65 % 1019,9 hPa 0,0 l/m 16,3 km/h (3 Bft) O 84 0 min 0,000 mm 0,0 UV-I 0 W/m 2,9 C 3,5 C 22,5 km/h (4 Bft) 100,00 %
06.04.2018 21:39 9,0 C 8,3 C 65 % 1019,9 hPa 0,0 l/m 18,2 km/h (3 Bft) O 86 0 min 0,000 mm 0,0 UV-I 0 W/m 2,8 C 2,6 C 25,7 km/h (4 Bft) 100,00 %
06.04.2018 21:40 8,9 C 8,3 C 65 % 1019,9 hPa 0,0 l/m 21,8 km/h (4 Bft) O-NO 64 0 min 0,000 mm 0,0 UV-I 0 W/m 2,7 C 1,3 C 32,2 km/h (5 Bft) 100,00 %
06.04.2018 21:41 8,9 C 8,3 C 65 % 1019,9 hPa 0,0 l/m 23,7 km/h (4 Bft) O 101 0 min 0,000 mm 0,0 UV-I 0 W/m 2,7 C 0,7 C 29,0 km/h (5 Bft) 96,30 %
06.04.2018 21:42 9,0 C 8,3 C 64 % 1019,9 hPa 0,0 l/m 23,8 km/h (4 Bft) O 97 0 min 0,000 mm 0,0 UV-I 0 W/m 2,6 C 0,8 C 30,6 km/h (5 Bft) 100,00 %
06.04.2018 21:44 9,1 C 8,3 C 64 % 1019,8 hPa 0,0 l/m 20,4 km/h (4 Bft) O 82 0 min 0,000 mm 0,0 UV-I 0 W/m 2,7 C 2,0 C 29,0 km/h (5 Bft) 98,00 %
06.04.2018 21:45 9,1 C 8,3 C 64 % 1019,8 hPa 0,0 l/m 21,2 km/h (4 Bft) O 80 0 min 0,000 mm 0,0 UV-I 0 W/m 2,7 C 1,7 C 29,0 km/h (5 Bft) 100,00 %
06.04.2018 21:46 9,0 C 8,3 C 64 % 1019,8 hPa 0,0 l/m 19,9 km/h (4 Bft) O-NO 77 0 min 0,000 mm 0,0 UV-I 0 W/m 2,6 C 2,0 C 24,1 km/h (4 Bft) 100,00 %
06.04.2018 21:48 8,9 C 8,3 C 64 % 1019,9 hPa 0,0 l/m 19,0 km/h (3 Bft) O 88 0 min 0,000 mm 0,0 UV-I 0 W/m 2,5 C 2,2 C 29,0 km/h (5 Bft) 100,00 %
06.04.2018 21:49 8,9 C 8,3 C 65 % 1019,8 hPa 0,0 l/m 27,9 km/h (4 Bft) O 80 0 min 0,000 mm 0,0 UV-I 0 W/m 2,7 C -0,4 C 32,2 km/h (5 Bft) 100,00 %
06.04.2018 21:50 8,9 C 8,3 C 64 % 1019,9 hPa 0,0 l/m 21,6 km/h (4 Bft) O-NO 69 0 min 0,000 mm 0,0 UV-I 0 W/m 2,5 C 1,3 C 27,4 km/h (4 Bft) 100,00 %
06.04.2018 21:51 8,9 C 8,9 C 64 % 1019,9 hPa 0,0 l/m 19,7 km/h (3 Bft) O-NO 74 0 min 0,000 mm 0,0 UV-I 0 W/m 2,5 C 2,0 C 22,5 km/h (4 Bft) 93,33 %
06.04.2018 21:52 8,9 C 8,3 C 64 % 1019,9 hPa 0,0 l/m 16,7 km/h (3 Bft) O-NO 67 0 min 0,000 mm 0,0 UV-I 0 W/m 2,5 C 3,1 C 22,5 km/h (4 Bft) 100,00 %
06.04.2018 21:54 8,8 C 8,3 C 65 % 1019,9 hPa 0,0 l/m 19,6 km/h (3 Bft) O-NO 64 0 min 0,000 mm 0,0 UV-I 0 W/m 2,6 C 1,9 C 25,7 km/h (4 Bft) 100,00 %
06.04.2018 21:55 8,8 C 8,9 C 65 % 1019,9 hPa 0,0 l/m 26,2 km/h (4 Bft) O-NO 64 0 min 0,000 mm 0,0 UV-I 0 W/m 2,6 C -0,1 C 30,6 km/h (5 Bft) 100,00 %
06.04.2018 22:00 8,8 C 8,3 C 65 % 1019,8 hPa 0,0 l/m 22,5 km/h (4 Bft) O-NO 67 0 min 0,076 mm 0,0 UV-I 0 W/m 2,6 C 0,9 C 35,4 km/h (5 Bft) 97,37 %
06.04.2018 22:03 8,8 C 8,3 C 65 % 1019,8 hPa 0,0 l/m 19,1 km/h (3 Bft) O 90 0 min 0,000 mm 0,0 UV-I 0 W/m 2,6 C 2,1 C 22,5 km/h (4 Bft) 99,44 %
06.04.2018 22:04 8,7 C 8,3 C 65 % 1019,8 hPa 0,0 l/m 20,2 km/h (4 Bft) O-NO 67 0 min 0,000 mm 0,0 UV-I 0 W/m 2,5 C 1,5 C 25,7 km/h (4 Bft) 100,00 %
06.04.2018 22:05 8,7 C 8,3 C 65 % 1019,8 hPa 0,0 l/m 19,9 km/h (4 Bft) O-SO 104 0 min 0,000 mm 0,0 UV-I 0 W/m 2,5 C 1,6 C 27,4 km/h (4 Bft) 100,00 %
06.04.2018 22:06 8,7 C 8,3 C 65 % 1019,9 hPa 0,0 l/m 19,6 km/h (3 Bft) O-NO 69 0 min 0,000 mm 0,0 UV-I 0 W/m 2,5 C 1,7 C 24,1 km/h (4 Bft) 96,30 %
06.04.2018 22:07 8,6 C 8,3 C 65 % 1019,8 hPa 0,0 l/m 21,0 km/h (4 Bft) O-NO 71 0 min 0,000 mm 0,0 UV-I 0 W/m 2,4 C 1,1 C 29,0 km/h (5 Bft) 95,65 %
06.04.2018 22:09 8,6 C 8,3 C 65 % 1019,8 hPa 0,0 l/m 21,1 km/h (4 Bft) O-NO 60 0 min 0,000 mm 0,0 UV-I 0 W/m 2,4 C 1,1 C 30,6 km/h (5 Bft) 97,37 %
06.04.2018 22:10 8,6 C 8,9 C 65 % 1019,8 hPa 0,0 l/m 20,4 km/h (4 Bft) O-NO 62 0 min 0,000 mm 0,0 UV-I 0 W/m 2,4 C 1,3 C 24,1 km/h (4 Bft) 100,00 %
06.04.2018 22:11 8,6 C 8,3 C 65 % 1019,8 hPa 0,0 l/m 20,0 km/h (4 Bft) O-NO 71 0 min 0,000 mm 0,0 UV-I 0 W/m 2,4 C 1,5 C 29,0 km/h (5 Bft) 100,00 %
06.04.2018 22:12 8,6 C 8,3 C 66 % 1019,8 hPa 0,0 l/m 21,8 km/h (4 Bft) O 92 0 min 0,000 mm 0,0 UV-I 0 W/m 2,6 C 0,9 C 27,4 km/h (4 Bft) 100,00 %
06.04.2018 22:13 8,6 C 8,3 C 65 % 1019,8 hPa 0,0 l/m 20,8 km/h (4 Bft) O-NO 70 0 min 0,000 mm 0,0 UV-I 0 W/m 2,4 C 1,2 C 27,4 km/h (4 Bft) 100,00 %
06.04.2018 22:14 8,6 C 8,9 C 65 % 1019,7 hPa 0,0 l/m 20,6 km/h (4 Bft) O-NO 67 0 min 0,000 mm 0,0 UV-I 0 W/m 2,4 C 1,3 C 25,7 km/h (4 Bft) 100,00 %
06.04.2018 22:15 8,6 C 8,3 C 65 % 1019,7 hPa 0,0 l/m 23,8 km/h (4 Bft) O-NO 76 0 min 0,000 mm 0,0 UV-I 0 W/m 2,4 C 0,3 C 30,6 km/h (5 Bft) 100,00 %
06.04.2018 22:16 8,6 C 8,3 C 65 % 1019,7 hPa 0,0 l/m 19,8 km/h (3 Bft) O-NO 61 0 min 0,000 mm 0,0 UV-I 0 W/m 2,4 C 1,5 C 25,7 km/h (4 Bft) 96,15 %
06.04.2018 22:17 8,6 C 8,3 C 65 % 1019,7 hPa 0,0 l/m 22,5 km/h (4 Bft) O 97 0 min 0,000 mm 0,0 UV-I 0 W/m 2,4 C 0,7 C 27,4 km/h (4 Bft) 100,00 %
06.04.2018 22:19 8,6 C 8,9 C 65 % 1019,7 hPa 0,0 l/m 20,9 km/h (4 Bft) O 90 0 min 0,000 mm 0,0 UV-I 0 W/m 2,4 C 1,2 C 30,6 km/h (5 Bft) 95,92 %
06.04.2018 22:20 8,6 C 8,3 C 65 % 1019,7 hPa 0,0 l/m 21,6 km/h (4 Bft) O 98 0 min 0,000 mm 0,0 UV-I 0 W/m 2,4 C 0,9 C 25,7 km/h (4 Bft) 100,00 %
06.04.2018 22:21 8,6 C 8,3 C 65 % 1019,7 hPa 0,0 l/m 22,4 km/h (4 Bft) O 82 0 min 0,000 mm 0,0 UV-I 0 W/m 2,4 C 0,7 C 30,6 km/h (5 Bft) 100,00 %
06.04.2018 22:22 8,6 C 8,3 C 65 % 1019,7 hPa 0,0 l/m 20,4 km/h (4 Bft) O 86 0 min 0,000 mm 0,0 UV-I 0 W/m 2,4 C 1,3 C 29,0 km/h (5 Bft) 95,45 %
06.04.2018 22:23 8,6 C 8,3 C 65 % 1019,7 hPa 0,0 l/m 27,1 km/h (4 Bft) O-SO 106 0 min 0,000 mm 0,0 UV-I 0 W/m 2,4 C -0,6 C 33,8 km/h (5 Bft) 95,83 %
06.04.2018 22:24 8,6 C 8,9 C 65 % 1019,7 hPa 0,0 l/m 21,7 km/h (4 Bft) O-NO 70 0 min 0,000 mm 0,0 UV-I 0 W/m 2,4 C 0,9 C 25,7 km/h (4 Bft) 95,65 %
06.04.2018 22:25 8,5 C 8,3 C 66 % 1019,7 hPa 0,0 l/m 19,6 km/h (3 Bft) NO 55 0 min 0,000 mm 0,0 UV-I 0 W/m 2,5 C 1,5 C 24,1 km/h (4 Bft) 91,67 %
06.04.2018 22:26 8,5 C 8,3 C 65 % 1019,6 hPa 0,0 l/m 23,5 km/h (4 Bft) O-NO 67 0 min 0,000 mm 0,0 UV-I 0 W/m 2,3 C 0,2 C 27,4 km/h (4 Bft) 100,00 %
06.04.2018 22:27 8,4 C 8,3 C 66 % 1019,7 hPa 0,0 l/m 20,3 km/h (4 Bft) O 85 0 min 0,000 mm 0,0 UV-I 0 W/m 2,4 C 1,1 C 27,4 km/h (4 Bft) 92,59 %
06.04.2018 22:28 8,4 C 8,3 C 66 % 1019,7 hPa 0,0 l/m 20,6 km/h (4 Bft) O 82 0 min 0,000 mm 0,0 UV-I 0 W/m 2,4 C 1,0 C 27,4 km/h (4 Bft) 96,15 %
06.04.2018 22:30 8,4 C 8,3 C 66 % 1019,6 hPa 0,0 l/m 20,9 km/h (4 Bft) O 90 0 min 0,000 mm 0,0 UV-I 0 W/m 2,4 C 0,9 C 37,0 km/h (5 Bft) 100,00 %
06.04.2018 22:35 8,2 C 8,3 C 67 % 1019,6 hPa 0,0 l/m 16,5 km/h (3 Bft) NO 53 0 min 0,000 mm 0,0 UV-I 0 W/m 2,4 C 2,3 C 17,7 km/h (3 Bft) 95,57 %
06.04.2018 22:36 8,2 C 8,9 C 67 % 1019,6 hPa 0,0 l/m 19,8 km/h (3 Bft) O-SO 109 0 min 0,000 mm 0,0 UV-I 0 W/m 2,4 C 1,0 C 22,5 km/h (4 Bft) 91,67 %
06.04.2018 22:37 8,1 C 8,3 C 67 % 1019,6 hPa 0,0 l/m 21,4 km/h (4 Bft) NO 55 0 min 0,000 mm 0,0 UV-I 0 W/m 2,3 C 0,4 C 25,7 km/h (4 Bft) 100,00 %
06.04.2018 22:38 8,2 C 8,3 C 67 % 1019,6 hPa 0,0 l/m 20,5 km/h (4 Bft) O 81 0 min 0,000 mm 0,0 UV-I 0 W/m 2,4 C 0,8 C 27,4 km/h (4 Bft) 92,86 %
06.04.2018 22:39 8,2 C 8,9 C 67 % 1019,6 hPa 0,0 l/m 21,5 km/h (4 Bft) O 100 0 min 0,000 mm 0,0 UV-I 0 W/m 2,4 C 0,5 C 25,7 km/h (4 Bft) 100,00 %
06.04.2018 22:40 8,2 C 8,3 C 67 % 1019,6 hPa 0,0 l/m 18,6 km/h (3 Bft) O-NO 64 0 min 0,000 mm 0,0 UV-I 0 W/m 2,4 C 1,5 C 24,1 km/h (4 Bft) 96,55 %
06.04.2018 22:41 8,1 C 8,3 C 67 % 1019,6 hPa 0,0 l/m 20,3 km/h (4 Bft) O-NO 57 0 min 0,000 mm 0,0 UV-I 0 W/m 2,3 C 0,7 C 24,1 km/h (4 Bft) 100,00 %
06.04.2018 22:42 8,1 C 8,3 C 67 % 1019,6 hPa 0,0 l/m 21,4 km/h (4 Bft) O-NO 68 0 min 0,000 mm 0,0 UV-I 0 W/m 2,3 C 0,4 C 25,7 km/h (4 Bft) 96,55 %
06.04.2018 22:43 8,1 C 8,9 C 67 % 1019,6 hPa 0,0 l/m 18,5 km/h (3 Bft) O 81 0 min 0,000 mm 0,0 UV-I 0 W/m 2,3 C 1,4 C 20,9 km/h (4 Bft) 95,83 %
06.04.2018 22:44 8,1 C 8,3 C 67 % 1019,6 hPa 0,0 l/m 19,3 km/h (3 Bft) O 85 0 min 0,000 mm 0,0 UV-I 0 W/m 2,3 C 1,1 C 27,4 km/h (4 Bft) 100,00 %
06.04.2018 22:45 8,1 C 8,3 C 67 % 1019,6 hPa 0,0 l/m 19,7 km/h (3 Bft) O 94 0 min 0,000 mm 0,0 UV-I 0 W/m 2,3 C 0,9 C 24,1 km/h (4 Bft) 96,30 %
06.04.2018 22:46 8,1 C 8,3 C 67 % 1019,6 hPa 0,0 l/m 15,9 km/h (3 Bft) O-NO 74 0 min 0,000 mm 0,0 UV-I 0 W/m 2,3 C 2,4 C 20,9 km/h (4 Bft) 95,65 %
06.04.2018 22:47 8,0 C 8,3 C 67 % 1019,6 hPa 0,0 l/m 19,2 km/h (3 Bft) O 92 0 min 0,000 mm 0,0 UV-I 0 W/m 2,3 C 1,0 C 27,4 km/h (4 Bft) 91,67 %
06.04.2018 22:48 8,0 C 8,9 C 67 % 1019,6 hPa 0,0 l/m 17,8 km/h (3 Bft) O-NO 72 0 min 0,000 mm 0,0 UV-I 0 W/m 2,3 C 1,5 C 20,9 km/h (4 Bft) 96,30 %
06.04.2018 22:49 7,9 C 8,3 C 68 % 1019,6 hPa 0,0 l/m 17,5 km/h (3 Bft) O 82 0 min 0,000 mm 0,0 UV-I 0 W/m 2,4 C 1,5 C 22,5 km/h (4 Bft) 96,88 %
06.04.2018 22:50 7,9 C 8,3 C 68 % 1019,6 hPa 0,0 l/m 17,3 km/h (3 Bft) O 85 0 min 0,000 mm 0,0 UV-I 0 W/m 2,4 C 1,6 C 19,3 km/h (3 Bft) 91,67 %
06.04.2018 22:51 7,9 C 8,3 C 68 % 1019,6 hPa 0,0 l/m 16,5 km/h (3 Bft) O-NO 71 0 min 0,000 mm 0,0 UV-I 0 W/m 2,4 C 1,9 C 19,3 km/h (3 Bft) 96,88 %
06.04.2018 22:52 7,9 C 8,9 C 68 % 1019,6 hPa 0,0 l/m 17,9 km/h (3 Bft) O-NO 75 0 min 0,000 mm 0,0 UV-I 0 W/m 2,4 C 1,4 C 20,9 km/h (4 Bft) 88,89 %
06.04.2018 22:53 7,9 C 8,9 C 68 % 1019,6 hPa 0,0 l/m 16,9 km/h (3 Bft) O 84 0 min 0,000 mm 0,0 UV-I 0 W/m 2,4 C 1,8 C 22,5 km/h (4 Bft) 100,00 %
06.04.2018 22:54 7,9 C 8,3 C 68 % 1019,6 hPa 0,0 l/m 17,3 km/h (3 Bft) O 84 0 min 0,000 mm 0,0 UV-I 0 W/m 2,4 C 1,6 C 22,5 km/h (4 Bft) 93,33 %
06.04.2018 22:55 7,9 C 8,3 C 68 % 1019,6 hPa 0,0 l/m 17,2 km/h (3 Bft) O 87 0 min 0,000 mm 0,0 UV-I 0 W/m 2,4 C 1,6 C 19,3 km/h (3 Bft) 93,10 %
06.04.2018 23:00 7,7 C 8,3 C 69 % 1019,6 hPa 0,0 l/m 19,0 km/h (3 Bft) O-NO 74 0 min 0,000 mm 0,0 UV-I 0 W/m 2,4 C 0,7 C 24,1 km/h (4 Bft) 95,65 %
06.04.2018 23:01 7,7 C 8,3 C 69 % 1019,6 hPa 0,0 l/m 16,3 km/h (3 Bft) O-NO 67 0 min 0,077 mm 0,0 UV-I 0 W/m 2,4 C 1,8 C 20,9 km/h (4 Bft) 91,30 %
06.04.2018 23:03 7,7 C 8,3 C 69 % 1019,6 hPa 0,0 l/m 16,0 km/h (3 Bft) O 79 0 min 0,000 mm 0,0 UV-I 0 W/m 2,4 C 1,9 C 20,9 km/h (4 Bft) 95,12 %
06.04.2018 23:04 7,7 C 8,3 C 69 % 1019,6 hPa 0,0 l/m 16,4 km/h (3 Bft) O 82 0 min 0,000 mm 0,0 UV-I 0 W/m 2,4 C 1,7 C 19,3 km/h (3 Bft) 93,75 %
06.04.2018 23:05 7,7 C 8,9 C 69 % 1019,6 hPa 0,0 l/m 16,1 km/h (3 Bft) O-NO 67 0 min 0,000 mm 0,0 UV-I 0 W/m 2,4 C 1,9 C 22,5 km/h (4 Bft) 98,25 %
06.04.2018 23:10 7,6 C 8,3 C 69 % 1019,6 hPa 0,0 l/m 17,7 km/h (3 Bft) O-NO 67 0 min 0,000 mm 0,0 UV-I 0 W/m 2,3 C 1,1 C 24,1 km/h (4 Bft) 97,37 %
06.04.2018 23:13 7,6 C 8,9 C 69 % 1019,6 hPa 0,0 l/m 14,1 km/h (3 Bft) O-NO 69 0 min 0,000 mm 0,0 UV-I 0 W/m 2,3 C 2,7 C 16,1 km/h (3 Bft) 94,25 %
06.04.2018 23:14 7,6 C 8,9 C 69 % 1019,5 hPa 0,0 l/m 15,4 km/h (3 Bft) O-NO 67 0 min 0,000 mm 0,0 UV-I 0 W/m 2,3 C 2,0 C 22,5 km/h (4 Bft) 100,00 %
06.04.2018 23:15 7,6 C 8,3 C 69 % 1019,6 hPa 0,0 l/m 16,7 km/h (3 Bft) O 84 0 min 0,000 mm 0,0 UV-I 0 W/m 2,3 C 1,5 C 19,3 km/h (3 Bft) 93,10 %
06.04.2018 23:16 7,6 C 8,3 C 69 % 1019,6 hPa 0,0 l/m 18,4 km/h (3 Bft) O-NO 67 0 min 0,000 mm 0,0 UV-I 0 W/m 2,3 C 0,8 C 22,5 km/h (4 Bft) 96,30 %
06.04.2018 23:17 7,6 C 8,3 C 69 % 1019,5 hPa 0,0 l/m 17,8 km/h (3 Bft) O-NO 71 0 min 0,000 mm 0,0 UV-I 0 W/m 2,3 C 1,0 C 22,5 km/h (4 Bft) 96,15 %
06.04.2018 23:18 7,5 C 8,3 C 69 % 1019,5 hPa 0,0 l/m 18,8 km/h (3 Bft) O 82 0 min 0,000 mm 0,0 UV-I 0 W/m 2,2 C 0,5 C 24,1 km/h (4 Bft) 95,83 %
06.04.2018 23:20 7,5 C 8,3 C 69 % 1019,5 hPa 0,0 l/m 17,7 km/h (3 Bft) O-NO 67 0 min 0,000 mm 0,0 UV-I 0 W/m 2,2 C 0,9 C 24,1 km/h (4 Bft) 97,37 %
06.04.2018 23:25 7,4 C 8,3 C 69 % 1019,6 hPa 0,0 l/m 17,7 km/h (3 Bft) O-NO 67 0 min 0,000 mm 0,0 UV-I 0 W/m 2,1 C 0,8 C 27,4 km/h (4 Bft) 97,37 %
06.04.2018 23:30 7,3 C 8,3 C 70 % 1019,5 hPa 0,0 l/m 14,5 km/h (3 Bft) O-NO 67 0 min 0,000 mm 0,0 UV-I 0 W/m 2,2 C 2,1 C 19,3 km/h (3 Bft) 97,37 %
06.04.2018 23:35 7,3 C 8,3 C 70 % 1019,5 hPa 0,0 l/m 14,5 km/h (3 Bft) O-NO 67 0 min 0,000 mm 0,0 UV-I 0 W/m 2,2 C 2,1 C 20,9 km/h (4 Bft) 97,37 %
06.04.2018 23:40 7,3 C 8,9 C 70 % 1019,5 hPa 0,0 l/m 16,7 km/h (3 Bft) O-NO 74 0 min 0,000 mm 0,0 UV-I 0 W/m 2,2 C 1,1 C 17,7 km/h (3 Bft) 98,64 %
06.04.2018 23:41 7,2 C 8,9 C 70 % 1019,5 hPa 0,0 l/m 14,7 km/h (3 Bft) O-NO 69 0 min 0,000 mm 0,0 UV-I 0 W/m 2,1 C 1,9 C 17,7 km/h (3 Bft) 100,00 %
06.04.2018 23:43 7,2 C 8,3 C 70 % 1019,4 hPa 0,0 l/m 14,3 km/h (3 Bft) O 81 0 min 0,000 mm 0,0 UV-I 0 W/m 2,1 C 2,1 C 20,9 km/h (4 Bft) 100,00 %
06.04.2018 23:44 7,2 C 8,3 C 70 % 1019,4 hPa 0,0 l/m 16,0 km/h (3 Bft) O-NO 72 0 min 0,000 mm 0,0 UV-I 0 W/m 2,1 C 1,3 C 20,9 km/h (4 Bft) 100,00 %
06.04.2018 23:45 7,2 C 8,9 C 70 % 1019,4 hPa 0,0 l/m 18,3 km/h (3 Bft) O-NO 70 0 min 0,000 mm 0,0 UV-I 0 W/m 2,1 C 0,3 C 24,1 km/h (4 Bft) 100,00 %
06.04.2018 23:46 7,1 C 8,9 C 70 % 1019,5 hPa 0,0 l/m 13,3 km/h (3 Bft) O-NO 75 0 min 0,000 mm 0,0 UV-I 0 W/m 2,0 C 2,5 C 17,7 km/h (3 Bft) 100,00 %
06.04.2018 23:47 7,1 C 8,3 C 70 % 1019,4 hPa 0,0 l/m 15,5 km/h (3 Bft) O 80 0 min 0,000 mm 0,0 UV-I 0 W/m 2,0 C 1,4 C 22,5 km/h (4 Bft) 100,00 %
06.04.2018 23:48 7,1 C 8,9 C 70 % 1019,4 hPa 0,0 l/m 15,4 km/h (3 Bft) O 81 0 min 0,000 mm 0,0 UV-I 0 W/m 2,0 C 1,4 C 17,7 km/h (3 Bft) 100,00 %
06.04.2018 23:49 7,1 C 8,3 C 70 % 1019,4 hPa 0,0 l/m 16,8 km/h (3 Bft) O-NO 69 0 min 0,000 mm 0,0 UV-I 0 W/m 2,0 C 0,8 C 19,3 km/h (3 Bft) 100,00 %
06.04.2018 23:50 7,1 C 8,9 C 70 % 1019,4 hPa 0,0 l/m 15,2 km/h (3 Bft) O 82 0 min 0,000 mm 0,0 UV-I 0 W/m 2,0 C 1,5 C 17,7 km/h (3 Bft) 100,00 %
06.04.2018 23:51 7,1 C 8,9 C 70 % 1019,4 hPa 0,0 l/m 14,5 km/h (3 Bft) O 79 0 min 0,000 mm 0,0 UV-I 0 W/m 2,0 C 1,9 C 17,7 km/h (3 Bft) 100,00 %
06.04.2018 23:52 7,1 C 8,3 C 70 % 1019,4 hPa 0,0 l/m 17,3 km/h (3 Bft) O-NO 63 0 min 0,000 mm 0,0 UV-I 0 W/m 2,0 C 0,6 C 22,5 km/h (4 Bft) 100,00 %
06.04.2018 23:53 7,1 C 8,3 C 71 % 1019,4 hPa 0,0 l/m 19,2 km/h (3 Bft) O-NO 63 0 min 0,000 mm 0,0 UV-I 0 W/m 2,2 C -0,2 C 24,1 km/h (4 Bft) 96,77 %
06.04.2018 23:54 7,1 C 8,3 C 70 % 1019,4 hPa 0,0 l/m 17,4 km/h (3 Bft) O-NO 74 0 min 0,000 mm 0,0 UV-I 0 W/m 2,0 C 0,6 C 22,5 km/h (4 Bft) 100,00 %
06.04.2018 23:55 7,2 C 8,9 C 70 % 1019,4 hPa 0,0 l/m 16,9 km/h (3 Bft) O-NO 62 0 min 0,000 mm 0,0 UV-I 0 W/m 2,1 C 0,9 C 20,9 km/h (4 Bft) 100,00 %
06.04.2018 23:56 7,2 C 8,9 C 70 % 1019,4 hPa 0,0 l/m 19,0 km/h (3 Bft) O-NO 69 0 min 0,000 mm 0,0 UV-I 0 W/m 2,1 C 0,0 C 24,1 km/h (4 Bft) 100,00 %
06.04.2018 23:58 7,1 C 8,3 C 71 % 1019,4 hPa 0,0 l/m 16,8 km/h (3 Bft) O 79 0 min 0,000 mm 0,0 UV-I 0 W/m 2,2 C 0,8 C 20,9 km/h (4 Bft) 100,00 %
06.04.2018 23:59 7,1 C 8,9 C 71 % 1019,4 hPa 0,0 l/m 17,5 km/h (3 Bft) O-NO 74 0 min 0,000 mm 0,0 UV-I 0 W/m 2,2 C 0,5 C 20,9 km/h (4 Bft) 100,00 %
_ Min-Zeit 07:35 00:00 16:59 18:50 - 07:39 - - - - - - 13:05 22:23 07:39 06:55
Minimum _ 5,0 C 7,8 C 42 % 1019,1 hPa - 0,0 km/h (0 Bft) - - - - - - 0,1 C -0,6 C 0,0 km/h (0 Bft) 83,33 %
_ Max-Zeit 15:59 21:25 05:32 08:27 00:00 21:49 - - 08:09 14:01 12:45 11:25 14:05 13:29 22:30 00:01
Maximum _ 13,2 C 8,9 C 83 % 1023,3 hPa 0,0 l/m 27,9 km/h
O (4 Bft)
- - 2 min 0,407 mm 3,2 UV-I 824 W/m 5,0 C 11,6 C 37,0 km/h
O-NO (5 Bft)
100,00 %
Durchschnitt _ 8,9 C 8,3 C 66 % 1021,1 hPa #0,0 l/m 11,1 km/h (2 Bft) O-NO - #11:14 h #3,658 mm 1,9 UV-I 414 W/m 2,6 C 5,9 C 14,9 km/h (3 Bft) 97,99 %